Date StartTime U_cm/s V_cm/s W_cm/s Ustd_cm/s Vstd_cm/s Wstd_cm/s Uvar_(cm/s)^2 Vvar_(cm/s)^2 Wvar_(cm/s)^2 KE_(m/s)^2 TurbulentKE_(m/s)^2 HorizWindSpeed_cm/s FrictionSpeec_cm/s DragCoef SpeedOfSound_m/s SonicTemperature_C Pressure_mb 
10/23/2013  00:00:00      -95.511      -51.809       -1.655       31.289       21.226       13.675      978.975      450.557      187.004        0.671        0.081      108.658       10.395        0.009      337.480        9.482      863.220
10/23/2013  00:01:00      -54.598      -34.369        4.261       37.940       32.478       18.307     1439.457     1054.838      335.136        0.350        0.141       64.515       13.480        0.044      337.512        9.534      863.213
10/23/2013  00:02:00      -61.031      -46.325        6.335       46.775       29.706       21.401     2187.884      882.475      457.991        0.472        0.176       76.621       18.284        0.057      337.485        9.491      863.212
10/23/2013  00:03:00      -86.381      -50.802        1.394       33.682       24.506       17.056     1134.482      600.550      290.914        0.603        0.101      100.212       18.147        0.033      337.382        9.318      863.216
10/23/2013  00:04:00      -77.700      -47.367        5.790       29.821       25.646       19.575      889.308      657.743      383.168        0.512        0.097       91.000       17.640        0.038      337.389        9.330      863.218
10/23/2013  00:05:00      -71.170      -45.134        1.349       37.387       28.189       21.295     1397.759      794.592      453.457        0.487        0.132       84.275       19.049        0.051      337.440        9.415      863.216
10/23/2013  00:06:00      -61.777      -35.890        8.573       49.237       24.634       21.018     2424.266      606.837      441.736        0.432        0.174       71.446       24.822        0.121      337.473        9.471      863.217
10/23/2013  00:07:00      -62.519      -40.953        6.487       37.889       34.560       24.826     1435.539     1194.379      616.320        0.444        0.162       74.738       20.647        0.076      337.497        9.510      863.221
10/23/2013  00:08:00      -48.896      -33.651       10.881       43.043       28.059       22.238     1852.719      787.298      494.512        0.339        0.157       59.357       22.458        0.143      337.496        9.509      863.216
10/23/2013  00:09:00      -39.079      -38.085        9.639       45.256       30.570       22.684     2048.095      934.520      514.583        0.328        0.175       54.568       21.112        0.150      337.479        9.481      863.214
10/23/2013  00:10:00      -70.922      -70.355        1.100       48.099       39.399       21.177     2313.487     1552.279      448.453        0.715        0.216       99.899       18.944        0.036      337.471        9.467      863.222
10/23/2013  00:11:00      -64.375      -60.158       11.869       53.260       37.098       30.738     2836.596     1376.260      944.835        0.653        0.258       88.109       32.412        0.135      337.519        9.546      863.222
10/23/2013  00:12:00     -128.679      -95.160       -6.264       33.045       38.441       22.761     1091.945     1477.732      518.056        1.437        0.154      160.043       16.425        0.011      337.638        9.747      863.215
10/23/2013  00:13:00     -130.464      -61.768       -2.141       37.505       24.742       19.765     1406.595      612.172      390.636        1.162        0.120      144.348       16.843        0.014      337.570        9.633      863.219
10/23/2013  00:14:00     -143.521      -56.773       -3.879       30.572       27.004       15.536      934.658      729.230      241.367        1.287        0.095      154.342       12.412        0.006      337.559        9.616      863.222
10/23/2013  00:15:00     -124.283      -65.778        3.882       36.772       26.598       23.228     1352.149      707.461      539.532        1.119        0.130      140.616       20.311        0.021      337.554        9.607      863.220
10/23/2013  00:16:00      -90.485      -53.144        6.434       38.890       33.048       22.677     1512.414     1092.199      514.242        0.709        0.156      104.937       20.804        0.039      337.564        9.623      863.219
10/23/2013  00:17:00     -105.553      -49.287        0.868       38.736       30.665       19.220     1500.490      940.362      369.416        0.819        0.141      116.493       18.917        0.026      337.592        9.671      863.227
10/23/2013  00:18:00      -77.521      -49.406        4.713       44.062       30.025       23.389     1941.445      901.510      547.028        0.593        0.169       91.926       22.000        0.057      337.619        9.716      863.227
10/23/2013  00:19:00     -108.844      -49.106       -2.240       32.786       18.185       13.666     1074.954      330.704      186.747        0.793        0.080      119.409       14.029        0.014      337.594        9.674      863.227
10/23/2013  00:20:00      -70.505      -34.427        3.449       30.703       25.487       19.753      942.670      649.572      390.171        0.407        0.099       78.461       15.931        0.041      337.611        9.702      863.244
10/23/2013  00:21:00      -86.434      -25.616        0.694       29.412       21.423       13.748      865.072      458.945      189.013        0.482        0.076       90.150       14.599        0.026      337.522        9.553      863.245
10/23/2013  00:22:00     -101.682      -37.545       -3.119       21.654       18.050       11.639      468.909      325.787      135.468        0.634        0.047      108.392       10.141        0.009      337.480        9.483      863.244
10/23/2013  00:23:00     -104.607      -51.010       -0.832       26.281       18.549       15.068      690.685      344.056      227.035        0.740        0.063      116.381       14.941        0.016      337.467        9.460      863.242
10/23/2013  00:24:00      -76.699      -42.150       -0.492       47.059       25.925       19.699     2214.532      672.127      388.049        0.547        0.164       87.517       23.207        0.070      337.462        9.452      863.246
10/23/2013  00:25:00     -116.641      -41.183       -7.401       19.375       23.120       10.671      375.396      534.557      113.877        0.819        0.051      123.698        9.323        0.006      337.468        9.461      863.239
10/23/2013  00:26:00     -110.782      -49.019        4.079       34.114       22.040       19.167     1163.764      485.758      367.384        0.835        0.101      121.142       18.437        0.023      337.452        9.435      863.229
10/23/2013  00:27:00      -69.572      -37.491       10.282       47.111       27.003       24.113     2219.484      729.154      581.433        0.494        0.177       79.031       21.970        0.077      337.349        9.263      863.239
10/23/2013  00:28:00      -45.401      -30.254        7.658       44.673       27.928       21.278     1995.717      779.960      452.750        0.313        0.161       54.558       22.233        0.166      337.258        9.112      863.240
10/23/2013  00:29:00      -74.872      -51.805        4.848       42.564       22.927       20.511     1811.722      525.631      420.720        0.554        0.138       91.047       13.729        0.023      337.275        9.139      863.238
10/23/2013  00:30:00      -65.554      -42.337        3.605       46.095       27.021       21.823     2124.737      730.131      476.230        0.472        0.167       78.037       19.759        0.064      337.289        9.163      863.244
10/23/2013  00:31:00      -58.461      -49.380        3.096       44.912       33.401       18.872     2017.087     1115.658      356.169        0.468        0.174       76.525       17.770        0.054      337.295        9.173      863.252
10/23/2013  00:32:00      -94.162      -58.242        0.441       39.400       25.155       19.529     1552.323      632.789      381.366        0.741        0.128      110.719       14.138        0.016      337.294        9.171      863.249
10/23/2013  00:33:00     -113.203      -51.680        1.549       35.109       18.861       15.548     1232.620      355.731      241.746        0.866        0.092      124.441       13.867        0.012      337.259        9.113      863.243
10/23/2013  00:34:00     -111.861      -51.514        3.610       41.250       29.891       21.471     1701.553      893.484      461.002        0.912        0.153      123.153       21.586        0.031      337.204        9.019      863.244
10/23/2013  00:35:00      -99.790      -61.421        3.518       40.913       37.249       23.622     1673.892     1387.500      558.005        0.868        0.181      117.178       24.474        0.044      337.266        9.126      863.259
10/23/2013  00:36:00     -145.500      -55.010       -7.773       40.301       32.633       19.584     1624.155     1064.890      383.527        1.366        0.154      155.552       19.088        0.015      337.275        9.140      863.256
10/23/2013  00:37:00     -135.804      -59.443       -2.705       27.685       30.235       21.543      766.433      914.130      464.098        1.206        0.107      148.244       15.112        0.010      337.298        9.178      863.244
10/23/2013  00:38:00     -147.585      -57.449       -7.321       22.733       22.161       18.460      516.785      491.118      340.765        1.324        0.067      158.372       12.361        0.006      337.296        9.173      863.243
10/23/2013  00:39:00     -138.210      -60.616       -7.715       23.009       21.969       16.999      529.393      482.625      288.977        1.207        0.065      150.918       12.137        0.006      337.333        9.236      863.231
10/23/2013  00:40:00     -144.108      -49.998       -1.891       29.519       22.667       16.668      871.359      513.795      277.834        1.247        0.083      152.535       16.492        0.012      337.285        9.156      863.211
10/23/2013  00:41:00     -150.689      -57.011       -4.055       20.339       16.438       12.577      413.687      270.206      158.177        1.341        0.042      161.113        8.640        0.003      337.206        9.024      863.215
10/23/2013  00:42:00     -123.792      -43.829       -4.331       28.142       25.622       14.412      791.965      656.486      207.697        0.946        0.083      131.322       11.548        0.008      337.223        9.053      863.209
10/23/2013  00:43:00     -116.034      -37.694       -2.872       30.193       29.829       17.916      911.613      889.764      320.999        0.851        0.106      122.003       14.682        0.014      337.192        9.000      863.198
10/23/2013  00:44:00     -130.320      -12.370       -7.242       28.810       18.694       15.651      830.035      349.481      244.959        0.931        0.071      130.906       12.143        0.009      337.103        8.850      863.191
10/23/2013  00:45:00     -119.298      -22.062       -5.097       32.027       19.502       19.470     1025.710      380.335      379.085        0.826        0.089      121.321       20.294        0.028      337.025        8.720      863.197
10/23/2013  00:46:00     -107.365       -9.472       -3.235       35.119       20.934       18.830     1233.342      438.227      354.577        0.683        0.101      107.782       18.668        0.030      336.953        8.600      863.193
10/23/2013  00:47:00      -98.758      -12.824        1.205       37.615       20.179       20.195     1414.857      407.193      407.857        0.607        0.111       99.587       22.612        0.052      336.927        8.557      863.191
10/23/2013  00:48:00     -106.964      -13.472       -1.187       43.709       20.434       17.983     1910.433      417.551      323.374        0.714        0.133      107.809       22.911        0.045      336.990        8.662      863.200
10/23/2013  00:49:00     -130.998        1.143      -12.869       28.875       21.852       18.967      833.737      477.531      359.733        0.950        0.084      131.003       15.110        0.013      337.115        8.872      863.216
10/23/2013  00:50:00     -118.824        2.846       -4.233       34.619       21.726       24.083     1198.443      472.029      579.968        0.820        0.113      118.858       22.471        0.036      337.008        8.691      863.217
10/23/2013  00:51:00      -75.694       -8.861       -3.921       28.464       25.100       13.964      810.222      630.004      194.981        0.373        0.082       76.211       11.200        0.022      336.981        8.645      863.214
10/23/2013  00:52:00      -45.269      -25.279        7.974       30.331       16.612       13.618      919.994      275.968      185.437        0.207        0.069       51.849       16.223        0.098      337.014        8.701      863.219
10/23/2013  00:53:00      -47.604      -38.970       -0.740       29.078       21.794       13.605      845.512      474.986      185.084        0.265        0.075       61.520        7.790        0.016      337.071        8.796      863.228
10/23/2013  00:54:00      -86.095      -66.937       -5.531       34.088       26.086       17.808     1162.007      680.456      317.139        0.704        0.108      109.055       16.498        0.023      337.201        9.014      863.226
10/23/2013  00:55:00      -99.545      -86.813       -5.340       30.719       39.843       17.914      943.671     1587.452      320.920        1.016        0.143      132.082        9.153        0.005      337.187        8.993      863.220
10/23/2013  00:56:00     -127.979     -110.585       -6.746       47.916       41.152       24.172     2295.965     1693.475      584.291        1.661        0.229      169.138       24.595        0.021      337.118        8.876      863.221
10/23/2013  00:57:00     -116.332      -88.312       -4.403       50.253       47.602       25.866     2525.393     2265.910      669.072        1.341        0.273      146.056       26.712        0.033      337.168        8.960      863.221
10/23/2013  00:58:00      -98.497      -58.940       -0.925       49.679       28.212       21.702     2467.986      795.905      470.979        0.846        0.187      114.785       23.305        0.041      337.165        8.955      863.221
10/23/2013  00:59:00      -35.425      -28.158        6.330       47.813       24.675       21.472     2286.049      608.865      461.064        0.272        0.168       45.253       25.227        0.311      337.083        8.818      863.213
10/23/2013  01:00:00      -37.718      -37.771        8.106       35.764       28.349       21.794     1279.040      803.677      474.985        0.274        0.128       53.379       18.614        0.122      337.064        8.786      863.216
10/23/2013  01:01:00      -66.515      -53.446        0.568       30.576       25.829       18.230      934.893      667.141      332.319        0.461        0.097       85.327       14.837        0.030      337.078        8.808      863.222
10/23/2013  01:02:00      -80.588      -45.635        1.156       32.312       23.385       17.619     1044.071      546.851      310.420        0.524        0.095       92.612       13.926        0.023      337.071        8.796      863.214
10/23/2013  01:03:00      -42.338      -31.268        7.175       41.731       27.658       23.717     1741.463      764.937      562.481        0.294        0.153       52.632       21.086        0.161      337.076        8.806      863.213
10/23/2013  01:04:00      -38.972      -34.515        8.623       35.480       23.336       18.593     1258.837      544.572      345.714        0.247        0.107       52.058       18.596        0.128      337.085        8.819      863.221
10/23/2013  01:05:00      -50.485      -33.857        5.939       34.283       23.254       14.250     1175.350      540.753      203.070        0.282        0.096       60.787        9.778        0.026      337.031        8.730      863.221
10/23/2013  01:06:00      -94.652      -44.977        1.116       28.053       18.765       14.023      786.976      352.133      196.642        0.616        0.067      104.794       10.088        0.009      336.964        8.619      863.217
10/23/2013  01:07:00      -42.044      -37.938        9.612       44.829       18.794       15.798     2009.677      353.217      249.572        0.296        0.131       56.630       19.076        0.113      337.011        8.695      863.210
10/23/2013  01:08:00      -54.918      -32.463        4.154       42.505       19.528       21.530     1806.715      381.351      463.540        0.337        0.133       63.795       18.360        0.083      336.960        8.611      863.215
10/23/2013  01:09:00      -36.435      -28.130        6.703       39.189       24.454       22.496     1535.804      597.987      506.088        0.240        0.132       46.031       23.687        0.265      336.868        8.459      863.221
10/23/2013  01:10:00      -78.410      -48.978        0.309       32.661       19.917       15.462     1066.724      396.703      239.062        0.512        0.085       92.450       14.702        0.025      336.831        8.396      863.212
10/23/2013  01:11:00      -77.658      -61.519       -5.270       33.584       27.488       12.229     1127.869      755.616      149.552        0.594        0.102       99.072        8.056        0.007      336.883        8.483      863.205
10/23/2013  01:12:00      -97.069      -57.113       -0.950       27.847       21.615       19.273      775.453      467.202      371.457        0.715        0.081      112.624       16.662        0.022      336.837        8.406      863.211
10/23/2013  01:13:00      -76.413      -53.833        2.775       29.746       26.264       21.430      884.851      689.795      459.229        0.539        0.102       93.472       17.933        0.037      336.832        8.399      863.209
10/23/2013  01:14:00      -35.143      -40.267        3.705       36.785       23.586       19.869     1353.108      556.315      394.766        0.259        0.115       53.446       16.257        0.093      336.815        8.370      863.203
10/23/2013  01:15:00      -70.968      -56.606        1.749       36.625       29.564       17.227     1341.375      874.003      296.764        0.538        0.126       90.778       14.681        0.026      336.803        8.351      863.210
10/23/2013  01:16:00      -88.328      -70.630       -3.748       45.141       36.424       21.721     2037.736     1326.742      471.785        0.832        0.192      113.095       19.900        0.031      336.883        8.483      863.204
10/23/2013  01:17:00      -93.968      -81.038       -0.803       53.403       34.885       25.851     2851.904     1216.964      668.266        1.007        0.237      124.085       29.173        0.055      336.969        8.627      863.196
10/23/2013  01:18:00     -106.005      -69.758       -6.679       44.732       32.108       23.688     2000.919     1030.943      561.118        0.987        0.180      126.899       16.639        0.017      336.934        8.569      863.197
10/23/2013  01:19:00      -71.164      -55.338        4.808       44.530       30.359       19.979     1982.888      921.652      399.174        0.573        0.165       90.148       21.677        0.058      336.926        8.557      863.196
10/23/2013  01:20:00      -45.048      -27.372        7.452       35.068       30.072       21.689     1229.788      904.331      470.434        0.272        0.130       52.712       18.109        0.118      336.834        8.403      863.196
10/23/2013  01:21:00      -55.488      -32.242       10.345       39.035       27.753       23.144     1523.754      770.207      535.654        0.353        0.141       64.176       20.152        0.099      336.787        8.324      863.192
10/23/2013  01:22:00      -40.220      -28.645        9.003       36.931       23.537       22.786     1363.922      554.006      519.191        0.248        0.122       49.378       22.803        0.213      336.791        8.330      863.199
10/23/2013  01:23:00      -75.119      -28.411        4.664       34.887       18.338       15.083     1217.070      336.268      227.489        0.413        0.089       80.313       18.560        0.053      336.724        8.219      863.199
10/23/2013  01:24:00      -51.718      -38.514        7.180       37.208       23.790       21.462     1384.448      565.975      460.630        0.331        0.121       64.483       22.662        0.124      336.706        8.188      863.187
10/23/2013  01:25:00      -64.803      -29.091        0.707       45.210       19.844       16.962     2043.927      393.777      287.710        0.389        0.136       71.033       16.743        0.056      336.687        8.156      863.196
10/23/2013  01:26:00      -73.042      -23.470        3.858       36.579       25.809       20.215     1338.053      666.129      408.650        0.416        0.121       76.720       20.703        0.073      336.586        7.988      863.192
10/23/2013  01:27:00      -42.524      -26.620        8.478       45.891       29.161       19.918     2105.989      850.340      396.713        0.297        0.168       50.169       20.915        0.174      336.648        8.091      863.185
10/23/2013  01:28:00      -39.490      -27.634       10.756       46.242       31.726       26.271     2138.306     1006.522      690.141        0.314        0.192       48.199       27.555        0.327      336.697        8.174      863.182
10/23/2013  01:29:00     -110.680      -62.064       -3.924       29.105       23.410       19.470      847.112      548.027      379.067        0.895        0.089      126.893       13.242        0.011      336.699        8.178      863.177
10/23/2013  01:30:00      -60.994      -44.809        9.345       42.595       32.797       21.219     1814.344     1075.630      450.231        0.458        0.167       75.684       20.965        0.077      336.758        8.276      863.165
10/23/2013  01:31:00      -89.391      -51.200        1.130       39.449       23.902       17.759     1556.252      571.295      315.394        0.653        0.122      103.016       18.857        0.034      336.740        8.245      863.159
10/23/2013  01:32:00      -89.594      -43.981        8.377       39.059       27.517       22.362     1525.623      757.167      500.053        0.641        0.139       99.807       21.568        0.047      336.670        8.130      863.170
10/23/2013  01:33:00      -82.932      -33.254        4.385       39.231       27.300       17.876     1539.034      745.315      319.553        0.530        0.130       89.351       18.696        0.044      336.658        8.108      863.162
10/23/2013  01:34:00     -113.911      -31.169       -0.204       29.685       28.320       16.162      881.180      802.038      261.207        0.795        0.097      118.099       11.230        0.009      336.623        8.050      863.160
10/23/2013  01:35:00     -114.615      -38.905        4.997       32.160       21.983       15.634     1034.278      483.263      244.435        0.822        0.088      121.038       14.397        0.014      336.658        8.109      863.172
10/23/2013  01:36:00     -100.912      -43.888        0.998       32.854       22.689       16.466     1079.385      514.774      271.135        0.699        0.093      110.043       12.081        0.012      336.667        8.124      863.170
10/23/2013  01:37:00     -104.647      -35.760        3.301       28.344       26.981       16.786      803.386      727.981      281.759        0.703        0.091      110.588       14.322        0.017      336.734        8.236      863.165
10/23/2013  01:38:00     -112.382      -38.801       -0.930       27.795       20.115       13.730      772.583      404.619      188.511        0.775        0.068      118.891       14.087        0.014      336.658        8.109      863.174
10/23/2013  01:39:00      -88.185      -43.089        5.935       36.137       23.612       18.908     1305.865      557.546      357.509        0.594        0.111       98.149       19.121        0.038      336.655        8.104      863.180
10/23/2013  01:40:00     -101.281      -50.607        4.602       37.688       24.413       15.293     1420.419      596.008      233.871        0.754        0.113      113.220       14.055        0.015      336.678        8.142      863.173
10/23/2013  01:41:00      -50.465      -37.736        3.712       43.975       32.441       23.188     1933.834     1052.389      537.702        0.375        0.176       63.014       21.169        0.113      336.585        7.987      863.179
10/23/2013  01:42:00      -81.482      -52.023        4.126       51.565       28.332       22.570     2658.959      802.706      509.417        0.667        0.199       96.674        9.944        0.011      336.523        7.883      863.178
10/23/2013  01:43:00      -50.023      -24.608        4.286       44.825       25.965       22.774     2009.245      674.205      518.661        0.316        0.160       55.749       21.991        0.156      336.514        7.866      863.184
10/23/2013  01:44:00     -113.433      -52.896        4.775       24.772       23.985       16.871      613.652      575.298      284.644        0.858        0.074      125.160       12.267        0.010      336.542        7.913      863.178
10/23/2013  01:45:00     -114.898      -51.715       -0.724       47.783       29.939       19.383     2283.183      896.320      375.708        0.972        0.178      126.000       20.133        0.026      336.573        7.968      863.173
10/23/2013  01:46:00     -104.829      -39.691        3.453       35.879       26.403       22.125     1287.306      697.127      489.495        0.752        0.124      112.091        8.637        0.006      336.669        8.126      863.181
10/23/2013  01:47:00      -79.314      -45.625       11.750       45.521       29.500       25.065     2072.137      870.266      628.269        0.604        0.179       91.501       22.803        0.062      336.643        8.084      863.176
10/23/2013  01:48:00     -111.045      -52.610        3.265       41.649       33.533       24.705     1734.616     1124.492      610.334        0.929        0.173      122.877       24.457        0.040      336.654        8.104      863.177
10/23/2013  01:49:00     -123.354      -47.921        1.581       37.753       27.429       16.189     1425.300      752.371      262.097        0.998        0.122      132.336       16.565        0.016      336.612        8.033      863.179
10/23/2013  01:50:00     -110.883      -66.169        0.335       38.207       36.147       20.736     1459.783     1306.596      429.970        0.993        0.160      129.125       19.582        0.023      336.701        8.180      863.185
10/23/2013  01:51:00     -122.018      -50.796       -4.613       42.464       24.728       14.841     1803.186      611.487      220.265        1.006        0.132      132.169       13.787        0.011      336.657        8.106      863.182
10/23/2013  01:52:00     -118.443      -56.774       -3.065       33.425       30.592       16.658     1117.259      935.841      277.494        0.980        0.117      131.347       13.532        0.011      336.656        8.106      863.174
10/23/2013  01:53:00     -107.799      -43.203       -3.100       37.070       22.637       14.991     1374.212      512.453      224.745        0.780        0.106      116.134       16.167        0.019      336.639        8.079      863.179
10/23/2013  01:54:00     -123.820      -55.019       -3.678       17.080       22.323       16.531      291.718      498.306      273.284        0.972        0.053      135.494       10.183        0.006      336.685        8.153      863.178
10/23/2013  01:55:00     -127.605      -32.014       -9.628       18.966       22.658       14.705      359.690      513.407      216.233        0.924        0.054      131.560        8.985        0.005      336.610        8.029      863.171
10/23/2013  01:56:00     -119.083      -40.095        3.061       30.948       23.295       15.631      957.779      542.658      244.330        0.877        0.087      125.651       11.052        0.008      336.628        8.058      863.165
10/23/2013  01:57:00     -108.231      -35.257        3.106       32.626       24.586       15.325     1064.455      604.476      234.867        0.743        0.095      113.829       11.559        0.010      336.568        7.957      863.176
10/23/2013  01:58:00     -101.793      -36.448       -3.944       25.988       22.795       13.971      675.365      519.613      195.195        0.655        0.070      108.121       12.714        0.014      336.535        7.903      863.173
10/23/2013  01:59:00     -108.351      -45.495       -3.874       22.641       20.943       14.258      512.629      438.616      203.278        0.749        0.058      117.514       15.883        0.018      336.497        7.839      863.175
10/23/2013  02:00:00      -98.103      -44.777       -1.187       19.059       16.997       10.487      363.262      288.911      109.975        0.620        0.038      107.839        9.055        0.007      336.383        7.650      863.179
10/23/2013  02:01:00      -96.553      -35.217       -5.840       24.656       16.231       15.496      607.894      263.459      240.131        0.585        0.056      102.775       17.232        0.028      336.438        7.741      863.181
10/23/2013  02:02:00      -98.432      -32.951       -5.421       14.394       18.133       10.791      207.187      328.791      116.441        0.573        0.033      103.800        7.357        0.005      336.494        7.835      863.184
10/23/2013  02:03:00      -98.798      -40.200       -3.387       16.100       18.857       10.721      259.221      355.580      114.935        0.606        0.036      106.664        7.328        0.005      336.522        7.881      863.190
10/23/2013  02:04:00     -132.288      -27.832      -11.865       18.450       14.292       11.542      340.413      204.272      133.209        0.955        0.034      135.185       11.969        0.008      336.618        8.041      863.192
10/23/2013  02:05:00     -126.780      -23.405      -12.187       15.725       13.984       10.447      247.284      195.542      109.134        0.866        0.028      128.922        6.589        0.003      336.624        8.051      863.187
10/23/2013  02:06:00     -127.079      -28.602      -10.462       11.774        9.779        7.952      138.631       95.620       63.235        0.869        0.015      130.258        2.908        0.000      336.587        7.989      863.186
10/23/2013  02:07:00     -101.147      -40.572       -2.284       23.020       13.149       10.550      529.903      172.909      111.299        0.635        0.041      108.980       12.748        0.014      336.519        7.876      863.195
10/23/2013  02:08:00      -66.629      -30.937       -2.372       21.212       17.520       12.193      449.932      306.960      148.661        0.315        0.045       73.460       11.615        0.025      336.555        7.935      863.197
10/23/2013  02:09:00      -95.147      -16.355       -8.421        7.863       11.964        9.244       61.819      143.139       85.455        0.484        0.015       96.543        6.046        0.004      336.577        7.974      863.183
10/23/2013  02:10:00      -83.677      -16.867      -10.252        7.565       10.299        8.017       57.222      106.077       64.276        0.381        0.011       85.360        4.525        0.003      336.593        8.000      863.180
10/23/2013  02:11:00      -83.276      -21.485       -9.543       20.434       10.972       10.135      417.538      120.386      102.715        0.406        0.032       86.003        8.309        0.009      336.557        7.939      863.188
10/23/2013  02:12:00     -111.094      -36.074      -13.509        7.115        8.063        5.665       50.621       65.007       32.088        0.699        0.007      116.804        3.008        0.001      336.394        7.665      863.186
10/23/2013  02:13:00     -104.368      -38.086      -11.856        8.666       10.216        6.972       75.100      104.360       48.603        0.636        0.011      111.100        3.281        0.001      336.429        7.724      863.186
10/23/2013  02:14:00      -89.838      -25.204       -8.859       24.020       18.082       10.899      576.946      326.946      118.780        0.490        0.051       93.307        7.613        0.007      336.378        7.639      863.189
10/23/2013  02:15:00      -88.685      -32.295       -5.907       24.384       15.616       13.432      594.603      243.852      180.418        0.498        0.051       94.382       13.342        0.020      336.348        7.587      863.200
10/23/2013  02:16:00     -115.611      -26.995      -12.784       17.883       18.052       12.342      319.809      325.873      152.314        0.753        0.040      118.720       10.810        0.008      336.361        7.612      863.213
10/23/2013  02:17:00     -137.854      -35.934      -11.723       12.859       13.135        9.805      165.350      172.538       96.134        1.043        0.022      142.461        6.390        0.002      336.401        7.678      863.223
10/23/2013  02:18:00     -125.577      -22.772       -8.337       21.229       16.904       12.547      450.678      285.732      157.432        0.863        0.045      127.625       12.586        0.010      336.310        7.526      863.217
10/23/2013  02:19:00     -123.462      -18.981      -15.523       18.141       15.101       12.450      329.087      228.043      155.011        0.828        0.036      124.913       10.784        0.007      336.312        7.528      863.220
10/23/2013  02:20:00     -118.514      -21.321      -15.539       19.602       16.774       14.165      384.219      281.353      200.661        0.780        0.043      120.416       11.870        0.010      336.243        7.414      863.223
10/23/2013  02:21:00     -103.387      -19.877      -10.658       22.784       16.625       11.797      519.108      276.402      139.173        0.607        0.047      105.281       11.562        0.012      336.275        7.469      863.223
10/23/2013  02:22:00      -99.026      -24.129       -8.115       14.441       11.573        9.955      208.542      133.943       99.100        0.545        0.022      101.923        7.818        0.006      336.320        7.544      863.223
10/23/2013  02:23:00      -97.984      -29.123       -3.982       25.116       17.238       12.783      630.792      297.145      163.416        0.578        0.055      102.220       14.203        0.019      336.201        7.344      863.213
10/23/2013  02:24:00     -111.639      -33.998      -17.224        9.564       10.481        6.885       91.476      109.846       47.399        0.708        0.012      116.701        3.237        0.001      336.102        7.178      863.205
10/23/2013  02:25:00     -118.770      -52.873      -10.549       11.233        8.935        5.727      126.190       79.832       32.800        0.863        0.012      130.007        3.755        0.001      336.199        7.339      863.210
10/23/2013  02:26:00     -121.953      -33.522      -11.055       13.060        8.850        7.344      170.556       78.315       53.929        0.821        0.015      126.476        4.266        0.001      336.223        7.381      863.215
10/23/2013  02:27:00     -123.959      -38.557      -14.832        8.024        7.839        6.914       64.384       61.451       47.801        0.862        0.009      129.817        3.384        0.001      336.387        7.655      863.211
10/23/2013  02:28:00     -120.021      -48.258      -14.159        7.576       10.026        7.050       57.402      100.515       49.707        0.857        0.010      129.360        4.295        0.001      336.390        7.659      863.209
10/23/2013  02:29:00     -112.835      -56.584      -12.697        8.347        8.798        6.723       69.664       77.399       45.198        0.814        0.010      126.228        3.509        0.001      336.399        7.673      863.210
10/23/2013  02:30:00     -124.865      -51.774       -9.206       11.192       16.037        8.125      125.270      257.171       66.022        0.940        0.022      135.173        2.584        0.000      336.292        7.495      863.207
10/23/2013  02:31:00     -131.980      -46.499      -12.567       14.471       15.078        7.262      209.397      227.355       52.740        1.011        0.024      139.932        3.960        0.001      336.262        7.445      863.206
10/23/2013  02:32:00     -104.608      -34.423      -13.832       18.017       16.078        7.664      324.599      258.502       58.744        0.648        0.032      110.126        4.473        0.002      336.259        7.442      863.198
10/23/2013  02:33:00     -110.548      -22.890      -12.212       15.357       13.663       11.023      235.833      186.691      121.500        0.672        0.027      112.893        6.412        0.003      336.278        7.474      863.203
10/23/2013  02:34:00     -126.753      -30.504      -12.834       17.451       12.197       12.796      304.544      148.773      163.741        0.889        0.031      130.371       11.203        0.007      336.198        7.339      863.203
10/23/2013  02:35:00     -111.946      -40.803      -13.006       19.420       17.880       13.057      377.128      319.688      170.484        0.762        0.043      119.150       11.201        0.009      336.104        7.181      863.198
10/23/2013  02:36:00     -119.867      -33.198      -14.195       20.507       16.674       12.592      420.556      278.023      158.547        0.826        0.043      124.379       10.968        0.008      336.135        7.233      863.192
10/23/2013  02:37:00     -106.976      -24.770      -12.829       17.181       20.231       15.938      295.188      409.309      254.033        0.659        0.048      109.806       10.008        0.008      336.066        7.118      863.196
10/23/2013  02:38:00     -119.476      -37.013      -13.225       14.264       19.351        9.387      203.466      374.472       88.119        0.824        0.033      125.078        6.885        0.003      335.981        6.976      863.202
10/23/2013  02:39:00     -124.522      -38.461      -12.982       10.424       14.127        9.687      108.670      199.565       93.833        0.878        0.020      130.326        7.803        0.004      336.020        7.040      863.204
10/23/2013  02:40:00      -98.317      -29.638      -12.886       20.591       18.588       14.222      423.995      345.497      202.253        0.584        0.049      102.687       10.651        0.011      336.087        7.153      863.201
10/23/2013  02:41:00      -89.115      -34.601       -4.903       25.140       22.297       14.412      631.999      497.152      207.696        0.525        0.067       95.597       15.691        0.027      336.068        7.121      863.196
10/23/2013  02:42:00     -117.474      -15.116      -10.961       25.872       17.698       12.333      669.373      313.213      152.094        0.764        0.057      118.442       13.566        0.013      335.990        6.991      863.196
10/23/2013  02:43:00     -112.340      -31.862       -8.490       16.892       15.470        9.013      285.333      239.306       81.236        0.716        0.030      116.771        8.956        0.006      335.996        7.001      863.206
10/23/2013  02:44:00     -125.650      -15.242      -18.099        8.790       15.101        9.128       77.257      228.054       83.314        0.837        0.019      126.571        7.129        0.003      336.023        7.047      863.204
10/23/2013  02:45:00     -117.986      -41.943      -15.522       12.525       11.154        9.922      156.878      124.404       98.452        0.815        0.019      125.220        6.910        0.003      336.097        7.169      863.201
10/23/2013  02:46:00     -100.896      -50.407       -6.662       13.571       12.671       10.941      184.160      160.563      119.699        0.661        0.023      112.787        9.545        0.007      336.040        7.074      863.212
10/23/2013  02:47:00     -102.790      -49.443      -13.586        8.879       10.474        6.729       78.836      109.705       45.275        0.671        0.012      114.063        4.734        0.002      335.990        6.990      863.224
10/23/2013  02:48:00      -82.715      -28.884       -8.862       13.496       12.718       10.226      182.151      161.736      104.573        0.410        0.022       87.614        7.650        0.008      336.030        7.058      863.226
10/23/2013  02:49:00      -84.460      -27.377      -12.632       10.304        8.866        7.666      106.182       78.604       58.769        0.414        0.012       88.786        3.162        0.001      336.084        7.147      863.221
10/23/2013  02:50:00      -68.030      -26.614       -8.687       13.624       10.409        7.830      185.611      108.350       61.315        0.288        0.018       73.050        5.047        0.005      336.140        7.242      863.223
10/23/2013  02:51:00      -69.481      -20.109       -6.555        7.340       10.769        6.089       53.874      115.982       37.071        0.274        0.010       72.333        5.207        0.005      336.129        7.220      863.230
10/23/2013  02:52:00      -67.711      -17.924      -10.209        6.137        8.297        5.902       37.664       68.835       34.834        0.258        0.007       70.043        3.876        0.003      336.094        7.163      863.227
10/23/2013  02:53:00      -75.866      -21.272       -9.688       11.503        8.910        6.528      132.320       79.391       42.610        0.328        0.013       78.792        5.407        0.005      336.117        7.202      863.216
10/23/2013  02:54:00      -75.035      -14.347       -6.703       13.079        9.090        8.121      171.051       82.632       65.957        0.310        0.016       76.394        5.524        0.005      336.124        7.215      863.209
10/23/2013  02:55:00      -82.097      -13.895      -12.338       13.725       12.148       10.479      188.367      147.582      109.814        0.377        0.022       83.265        7.959        0.009      336.039        7.072      863.213
10/23/2013  02:56:00      -81.850      -22.459       -8.573       14.901       14.610       10.081      222.027      213.441      101.636        0.391        0.027       84.876        6.918        0.007      335.944        6.914      863.209
10/23/2013  02:57:00      -99.469      -16.899      -13.430       16.144       11.864        8.077      260.615      140.760       65.236        0.541        0.023      100.894        7.734        0.006      335.885        6.816      863.205
10/23/2013  02:58:00      -89.360      -15.712      -15.725        7.660       10.012        6.844       58.682      100.250       46.846        0.434        0.010       90.731        3.808        0.002      335.843        6.747      863.197
10/23/2013  02:59:00      -85.497      -29.313      -12.639        9.447       11.451        7.034       89.238      131.115       49.483        0.430        0.013       90.383        5.507        0.004      335.861        6.777      863.192
10/23/2013  03:00:00      -92.210      -24.825      -10.306       14.406        9.442        7.589      207.538       89.148       57.595        0.479        0.018       95.493        4.863        0.003      335.733        6.565      863.195
10/23/2013  03:01:00     -102.262      -20.017      -14.392       18.744       12.346        9.953      351.330      152.436       99.062        0.583        0.030      104.202        6.728        0.004      335.681        6.477      863.193
10/23/2013  03:02:00      -98.431       -6.851      -17.602       20.761       14.031       14.459      431.009      196.880      209.049        0.544        0.042       98.669       10.884        0.012      335.652        6.428      863.181
10/23/2013  03:03:00     -127.955        2.193      -16.482       19.276       11.335       12.353      371.578      128.493      152.585        0.865        0.033      127.973       10.439        0.007      335.754        6.599      863.173
10/23/2013  03:04:00      -99.649       -9.980      -12.858       21.531       11.849       13.552      463.563      140.394      183.659        0.549        0.039      100.147       11.671        0.014      335.803        6.679      863.170
10/23/2013  03:05:00      -97.012       -8.187      -16.234       12.098        7.652        7.045      146.359       58.560       49.635        0.500        0.013       97.357        3.204        0.001      335.821        6.710      863.169
10/23/2013  03:06:00     -115.503      -13.749      -17.295       17.926       16.129       12.309      321.325      260.155      151.504        0.728        0.037      116.319        9.145        0.006      335.780        6.642      863.162
10/23/2013  03:07:00      -95.063      -25.159      -13.878       28.152       20.949       12.661      792.516      438.880      160.307        0.563        0.070       98.336       11.623        0.014      335.693        6.497      863.154
10/23/2013  03:08:00      -98.401      -25.942      -14.979       18.867       18.204       15.045      355.977      331.386      226.355        0.575        0.046      101.763        9.388        0.009      335.704        6.514      863.149
10/23/2013  03:09:00      -90.654      -28.791      -11.423       19.881       23.312       15.030      395.238      543.446      225.902        0.517        0.058       95.116        9.405        0.010      335.708        6.523      863.148
10/23/2013  03:10:00     -101.122      -24.705      -17.551       20.431       14.823       14.581      417.440      219.721      212.603        0.600        0.042      104.096       13.604        0.017      335.775        6.633      863.141
10/23/2013  03:11:00      -94.652      -20.580      -13.861       19.755       14.333       11.992      390.269      205.428      143.802        0.516        0.037       96.863       11.393        0.014      335.737        6.569      863.123
10/23/2013  03:12:00      -78.505      -34.470       -6.374       19.936       22.527       16.133      397.456      507.457      260.264        0.428        0.058       85.739       13.303        0.024      335.755        6.601      863.115
10/23/2013  03:13:00      -65.955      -26.330       -9.837       16.161       18.181       11.410      261.192      330.564      130.187        0.293        0.036       71.016        9.007        0.016      335.766        6.618      863.114
10/23/2013  03:14:00      -37.968      -15.748      -11.203       22.995       14.762       15.812      528.752      217.902      250.021        0.141        0.050       41.104       10.859        0.070      335.941        6.908      863.115
10/23/2013  03:15:00      -48.584      -28.150      -10.708       17.521       20.761       11.855      306.978      431.012      140.552        0.207        0.044       56.150       11.531        0.042      335.907        6.852      863.110
10/23/2013  03:16:00      -62.405      -19.261      -19.992       20.287       18.773       16.794      411.576      352.441      282.024        0.286        0.052       65.310       13.927        0.045      335.928        6.888      863.103
10/23/2013  03:17:00      -75.269      -33.670       -9.637       22.234       29.168       14.841      494.343      850.765      220.245        0.423        0.078       82.456        8.282        0.010      335.866        6.785      863.102
10/23/2013  03:18:00      -62.693      -17.349      -10.637       18.840       18.515       12.818      354.953      342.803      164.308        0.260        0.043       65.049       12.171        0.035      335.800        6.676      863.103
10/23/2013  03:19:00      -46.817      -27.358       -4.225       11.850       28.616       12.684      140.416      818.874      160.887        0.204        0.056       54.224        8.817        0.026      335.733        6.564      863.098
10/23/2013  03:20:00      -47.203      -34.461       -0.655       25.805       19.429       17.702      665.879      377.468      313.347        0.239        0.068       58.444       17.753        0.092      335.654        6.433      863.089
10/23/2013  03:21:00      -71.696      -31.713      -13.292       18.614       20.892       12.433      346.485      436.460      154.582        0.363        0.047       78.397        9.890        0.016      335.564        6.282      863.079
10/23/2013  03:22:00      -77.757      -17.881       -8.984       27.506       36.431       15.982      756.586     1327.204      255.417        0.439        0.117       79.786       13.271        0.028      335.740        6.576      863.072
10/23/2013  03:23:00      -73.484      -39.686      -10.054       21.525       22.274       15.552      463.331      496.142      241.861        0.414        0.060       83.516       10.272        0.015      335.681        6.476      863.059
10/23/2013  03:24:00      -62.057      -29.462       -7.904       20.064       19.280       10.468      402.554      371.714      109.586        0.283        0.044       68.696        3.628        0.003      335.654        6.432      863.052
10/23/2013  03:25:00      -81.418      -22.952      -11.911       19.277       21.003       18.719      371.592      441.115      350.390        0.423        0.058       84.591       15.533        0.034      335.660        6.442      863.053
10/23/2013  03:26:00      -79.490      -28.578      -15.873       16.595       25.851       14.299      275.401      668.296      204.462        0.427        0.057       84.472       14.025        0.028      335.579        6.307      863.059
10/23/2013  03:27:00      -84.745      -38.114      -13.802       18.278       23.770       18.682      334.073      565.026      349.026        0.504        0.062       92.922       14.565        0.025      335.570        6.291      863.051
10/23/2013  03:28:00      -85.659      -35.104      -15.293       18.579       35.238       16.763      345.166     1241.740      280.993        0.534        0.093       92.573        9.728        0.011      335.602        6.346      863.046
10/23/2013  03:29:00      -96.188      -41.820      -18.233       19.748       19.331       13.352      389.986      373.671      178.279        0.614        0.047      104.886       12.001        0.013      335.548        6.257      863.039
10/23/2013  03:30:00      -91.625      -38.417      -20.002       15.675       15.794       11.598      245.694      249.463      134.506        0.545        0.031       99.353        7.144        0.005      335.491        6.159      863.044
10/23/2013  03:31:00      -80.572      -29.748      -16.827       14.082       16.072       11.484      198.301      258.318      131.893        0.412        0.029       85.888        9.913        0.013      335.512        6.195      863.036
10/23/2013  03:32:00      -76.196      -39.787      -18.737       18.632       19.021       12.950      347.151      361.792      167.701        0.431        0.044       85.959       10.955        0.016      335.593        6.329      863.022
10/23/2013  03:33:00      -70.613      -50.774      -16.831       23.685       20.943       16.951      560.966      438.604      287.334        0.457        0.064       86.973       13.888        0.025      335.604        6.349      863.025
10/23/2013  03:34:00     -118.304      -36.163      -19.360       15.074       14.728       12.466      227.238      216.919      155.409        0.814        0.030      123.708       11.035        0.008      335.668        6.455      863.026
10/23/2013  03:35:00     -117.561      -40.592      -14.912       17.582       18.573       11.621      309.129      344.938      135.056        0.824        0.039      124.372        9.066        0.005      335.606        6.353      863.020
10/23/2013  03:36:00     -119.936      -32.642      -19.289       12.047       12.104        9.459      145.128      146.504       89.473        0.810        0.019      124.298        7.333        0.003      335.624        6.382      863.021
10/23/2013  03:37:00     -102.693      -33.655      -11.727        9.762       11.045        6.268       95.290      121.988       39.294        0.604        0.013      108.067        4.713        0.002      335.646        6.418      863.025
10/23/2013  03:38:00     -103.680      -34.335      -15.535       13.327        9.814       11.043      177.612       96.314      121.954        0.628        0.020      109.218        6.532        0.004      335.660        6.442      863.031
10/23/2013  03:39:00     -105.799      -25.452      -13.665       13.674       13.551        9.896      186.979      183.625       97.932        0.625        0.023      108.818        5.746        0.003      335.699        6.507      863.024
10/23/2013  03:40:00      -93.670      -24.645       -8.554       13.408       12.211       10.458      179.767      149.099      109.364        0.495        0.022       96.857        7.471        0.006      335.722        6.546      863.024
10/23/2013  03:41:00      -91.828      -20.877       -7.121       17.146       13.705       10.412      293.980      187.838      108.405        0.475        0.030       94.171        5.627        0.004      335.738        6.572      863.037
10/23/2013  03:42:00      -93.969      -19.406      -12.186       19.768       14.457       11.793      390.767      209.008      139.074        0.505        0.037       95.952        8.812        0.008      335.683        6.481      863.036
10/23/2013  03:43:00      -94.290      -16.357      -11.787       11.817       10.242       10.116      139.644      104.892      102.327        0.482        0.017       95.698        7.656        0.006      335.742        6.578      863.033
10/23/2013  03:44:00      -90.107      -20.454      -13.406       14.197       12.760        8.287      201.557      162.830       68.673        0.458        0.022       92.399        4.515        0.002      335.740        6.577      863.039
10/23/2013  03:45:00     -104.227      -18.962      -12.917       13.607       12.480       11.073      185.147      155.746      122.613        0.593        0.023      105.938        6.319        0.004      335.756        6.604      863.036
10/23/2013  03:46:00     -110.394      -16.433      -12.837       19.492       10.977        7.789      379.933      120.497       60.661        0.659        0.028      111.611        7.702        0.005      335.688        6.491      863.035
10/23/2013  03:47:00     -105.150      -25.914      -12.706        9.870       10.733        8.396       97.416      115.194       70.490        0.609        0.014      108.296        3.647        0.001      335.730        6.559      863.032
10/23/2013  03:48:00     -105.956      -14.494      -12.372       11.385       12.407        8.000      129.610      153.922       63.993        0.597        0.017      106.943        3.755        0.001      335.713        6.531      863.031
10/23/2013  03:49:00      -93.929      -28.549       -7.856       14.110       14.077       12.904      199.085      198.151      166.505        0.513        0.028       98.172        8.737        0.008      335.669        6.458      863.022
10/23/2013  03:50:00     -103.381      -37.289      -12.567       12.854       10.197        9.803      165.225      103.973       96.105        0.630        0.018      109.900        4.705        0.002      335.615        6.368      863.019
10/23/2013  03:51:00     -108.703      -46.110      -18.539       11.025        9.255        9.061      121.557       85.655       82.095        0.729        0.014      118.079        5.134        0.002      335.629        6.392      863.020
10/23/2013  03:52:00     -104.244      -32.701      -16.549       10.841       13.680       10.528      117.530      187.155      110.844        0.631        0.021      109.252        6.266        0.003      335.623        6.380      863.029
10/23/2013  03:53:00     -114.267      -49.011      -10.530       11.599       17.244       10.793      134.541      297.370      116.499        0.806        0.027      124.334        6.616        0.003      335.674        6.465      863.025
10/23/2013  03:54:00     -108.609      -44.368       -4.637       19.949       13.804       12.469      397.964      190.543      155.475        0.726        0.037      117.322       13.053        0.012      335.707        6.519      863.018
10/23/2013  03:55:00     -112.806      -54.768       -4.490       14.785       20.461       10.949      218.587      418.657      119.871        0.825        0.038      125.398        8.349        0.004      335.751        6.592      863.022
10/23/2013  03:56:00     -122.148      -54.810       -5.905       16.573       15.578       12.894      274.680      242.685      166.253        0.932        0.034      133.881        8.226        0.004      335.791        6.660      863.030
10/23/2013  03:57:00     -114.069      -56.728       -1.858       19.334       21.802       14.108      373.808      475.310      199.024        0.864        0.052      127.396       13.189        0.011      335.787        6.654      863.031
10/23/2013  03:58:00      -87.510      -45.203        0.891       33.933       17.398       18.209     1151.464      302.676      331.568        0.574        0.089       98.495       17.411        0.031      335.659        6.440      863.034
10/23/2013  03:59:00      -87.771      -48.929       -1.925       26.213       21.036       14.068      687.138      442.516      197.902        0.571        0.066      100.488        9.073        0.008      335.670        6.458      863.037
10/23/2013  04:00:00      -78.454      -40.971       -2.252       23.550       15.208       11.551      554.621      231.292      133.435        0.438        0.046       88.508       10.698        0.015      335.661        6.444      863.052
10/23/2013  04:01:00      -96.505      -37.781      -10.797       11.138       12.250        9.651      124.051      150.066       93.143        0.561        0.018      103.637        4.672        0.002      335.622        6.380      863.053
10/23/2013  04:02:00     -104.057      -28.357      -10.751       12.085       12.574        8.001      146.043      158.103       64.022        0.606        0.018      107.852        3.595        0.001      335.488        6.155      863.061
10/23/2013  04:03:00     -108.420      -26.287      -13.533       12.807       13.042       10.409      164.015      170.092      108.341        0.654        0.022      111.562        6.433        0.003      335.468        6.123      863.063
10/23/2013  04:04:00     -105.970      -28.512      -10.634       19.630       13.727       12.834      385.350      188.427      164.701        0.645        0.037      109.739        9.479        0.007      335.490        6.158      863.070
10/23/2013  04:05:00      -93.572      -25.116      -10.528       37.353       18.027       14.351     1395.256      324.969      205.964        0.571        0.096       96.884       18.933        0.038      335.468        6.121      863.082
10/23/2013  04:06:00     -110.526      -26.112      -12.528       17.822       16.904       15.100      317.628      285.742      227.997        0.694        0.042      113.568        9.976        0.008      335.498        6.173      863.090
10/23/2013  04:07:00      -88.405      -21.341       -5.648       21.970       16.689       15.138      482.667      278.530      229.160        0.465        0.050       90.944       13.129        0.021      335.408        6.020      863.089
10/23/2013  04:08:00     -108.519      -19.205       -9.558       18.637       14.515       12.347      347.324      210.690      152.455        0.647        0.036      110.206       10.814        0.010      335.486        6.153      863.100
10/23/2013  04:09:00     -108.957      -35.308       -9.754       19.847       12.951       11.803      393.884      167.720      139.303        0.696        0.035      114.535       13.210        0.013      335.488        6.155      863.104
10/23/2013  04:10:00     -114.098      -40.716       -9.744        9.192        8.490        6.712       84.494       72.088       45.052        0.749        0.010      121.145        5.044        0.002      335.510        6.193      863.095
10/23/2013  04:11:00     -116.077      -28.187      -11.602       10.084       12.815        8.487      101.688      164.235       72.022        0.737        0.017      119.450        3.727        0.001      335.523        6.214      863.090
10/23/2013  04:12:00     -112.243      -31.612      -16.802       11.441       11.925       10.415      130.898      142.201      108.480        0.713        0.019      116.610        4.952        0.002      335.524        6.215      863.080
10/23/2013  04:13:00     -102.577      -19.865       -6.074       24.706       18.585       15.466      610.389      345.393      239.199        0.607        0.060      104.483       12.515        0.014      335.482        6.144      863.083
10/23/2013  04:14:00      -96.602      -30.474       -5.339       23.763       14.918       13.135      564.669      222.541      172.515        0.562        0.048      101.294        9.481        0.009      335.430        6.057      863.079
10/23/2013  04:15:00     -129.616      -36.233      -13.223        9.391       12.783        9.727       88.194      163.404       94.618        0.932        0.017      134.585        5.602        0.002      335.503        6.180      863.079
10/23/2013  04:16:00     -116.977      -23.208      -13.511       18.052       16.062       10.384      325.873      257.992      107.830        0.755        0.035      119.257        7.977        0.004      335.483        6.148      863.077
10/23/2013  04:17:00     -120.955       -9.474      -16.120       14.280       13.048       12.821      203.925      170.251      164.367        0.776        0.027      121.325        9.444        0.006      335.473        6.130      863.081
10/23/2013  04:18:00      -97.208      -28.045       -7.278       20.127       22.193       15.516      405.109      492.544      240.758        0.571        0.057      101.173       12.937        0.016      335.417        6.036      863.081
10/23/2013  04:19:00     -126.289      -10.972      -18.062       17.175       14.848       12.333      294.992      220.450      152.111        0.853        0.033      126.765        6.744        0.003      335.564        6.282      863.085
10/23/2013  04:20:00     -120.598      -17.776      -15.303       15.447       13.786        9.631      238.597      190.045       92.752        0.781        0.026      121.901        7.833        0.004      335.373        5.963      863.074
10/23/2013  04:21:00     -103.460      -29.209      -11.228       18.652       20.889       10.058      347.889      436.356      101.165        0.628        0.044      107.504        9.449        0.008      335.276        5.801      863.065
10/23/2013  04:22:00      -98.726      -28.374       -9.830       17.757       16.820       10.864      315.305      282.912      118.028        0.568        0.036      102.723       10.477        0.010      335.301        5.843      863.070
10/23/2013  04:23:00     -101.991      -18.845      -16.130       13.135       18.106       11.064      172.530      327.834      122.404        0.582        0.031      103.717        8.150        0.006      335.317        5.870      863.073
10/23/2013  04:24:00     -104.689       -5.694      -16.494       20.012       16.400       11.569      400.469      268.947      133.831        0.603        0.040      104.843       10.731        0.010      335.361        5.944      863.070
10/23/2013  04:25:00      -91.090      -22.406      -16.447       23.148       19.914       12.222      535.807      396.583      149.386        0.508        0.054       93.805        9.420        0.010      335.262        5.778      863.066
10/23/2013  04:26:00     -122.672      -10.304      -20.253       11.962       17.255        9.330      143.088      297.735       87.050        0.805        0.026      123.104        6.690        0.003      335.388        5.988      863.078
10/23/2013  04:27:00      -95.166      -31.138       -8.364       23.150       24.250       20.049      535.928      588.040      401.976        0.581        0.076      100.130       14.905        0.022      335.224        5.716      863.078
10/23/2013  04:28:00     -101.536      -16.079      -10.327       27.174       20.260       17.696      738.415      410.480      313.162        0.607        0.073      102.802       15.788        0.024      335.238        5.739      863.089
10/23/2013  04:29:00      -77.023      -40.481      -10.130       36.198       28.406       16.019     1310.310      806.898      256.602        0.502        0.119       87.013       15.293        0.031      335.258        5.772      863.091
10/23/2013  04:30:00      -97.279      -27.099       -3.816       31.560       22.497       21.212      996.024      506.118      449.942        0.608        0.098      100.982       17.449        0.030      335.219        5.706      863.100
10/23/2013  04:31:00      -67.596      -39.752       -0.972       35.981       29.043       20.837     1294.603      843.515      434.175        0.436        0.129       78.419       19.407        0.061      335.176        5.637      863.106
10/23/2013  04:32:00      -96.847      -55.205        0.547       29.342       31.802       20.398      860.957     1011.386      416.099        0.736        0.114      111.476       16.474        0.022      335.200        5.675      863.104
10/23/2013  04:33:00     -105.201      -41.692       -6.334       31.054       29.758       17.407      964.322      885.522      303.002        0.750        0.108      113.161       11.783        0.011      335.293        5.830      863.104
10/23/2013  04:34:00     -118.844      -42.836       -7.927       40.566       34.381       22.508     1645.615     1182.055      506.605        0.968        0.167      126.328       20.191        0.026      335.254        5.764      863.109
10/23/2013  04:35:00      -94.964      -27.810      -10.537       25.394       36.387       16.645      644.855     1323.977      277.070        0.607        0.112       98.952       11.448        0.013      335.266        5.784      863.105
10/23/2013  04:36:00      -90.740      -32.855       -8.220       41.766       29.010       17.539     1744.414      841.581      307.613        0.614        0.145       96.505       16.567        0.029      335.354        5.932      863.100
10/23/2013  04:37:00      -73.101      -17.807       -1.119       45.789       45.332       25.780     2096.597     2055.013      664.600        0.524        0.241       75.238       26.163        0.121      335.344        5.915      863.097
10/23/2013  04:38:00      -82.558      -19.989       -1.521       45.555       34.879       19.978     2075.236     1216.531      399.119        0.545        0.185       84.944       19.725        0.054      335.258        5.771      863.098
10/23/2013  04:39:00     -110.873      -26.478       -2.285       41.876       37.317       24.103     1753.604     1392.574      580.939        0.836        0.186      113.991       22.338        0.038      335.301        5.843      863.092
10/23/2013  04:40:00     -118.074      -17.457       -7.412       41.724       37.732       24.034     1740.859     1423.712      577.638        0.902        0.187      119.358       24.914        0.044      335.281        5.809      863.087
10/23/2013  04:41:00      -96.412      -15.511       -7.308       44.987       29.752       23.718     2023.815      885.189      562.544        0.653        0.174       97.652       20.877        0.046      335.273        5.795      863.097
10/23/2013  04:42:00      -99.531      -11.581       -3.716       51.061       43.061       26.668     2607.274     1854.226      711.198        0.761        0.259      100.203       24.641        0.060      335.288        5.823      863.104
10/23/2013  04:43:00      -64.655      -13.355        2.107       48.010       43.273       21.893     2304.955     1872.539      479.300        0.451        0.233       66.020       21.702        0.108      335.355        5.932      863.106
10/23/2013  04:44:00      -78.759      -16.776       -4.053       37.614       34.569       19.408     1414.843     1195.014      376.677        0.474        0.149       80.526       14.154        0.031      335.419        6.041      863.115
10/23/2013  04:45:00     -109.568      -31.816       -8.556       35.007       39.766       19.447     1225.493     1581.306      378.183        0.814        0.159      114.094       16.796        0.022      335.455        6.100      863.127
10/23/2013  04:46:00     -122.270      -22.450       -9.266       29.622       36.859       16.654      877.462     1358.565      277.343        0.903        0.126      124.314        5.852        0.002      335.445        6.083      863.128
10/23/2013  04:47:00     -100.659      -29.319        1.230       38.796       30.239       21.657     1505.109      914.380      469.045        0.694        0.144      104.842       17.131        0.027      335.397        6.003      863.123
10/23/2013  04:48:00      -85.672      -48.126       -0.637       38.530       21.032       19.482     1484.570      442.351      379.562        0.598        0.115       98.264       16.603        0.029      335.331        5.894      863.126
10/23/2013  04:49:00      -56.303      -41.322        6.032       45.190       32.189       19.462     2042.180     1036.103      378.762        0.418        0.173       69.839       21.245        0.093      335.289        5.823      863.131
10/23/2013  04:50:00      -83.712      -48.900        2.261       42.622       29.785       23.601     1816.618      887.171      556.991        0.633        0.163       96.948       24.984        0.066      335.289        5.823      863.131
10/23/2013  04:51:00      -99.556      -46.403       -3.831       31.656       30.016       16.382     1002.116      900.952      268.377        0.713        0.109      109.839       11.991        0.012      335.308        5.855      863.132
10/23/2013  04:52:00     -104.536      -32.648       -6.163       29.403       27.195       14.936      864.507      739.547      223.081        0.693        0.091      109.516       12.726        0.014      335.275        5.800      863.139
10/23/2013  04:53:00     -106.102      -39.408       -7.414       20.819       21.271       14.471      433.434      452.439      209.417        0.698        0.055      113.184        9.972        0.008      335.230        5.727      863.151
10/23/2013  04:54:00     -125.297      -56.587       -8.988       25.537       20.953       18.955      652.128      439.044      359.289        1.022        0.073      137.482       16.815        0.015      335.118        5.541      863.149
10/23/2013  04:55:00     -109.816      -24.813       -8.329       31.711       22.468       19.777     1005.564      504.831      391.117        0.732        0.095      112.584       19.989        0.032      335.139        5.574      863.150
10/23/2013  04:56:00     -104.576      -26.961       -0.988       25.612       19.755       14.614      655.982      390.276      213.557        0.646        0.063      107.996       12.840        0.014      335.141        5.578      863.149
10/23/2013  04:57:00      -96.565      -18.396       -2.647       23.760       18.984       14.676      564.531      360.401      215.373        0.541        0.057       98.301       13.891        0.020      335.123        5.548      863.172
10/23/2013  04:58:00      -93.967      -37.921        3.050       29.666       24.076       14.927      880.054      579.641      222.829        0.598        0.084      101.330       14.210        0.020      335.097        5.506      863.177
10/23/2013  04:59:00     -101.097      -47.689       -1.536       32.168       17.553       18.350     1034.767      308.111      336.727        0.709        0.084      111.780       18.771        0.028      335.141        5.578      863.181
10/23/2013  05:00:00      -87.452      -50.880        2.638       31.399       21.051       18.685      985.871      443.154      349.119        0.601        0.089      101.176       15.995        0.025      335.145        5.586      863.184
10/23/2013  05:01:00      -92.449      -49.349        4.181       36.393       19.970       18.852     1324.417      398.793      355.393        0.654        0.104      104.796       19.813        0.036      335.107        5.522      863.196
10/23/2013  05:02:00      -70.928      -43.800        5.708       38.647       24.890       25.012     1493.598      619.521      625.590        0.486        0.137       83.362       23.955        0.083      335.031        5.395      863.207
10/23/2013  05:03:00      -65.568      -51.419        7.630       43.283       34.564       20.352     1873.439     1194.694      414.198        0.524        0.174       83.325       20.027        0.058      335.204        5.682      863.211
10/23/2013  05:04:00      -80.745      -50.856        3.212       38.173       29.914       20.648     1457.207      894.820      426.331        0.595        0.139       95.426       19.617        0.042      335.297        5.838      863.214
10/23/2013  05:05:00      -75.827      -40.039        1.260       38.102       22.449       20.655     1451.756      503.971      426.618        0.487        0.119       85.749       24.333        0.081      335.358        5.938      863.218
10/23/2013  05:06:00      -58.337      -38.759        6.934       36.570       22.821       17.643     1337.383      520.801      311.268        0.356        0.108       70.039       19.995        0.081      335.359        5.940      863.230
10/23/2013  05:07:00      -69.845      -40.463        3.177       32.066       25.203       23.087     1028.209      635.193      533.005        0.436        0.110       80.719       21.198        0.069      335.203        5.680      863.225
10/23/2013  05:08:00      -95.075      -50.872       -0.850       43.027       19.494       16.981     1851.310      380.020      288.360        0.707        0.126      107.829       22.215        0.042      335.247        5.753      863.223
10/23/2013  05:09:00     -101.524      -40.346       -6.702       20.706       18.843       11.755      428.736      355.041      138.184        0.645        0.046      109.247        7.515        0.005      335.243        5.746      863.220
10/23/2013  05:10:00      -92.545      -49.713       -1.519       20.417       18.157       12.630      416.837      329.661      159.510        0.597        0.045      105.052        7.316        0.005      335.264        5.782      863.225
10/23/2013  05:11:00     -105.428      -52.159       -5.314       15.253       18.687       12.325      232.655      349.205      151.895        0.730        0.037      117.625        8.471        0.005      335.266        5.785      863.225
10/23/2013  05:12:00     -109.244      -58.547       -7.039       14.450       17.200       11.219      208.812      295.826      125.863        0.802        0.032      123.943        7.464        0.004      335.286        5.817      863.227
10/23/2013  05:13:00     -125.681      -51.119       -9.662       12.022       19.394       11.415      144.518      376.129      130.311        0.958        0.033      135.679        6.102        0.002      335.282        5.809      863.221
10/23/2013  05:14:00     -115.523      -57.781       -3.982       23.287       21.195       14.117      542.285      449.211      199.282        0.895        0.060      129.167       12.511        0.009      335.185        5.650      863.221
10/23/2013  05:15:00      -89.045      -50.334        4.414       38.681       27.123       18.947     1496.204      735.676      358.972        0.654        0.130      102.287       14.475        0.020      335.107        5.523      863.233
10/23/2013  05:16:00      -74.139      -42.950        3.540       42.564       32.528       22.222     1811.735     1058.094      493.797        0.536        0.168       85.682       24.859        0.084      335.135        5.568      863.235
10/23/2013  05:17:00      -92.573      -40.922        4.016       31.909       24.238       18.328     1018.169      587.492      335.925        0.610        0.097      101.215       13.912        0.019      335.033        5.399      863.232
10/23/2013  05:18:00      -83.393      -37.569        6.337       42.423       27.710       20.855     1799.714      767.866      434.946        0.570        0.150       91.464       22.320        0.060      335.103        5.515      863.234
10/23/2013  05:19:00      -95.236      -48.698        2.749       42.204       34.365       21.154     1781.166     1180.982      447.511        0.743        0.170      106.964       21.658        0.041      335.213        5.697      863.232
10/23/2013  05:20:00     -101.203      -30.345       -1.393       30.086       30.235       22.438      905.141      914.143      503.485        0.674        0.116      105.654       16.901        0.026      335.129        5.558      863.221
10/23/2013  05:21:00      -88.618      -49.305       -0.712       48.985       27.275       20.158     2399.515      743.919      406.336        0.692        0.177      101.411       24.561        0.059      335.182        5.647      863.213
10/23/2013  05:22:00      -41.142      -34.358        9.879       49.322       31.998       24.786     2432.662     1023.873      614.325        0.352        0.204       53.601       26.659        0.247      335.232        5.727      863.206
10/23/2013  05:23:00      -70.536      -46.823        8.521       53.292       37.138       24.916     2840.055     1379.227      620.800        0.604        0.242       84.662       26.737        0.100      335.186        5.652      863.193
10/23/2013  05:24:00      -57.092      -39.877        5.679       45.112       36.035       19.400     2035.097     1298.552      376.350        0.430        0.185       69.639       21.483        0.095      335.118        5.541      863.192
10/23/2013  05:25:00      -53.308      -32.917        5.696       43.105       30.783       24.528     1858.062      947.597      601.623        0.368        0.170       62.652       23.382        0.139      335.060        5.444      863.190
10/23/2013  05:26:00      -34.425      -29.557        6.541       36.161       28.440       17.829     1307.639      808.844      317.884        0.227        0.122       45.373       15.518        0.117      335.136        5.569      863.185
10/23/2013  05:27:00      -98.510      -40.722        4.863       32.588       19.526       15.234     1062.004      381.247      232.087        0.653        0.084      106.595        8.424        0.006      335.050        5.427      863.182
10/23/2013  05:28:00     -101.909      -57.316       -0.280       33.568       24.717       17.699     1126.806      610.948      313.244        0.786        0.103      116.921       15.281        0.017      335.062        5.448      863.186
10/23/2013  05:29:00      -86.002      -45.537        0.865       34.379       26.554       15.189     1181.950      705.127      230.702        0.579        0.106       97.314       14.458        0.022      335.017        5.372      863.199
10/23/2013  05:30:00      -91.590      -58.222        0.223       24.987       29.036       15.685      624.353      843.084      246.018        0.675        0.086      108.529       13.607        0.016      335.077        5.472      863.198
10/23/2013  05:31:00      -60.510      -36.942        6.775       35.424       30.007       20.021     1254.871      900.440      400.825        0.381        0.128       70.895       17.225        0.059      335.100        5.509      863.193
10/23/2013  05:32:00      -84.389      -62.333       -3.331       25.431       24.270       15.724      646.742      589.012      247.241        0.625        0.074      104.914       12.173        0.013      335.157        5.603      863.191
10/23/2013  05:33:00      -58.546      -44.582        8.775       34.111       20.960       20.439     1163.532      439.302      417.772        0.376        0.101       73.588       20.893        0.081      335.131        5.559      863.194
10/23/2013  05:34:00      -55.695      -32.597        4.775       32.945       19.567       18.176     1085.387      382.867      330.361        0.299        0.090       64.533       17.539        0.074      335.121        5.545      863.198
10/23/2013  05:35:00      -58.168      -37.970        3.955       30.022       16.267       17.020      901.332      264.602      289.696        0.315        0.073       69.464       14.238        0.042      335.106        5.521      863.211
10/23/2013  05:36:00      -66.605      -36.218        2.273       30.015       19.452       17.812      900.928      378.395      317.278        0.367        0.080       75.816       15.501        0.042      335.084        5.485      863.217
10/23/2013  05:37:00      -71.994      -33.608        9.041       30.128       14.361       19.049      907.672      206.227      362.862        0.394        0.074       79.452       17.236        0.047      335.028        5.390      863.219
10/23/2013  05:38:00      -68.821      -38.222       -8.866       19.584       17.363       12.171      383.545      301.486      148.135        0.355        0.042       78.722        8.298        0.011      335.128        5.558      863.217
10/23/2013  05:39:00      -61.293      -45.987       -0.279       27.757       18.915       14.487      770.470      357.791      209.887        0.360        0.067       76.627       11.541        0.023      335.061        5.447      863.219
10/23/2013  05:40:00      -59.700      -38.609        0.168       26.860       20.545       14.819      721.436      422.093      219.598        0.321        0.068       71.097       12.411        0.030      334.988        5.323      863.222
10/23/2013  05:41:00      -60.678      -43.905       -1.778       27.089       18.796       13.324      733.797      353.290      177.521        0.344        0.063       74.896        6.607        0.008      335.018        5.374      863.226
10/23/2013  05:42:00      -61.796      -55.375       -6.086       33.801       23.751       14.168     1142.482      564.108      200.718        0.441        0.095       82.976       12.307        0.022      335.126        5.553      863.228
10/23/2013  05:43:00      -78.686      -53.914        1.235       39.728       20.388       19.972     1578.282      415.663      398.898        0.575        0.120       95.385       17.753        0.035      335.082        5.480      863.222
10/23/2013  05:44:00      -86.874      -63.160       -3.894       35.000       33.445       21.628     1224.987     1118.570      467.761        0.718        0.141      107.407       21.160        0.039      335.119        5.542      863.225
10/23/2013  05:45:00      -82.119      -69.960        1.496       40.109       27.161       14.780     1608.716      737.746      218.438        0.710        0.128      107.879       11.944        0.012      335.142        5.581      863.236
10/23/2013  05:46:00      -95.570      -56.885       -0.519       30.701       21.157       16.681      942.547      447.621      278.261        0.702        0.083      111.218       15.307        0.019      335.074        5.467      863.252
10/23/2013  05:47:00     -108.788      -43.850       -1.499       25.979       19.606       15.670      674.898      384.384      245.552        0.753        0.065      117.293       12.842        0.012      335.031        5.396      863.253
10/23/2013  05:48:00     -105.715      -58.514        1.504       21.090       22.013       16.577      444.770      484.554      274.807        0.790        0.060      120.828       12.162        0.010      335.065        5.451      863.267
10/23/2013  05:49:00      -77.633      -43.803        1.891       34.891       29.418       18.213     1217.384      865.445      331.725        0.518        0.121       89.138       19.344        0.047      335.092        5.497      863.280
10/23/2013  05:50:00      -83.679      -39.039        2.004       35.579       21.923       19.248     1265.901      480.629      370.500        0.532        0.106       92.337       18.951        0.042      335.067        5.456      863.288
10/23/2013  05:51:00      -70.176      -30.273        7.068       30.502       21.146       16.599      930.372      447.170      275.521        0.377        0.083       76.427       15.092        0.039      335.068        5.458      863.295
10/23/2013  05:52:00      -72.070      -29.606       -2.997       27.481       21.462       12.996      755.219      460.629      168.905        0.373        0.069       77.914       11.869        0.023      335.075        5.471      863.301
10/23/2013  05:53:00      -52.909      -28.346        7.522       43.386       25.940       17.899     1882.337      672.899      320.363        0.327        0.144       60.023       18.636        0.096      335.070        5.460      863.309
10/23/2013  05:54:00      -65.070      -39.339        2.432       28.546       17.658       14.234      814.849      311.795      202.610        0.356        0.066       76.037       14.490        0.036      335.003        5.348      863.317
10/23/2013  05:55:00      -71.370      -37.692       -0.801       31.911       19.474       14.183     1018.280      379.231      201.166        0.406        0.080       80.712       10.913        0.018      334.943        5.250      863.317
10/23/2013  05:56:00      -59.047      -35.106        3.482       30.238       19.561       14.626      914.312      382.652      213.932        0.312        0.076       68.695       12.504        0.033      334.916        5.204      863.317
10/23/2013  05:57:00      -71.789      -33.748        2.478       22.180       20.642       14.970      491.932      426.081      224.109        0.372        0.057       79.326       11.222        0.020      334.825        5.054      863.319
10/23/2013  05:58:00      -48.245      -40.748        3.847       40.392       21.638       19.151     1631.531      468.213      366.743        0.323        0.123       63.150       18.197        0.083      334.858        5.107      863.322
10/23/2013  05:59:00      -95.639      -98.200       -2.661       61.841       36.157       29.104     3824.293     1307.305      847.026        1.239        0.299      137.077       27.394        0.040      335.007        5.357      863.324
10/23/2013  06:00:00      -84.512      -82.692        2.807       58.796       53.984       28.474     3456.944     2914.289      810.752        1.058        0.359      118.238       33.643        0.081      335.048        5.424      863.334
10/23/2013  06:01:00     -100.479      -65.814       -5.761       51.008       33.260       20.104     2601.793     1106.249      404.183        0.929        0.206      120.114       18.743        0.024      335.006        5.355      863.344
10/23/2013  06:02:00      -85.156      -79.677       -4.038       57.792       38.393       24.092     3339.881     1474.030      580.401        0.950        0.270      116.619       25.883        0.049      335.011        5.362      863.350
10/23/2013  06:03:00      -84.930      -61.133       -4.029       40.868       33.844       18.283     1670.191     1145.400      334.281        0.706        0.157      104.643       22.481        0.046      334.976        5.305      863.354
10/23/2013  06:04:00      -81.042      -56.069       -3.623       45.257       24.038       16.356     2048.240      577.811      267.530        0.631        0.145       98.548       15.341        0.024      335.050        5.429      863.362
10/23/2013  06:05:00      -92.619      -61.735       -0.950       40.812       33.178       24.531     1665.620     1100.797      601.777        0.788        0.168      111.308       19.093        0.029      335.052        5.431      863.373
10/23/2013  06:06:00      -76.421      -64.918        1.093       26.907       24.643       20.101      723.978      607.258      404.032        0.590        0.087      100.272       14.926        0.022      335.088        5.490      863.378
10/23/2013  06:07:00      -53.277      -64.088       -1.216       28.161       26.673       21.492      793.040      711.452      461.887        0.446        0.098       83.341       18.106        0.047      335.099        5.508      863.386
10/23/2013  06:08:00      -41.701      -46.791       -1.102       31.976       18.454       18.792     1022.469      340.561      353.124        0.282        0.086       62.676       19.611        0.098      335.144        5.582      863.390
10/23/2013  06:09:00      -47.509      -31.210       10.658       37.928       22.172       20.603     1438.535      491.585      424.484        0.285        0.118       56.843       20.275        0.127      335.074        5.466      863.394
10/23/2013  06:10:00      -65.372      -43.731        3.506       35.353       34.748       21.717     1249.832     1207.449      471.607        0.456        0.146       78.651       19.643        0.062      335.089        5.493      863.397
10/23/2013  06:11:00      -69.119      -77.965       -0.479       34.588       29.608       18.295     1196.338      876.627      334.707        0.663        0.120      104.191       17.189        0.027      335.086        5.488      863.408
10/23/2013  06:12:00      -41.800      -40.031        4.230       37.840       22.497       20.259     1431.849      506.096      410.421        0.286        0.117       57.877       23.166        0.160      335.072        5.463      863.411
10/23/2013  06:13:00      -41.303      -42.631       -2.953       39.387       32.454       19.358     1551.351     1053.284      374.725        0.326        0.149       59.358       20.987        0.125      335.019        5.375      863.418
10/23/2013  06:14:00      -69.992      -83.272        1.466       26.186       23.175       16.964      685.719      537.077      287.761        0.667        0.076      108.780       14.507        0.018      335.097        5.505      863.429
10/23/2013  06:15:00      -47.907      -45.696        1.496       27.103       30.048       18.057      734.561      902.899      326.064        0.317        0.098       66.206       13.090        0.039      335.042        5.413      863.432
10/23/2013  06:16:00      -78.872      -49.812       -3.678       29.082       16.902       12.543      845.765      285.691      157.325        0.500        0.064       93.284       10.500        0.013      335.010        5.361      863.440
10/23/2013  06:17:00      -48.449      -26.906       -0.468       29.026       14.702       13.536      842.491      216.137      183.218        0.216        0.062       55.419       12.033        0.047      334.959        5.277      863.442
10/23/2013  06:18:00      -64.342      -32.582       -1.403       20.868       19.086       12.510      435.471      364.266      156.494        0.308        0.048       72.122        9.030        0.016      335.039        5.410      863.434
10/23/2013  06:19:00      -69.704      -49.973       -2.421       28.767       22.480       15.592      827.528      505.365      243.111        0.447        0.079       85.767       14.097        0.027      335.021        5.378      863.427
10/23/2013  06:20:00      -70.065      -39.209       -4.616       24.132       20.483       11.957      582.377      419.545      142.961        0.381        0.057       80.289        7.382        0.008      334.993        5.333      863.426
10/23/2013  06:21:00      -91.309      -47.093       -1.439       21.821       18.379       13.485      476.173      337.784      181.835        0.578        0.050      102.738       11.172        0.012      334.971        5.295      863.424
10/23/2013  06:22:00      -99.049      -48.684       -3.633       23.504       22.663       12.259      552.430      513.630      150.294        0.671        0.061      110.367        6.824        0.004      334.923        5.216      863.419
10/23/2013  06:23:00      -55.740      -41.962        9.965       37.779       24.327       18.070     1427.277      591.812      326.527        0.366        0.117       69.769       20.005        0.082      334.840        5.079      863.414
10/23/2013  06:24:00      -48.420      -26.109        6.741       29.919       16.698       16.574      895.148      278.828      274.692        0.226        0.072       55.010       16.942        0.095      334.830        5.060      863.413
10/23/2013  06:25:00      -74.687      -43.347       -3.344       16.265       14.618       12.555      264.554      213.682      157.619        0.405        0.032       86.355        7.515        0.008      334.878        5.143      863.404
10/23/2013  06:26:00      -82.027      -23.192       -4.841       10.173       14.191        8.018      103.498      201.388       64.284        0.383        0.018       85.243        4.776        0.003      334.805        5.019      863.415
10/23/2013  06:27:00      -55.867      -21.978       -0.532       27.292       21.766       10.069      744.847      473.764      101.382        0.246        0.066       60.035       12.297        0.042      334.798        5.009      863.408
10/23/2013  06:28:00      -53.425      -18.252        1.930       26.946       15.724        8.548      726.100      247.258       73.074        0.212        0.052       56.457        9.312        0.027      334.748        4.926      863.406
10/23/2013  06:29:00      -50.146      -25.208        6.565       30.008       20.504       16.662      900.463      420.404      277.617        0.240        0.080       56.125       17.913        0.102      334.704        4.853      863.410
10/23/2013  06:30:00      -42.596      -24.981        1.847       24.139       16.877       15.523      582.672      284.837      240.961        0.177        0.055       49.381       14.574        0.087      334.681        4.816      863.405
10/23/2013  06:31:00      -53.500      -27.799        4.468       27.537       22.164       17.198      758.306      491.221      295.769        0.260        0.077       60.291       15.617        0.067      334.645        4.754      863.406
10/23/2013  06:32:00      -70.931      -36.399       -0.599       22.578       14.763       13.046      509.773      217.938      170.211        0.363        0.045       79.725        8.135        0.010      334.713        4.867      863.401
10/23/2013  06:33:00      -98.106      -24.804       -7.377       18.619       18.093        9.119      346.672      327.359       83.158        0.553        0.038      101.193        4.591        0.002      334.625        4.720      863.393
10/23/2013  06:34:00      -93.611      -31.578      -11.063       19.901       16.997       10.483      396.038      288.885      109.892        0.534        0.040       98.793        6.780        0.005      334.634        4.737      863.386
10/23/2013  06:35:00      -77.379      -26.151       -0.252       33.405       29.266       14.815     1115.924      856.480      219.474        0.443        0.110       81.678       16.382        0.040      334.562        4.616      863.376
10/23/2013  06:36:00      -70.388      -20.147        6.368       30.187       18.970       14.755      911.233      359.872      217.696        0.344        0.074       73.214       15.451        0.045      334.515        4.538      863.366
10/23/2013  06:37:00      -95.302      -35.212       -5.323       26.186       22.148       14.602      685.697      490.552      213.212        0.587        0.069      101.599       14.181        0.019      334.628        4.727      863.357
10/23/2013  06:38:00      -78.998      -40.374        1.883       32.018       24.175       22.247     1025.166      584.415      494.937        0.499        0.105       88.717       19.048        0.046      334.534        4.569      863.354
10/23/2013  06:39:00      -51.978      -31.146        5.660       29.765       24.126       18.503      885.969      582.041      342.349        0.276        0.091       60.595       18.314        0.091      334.524        4.555      863.351
10/23/2013  06:40:00      -79.584      -39.825       -3.027       25.609       15.868       13.949      655.834      251.802      194.564        0.452        0.055       88.992       12.579        0.020      334.486        4.490      863.354
10/23/2013  06:41:00      -66.342      -35.221       -2.858       18.869       19.570       14.806      356.050      382.990      219.222        0.330        0.048       75.112       12.227        0.026      334.473        4.468      863.351
10/23/2013  06:42:00      -53.278      -16.513        0.791       29.598       21.687       15.110      876.030      470.335      228.318        0.234        0.079       55.779       13.423        0.058      334.410        4.365      863.357
10/23/2013  06:43:00      -90.144       -2.070       -8.606       20.882       17.748       12.754      436.058      314.997      162.658        0.456        0.046       90.168       11.492        0.016      334.361        4.284      863.361
10/23/2013  06:44:00      -86.298      -32.075       -8.037       18.082       24.603       15.328      326.959      605.324      234.934        0.485        0.058       92.066        9.504        0.011      334.419        4.380      863.364
10/23/2013  06:45:00      -74.903      -27.555        5.861       26.441       17.853       15.382      699.118      318.734      236.597        0.383        0.063       79.810       15.557        0.038      334.508        4.526      863.363
10/23/2013  06:46:00      -75.862      -30.621       -2.856       26.188       20.087       14.014      685.809      403.500      196.393        0.399        0.064       81.809       11.565        0.020      334.476        4.473      863.363
10/23/2013  06:47:00      -46.315      -26.942        6.941       27.393       20.142       15.803      750.353      405.694      249.725        0.216        0.070       53.581       14.819        0.076      334.599        4.679      863.364
10/23/2013  06:48:00      -24.760      -20.085        7.746       38.839       22.087       15.901     1508.495      487.821      252.827        0.166        0.112       31.882       16.695        0.274      334.633        4.734      863.366
10/23/2013  06:49:00      -45.145      -27.081        4.331       31.556       19.742       15.613      995.750      389.751      243.771        0.221        0.081       52.644       15.999        0.092      334.638        4.742      863.369
10/23/2013  06:50:00      -27.066      -20.748        3.213       23.415       19.904       14.355      548.284      396.175      206.064        0.116        0.058       34.104       10.539        0.096      334.608        4.693      863.371
10/23/2013  06:51:00      -54.298      -33.978        2.475       36.850       21.714       13.850     1357.952      471.519      191.827        0.306        0.101       64.053       16.056        0.063      334.579        4.645      863.381
10/23/2013  06:52:00      -64.814      -20.191        0.712       27.643       18.693       12.257      764.144      349.439      150.234        0.294        0.063       67.886        9.801        0.021      334.622        4.716      863.377
10/23/2013  06:53:00      -82.947      -32.119       -3.499       17.166       15.854       10.197      294.671      251.364      103.986        0.429        0.033       88.949        5.525        0.004      334.564        4.619      863.381
10/23/2013  06:54:00      -59.047      -41.304        6.014       26.789       17.525       20.161      717.655      307.135      406.481        0.333        0.072       72.059       16.337        0.051      334.529        4.562      863.384
10/23/2013  06:55:00      -76.601      -50.419       -2.527       17.198       18.450       12.012      295.773      340.390      144.291        0.460        0.039       91.705        9.022        0.010      334.689        4.828      863.377
10/23/2013  06:56:00      -96.896      -28.119       -2.950       18.039       14.381       10.903      325.413      206.804      118.869        0.542        0.033      100.893       10.150        0.010      334.654        4.768      863.369
10/23/2013  06:57:00      -74.181      -29.711       -2.713       22.897       26.342       13.526      524.283      693.916      182.951        0.390        0.070       79.910        9.930        0.015      334.684        4.819      863.375
10/23/2013  06:58:00      -63.440      -20.736       -0.523       22.671       20.007       12.534      513.986      400.263      157.110        0.276        0.054       66.742       12.874        0.037      334.653        4.766      863.379
10/23/2013  06:59:00      -65.785      -32.910        0.726       18.318       23.291       12.698      335.557      542.465      161.235        0.323        0.052       73.558       11.398        0.024      334.605        4.687      863.389
10/23/2013  07:00:00      -59.903      -14.764       -0.734       23.359       16.874       11.258      545.654      284.718      126.732        0.238        0.048       61.696       11.682        0.036      334.465        4.455      863.399
10/23/2013  07:01:00      -79.191      -20.340       -9.533       15.350       19.327       11.469      235.617      373.539      131.535        0.376        0.037       81.761        6.880        0.007      334.369        4.296      863.410
10/23/2013  07:02:00      -73.091      -11.868       -6.282       18.422       14.931        9.575      339.374      222.942       91.678        0.309        0.033       74.048        8.772        0.014      334.313        4.203      863.416
10/23/2013  07:03:00      -76.932      -14.481       -8.091       16.699       14.925       10.764      278.843      222.764      115.870        0.341        0.031       78.283        4.275        0.003      334.309        4.197      863.417
10/23/2013  07:04:00     -106.278      -20.565       -8.724       23.547       19.248       14.359      554.442      370.472      206.169        0.646        0.057      108.249       12.520        0.013      334.305        4.191      863.421
10/23/2013  07:05:00     -145.207      -29.363      -16.719       26.824       18.671       10.840      719.521      348.590      117.516        1.171        0.059      148.147        6.713        0.002      334.332        4.236      863.424
10/23/2013  07:06:00     -120.757       -5.363       -5.963       34.964       23.449       18.440     1222.514      549.843      340.038        0.838        0.106      120.876       16.826        0.019      334.218        4.046      863.429
10/23/2013  07:07:00     -103.391      -26.251       -8.879       27.556       24.876       15.546      759.315      618.795      241.693        0.654        0.081      106.671       15.045        0.020      334.255        4.108      863.427
10/23/2013  07:08:00      -75.659      -43.480        3.912       26.489       25.125       17.311      701.668      631.249      299.677        0.463        0.082       87.263       15.270        0.031      334.325        4.223      863.431
10/23/2013  07:09:00     -100.368      -48.323        2.025       29.375       21.642       19.570      862.871      468.358      382.994        0.706        0.086      111.395       20.610        0.034      334.355        4.275      863.420
10/23/2013  07:10:00     -108.741      -45.399       -4.062       23.748       21.890       12.241      563.987      479.191      149.837        0.755        0.060      117.837       10.524        0.008      334.327        4.225      863.417
10/23/2013  07:11:00      -65.440      -50.570        3.482       30.655       22.528       20.280      939.757      507.505      411.266        0.435        0.093       82.703       17.828        0.046      334.348        4.262      863.419
10/23/2013  07:12:00      -78.609      -42.621        1.119       29.327       21.551       16.813      860.095      464.425      282.667        0.480        0.080       89.420       12.974        0.021      334.364        4.289      863.417
10/23/2013  07:13:00      -62.847      -40.374        4.671       34.649       23.304       16.345     1200.524      543.076      267.154        0.381        0.101       74.698       13.661        0.033      334.429        4.397      863.414
10/23/2013  07:14:00      -87.313      -43.438       -0.526       28.335       16.980       16.809      802.846      288.326      282.552        0.544        0.069       97.521       12.529        0.017      334.440        4.414      863.423
10/23/2013  07:15:00      -99.851      -33.794       -2.358       23.074       17.875       15.685      532.406      319.530      246.025        0.611        0.055      105.414       12.333        0.014      334.436        4.407      863.434
10/23/2013  07:16:00     -103.717      -50.583       -5.047       36.270       15.360       17.143     1315.512      235.944      293.893        0.759        0.092      115.394       19.484        0.029      334.403        4.353      863.449
10/23/2013  07:17:00     -100.560      -48.910       -1.240       29.234       26.547       15.129      854.603      704.726      228.899        0.715        0.089      111.824       11.598        0.011      334.410        4.366      863.461
10/23/2013  07:18:00      -96.040      -50.068       -3.390       26.556       24.921       19.552      705.221      621.062      382.285        0.673        0.085      108.308       17.291        0.025      334.418        4.379      863.466
10/23/2013  07:19:00      -78.617      -46.178        5.061       30.943       20.408       19.611      957.461      416.470      384.592        0.505        0.088       91.176       17.853        0.038      334.367        4.295      863.475
10/23/2013  07:20:00      -83.696      -42.050        1.289       36.226       25.984       18.881     1312.358      675.175      356.511        0.556        0.117       93.665       16.024        0.029      334.315        4.208      863.478
10/23/2013  07:21:00     -103.181      -50.199       -6.385       26.921       18.076       13.893      724.760      326.746      193.017        0.723        0.062      114.744       12.296        0.011      334.346        4.257      863.476
10/23/2013  07:22:00     -101.729      -42.590       -1.556       22.822       22.007       11.592      520.821      484.322      134.368        0.665        0.057      110.285        5.495        0.002      334.292        4.170      863.471
10/23/2013  07:23:00      -85.076      -39.937        1.564       23.715       23.617       18.381      562.379      557.748      337.876        0.515        0.073       93.983       14.299        0.023      334.339        4.247      863.473
10/23/2013  07:24:00     -125.460      -52.233       -5.615       15.105       22.880       15.353      228.169      523.517      235.715        0.974        0.049      135.899        8.076        0.004      334.479        4.479      863.470
10/23/2013  07:25:00      -79.402      -50.845        0.666       27.403       30.562       16.345      750.916      934.040      267.164        0.542        0.098       94.286       13.720        0.021      334.518        4.543      863.476
10/23/2013  07:26:00      -91.379      -44.309       -2.124       30.254       22.341       17.787      915.309      499.133      316.394        0.602        0.087      101.555       14.264        0.020      334.544        4.586      863.481
10/23/2013  07:27:00     -117.937      -56.740       -7.725       18.528       15.634       12.158      343.271      244.414      147.820        0.896        0.037      130.876        8.971        0.005      334.596        4.674      863.486
10/23/2013  07:28:00     -118.783      -57.091       -7.435       19.442       18.936       15.039      378.010      358.560      226.180        0.919        0.048      131.790       11.879        0.008      334.588        4.660      863.490
10/23/2013  07:29:00     -100.628      -49.172       -2.833       27.070       16.647       15.206      732.761      277.108      231.226        0.690        0.062      112.000       15.960        0.020      334.611        4.697      863.492
10/23/2013  07:30:00     -125.797      -64.928       -7.605       15.472       20.552       14.291      239.383      422.378      204.227        1.048        0.043      141.565        5.301        0.001      334.610        4.694      863.492
10/23/2013  07:31:00     -112.252      -66.268       -4.942       24.605       21.680       15.857      605.413      470.017      251.458        0.917        0.066      130.353       15.124        0.013      334.629        4.728      863.487
10/23/2013  07:32:00     -112.482      -53.264       -6.688       22.041       21.655       12.832      485.825      468.934      164.663        0.833        0.056      124.456       11.114        0.008      334.620        4.712      863.485
10/23/2013  07:33:00     -111.793      -34.638       -6.800       25.744       19.793       15.949      662.753      391.749      254.375        0.753        0.065      117.036       15.303        0.017      334.587        4.657      863.477
10/23/2013  07:34:00     -115.272      -34.233       -8.086       25.854       20.943       18.095      668.444      438.612      327.433        0.798        0.072      120.247       16.719        0.019      334.535        4.571      863.472
10/23/2013  07:35:00     -124.675      -38.486       -6.957       23.188       23.079       14.057      537.671      532.626      197.606        0.917        0.063      130.480       10.100        0.006      334.461        4.449      863.466
10/23/2013  07:36:00     -116.011      -53.422       -5.138       26.384       27.698       14.759      696.119      767.189      217.839        0.901        0.084      127.721       10.792        0.007      334.492        4.501      863.472
10/23/2013  07:37:00     -116.389      -54.520       -2.560       32.165       21.667       17.255     1034.560      469.449      297.726        0.916        0.090      128.526       15.870        0.015      334.560        4.611      863.473
10/23/2013  07:38:00      -64.678      -37.850        2.656       38.588       23.331       22.044     1488.998      544.343      485.934        0.407        0.126       74.939       21.517        0.082      334.677        4.808      863.490
10/23/2013  07:39:00      -77.501      -61.319        2.702       35.192       26.764       16.325     1238.471      716.329      266.510        0.600        0.111       98.825       15.830        0.026      334.726        4.889      863.506
10/23/2013  07:40:00      -93.184      -58.722        1.585       36.247       28.474       20.271     1313.836      810.790      410.906        0.733        0.127      110.143       18.065        0.027      334.744        4.919      863.521
10/23/2013  07:41:00     -109.447      -47.877       -1.051       29.310       23.972       18.198      859.072      574.652      331.163        0.802        0.088      119.461       13.826        0.013      334.828        5.059      863.519
10/23/2013  07:42:00      -96.747      -51.245       -3.425       32.783       24.127       17.104     1074.709      582.117      292.564        0.697        0.097      109.480       15.230        0.019      334.872        5.130      863.520
10/23/2013  07:43:00     -106.597      -40.011       -2.225       26.189       20.480       17.424      685.869      419.425      303.608        0.719        0.070      113.858       14.772        0.017      334.925        5.219      863.515
10/23/2013  07:44:00      -94.654      -47.747        9.159       36.333       29.243       21.554     1320.067      855.146      464.564        0.698        0.132      106.015       21.736        0.042      334.997        5.338      863.530
10/23/2013  07:45:00      -92.856      -36.770       -0.533       35.193       30.756       22.045     1238.540      945.904      485.998        0.632        0.134       99.872       19.980        0.040      334.991        5.328      863.531
10/23/2013  07:46:00     -100.269      -55.235        3.753       38.813       22.367       19.461     1506.434      500.291      378.736        0.775        0.119      114.476       21.508        0.035      335.016        5.371      863.529
10/23/2013  07:47:00      -88.356      -33.029        3.099       45.862       28.350       19.396     2103.354      803.721      376.192        0.609        0.164       94.328       20.052        0.045      334.972        5.298      863.538
10/23/2013  07:48:00      -92.874      -13.124       -1.618       37.553       27.383       18.702     1410.264      749.802      349.747        0.565        0.125       93.797       19.790        0.045      335.128        5.556      863.547
10/23/2013  07:49:00      -97.713      -44.248       -2.506       22.139       18.638       11.618      490.148      347.369      134.985        0.624        0.049      107.265       10.998        0.011      335.183        5.648      863.558
10/23/2013  07:50:00      -93.016      -42.425        3.986       33.218       27.766       15.772     1103.451      770.930      248.751        0.630        0.106      102.234       13.304        0.017      335.245        5.750      863.559
10/23/2013  07:51:00      -78.058      -56.685        3.021       29.033       21.029       15.700      842.889      442.206      246.493        0.542        0.077       96.469       15.452        0.026      335.361        5.943      863.567
10/23/2013  07:52:00      -92.876      -21.063       -7.262       17.974       16.943        8.541      323.076      287.060       72.956        0.490        0.034       95.235        6.046        0.004      335.370        5.958      863.573
10/23/2013  07:53:00      -65.177      -21.376        0.240       21.783       13.713        8.989      474.487      188.054       80.797        0.272        0.037       68.592        7.695        0.013      335.388        5.989      863.570
10/23/2013  07:54:00      -44.039      -25.317       -3.106       13.076       14.305        8.825      170.974      204.624       77.874        0.152        0.023       50.798        3.956        0.006      335.409        6.023      863.572
10/23/2013  07:55:00      -47.381      -27.658       -3.604       16.249       17.567        7.861      264.033      308.587       61.803        0.183        0.032       54.863        4.320        0.006      335.357        5.935      863.564
10/23/2013  07:56:00      -61.255      -28.337       -3.031        7.763       11.637        4.412       60.261      135.417       19.470        0.239        0.011       67.492        3.215        0.002      335.331        5.892      863.560
10/23/2013  07:57:00      -17.416      -15.510        8.731       34.115       11.668       14.551     1163.865      136.141      211.743        0.107        0.076       23.321       17.944        0.592      335.538        6.237      863.566
10/23/2013  07:58:00       -8.142      -12.142       -1.988        9.646        9.656        8.400       93.052       93.243       70.560        0.024        0.013       14.619        6.553        0.201      335.560        6.274      863.559
10/23/2013  07:59:00      -22.115      -23.266       -4.427       13.660        8.166        7.563      186.603       66.686       57.193        0.068        0.016       32.100        6.153        0.037      335.416        6.035      863.571
10/23/2013  08:00:00      -40.123      -21.061       -4.426       14.141        9.893        7.984      199.968       97.865       63.742        0.122        0.018       45.315        5.138        0.013      335.407        6.018      863.574
10/23/2013  08:01:00      -22.614      -15.241       -0.952       12.663        7.555        5.880      160.352       57.075       34.573        0.050        0.013       27.271        4.434        0.026      335.404        6.014      863.590
10/23/2013  08:02:00      -18.883      -14.342       -2.337        7.558        8.109        5.471       57.129       65.751       29.936        0.036        0.008       23.712        4.959        0.044      335.495        6.166      863.597
10/23/2013  08:03:00      -41.412      -14.052       -6.238        7.242        8.037        6.288       52.453       64.590       39.545        0.105        0.008       43.731        5.802        0.018      335.512        6.196      863.602
10/23/2013  08:04:00      -31.065      -19.654       -4.763       14.590       10.170        9.924      212.878      103.435       98.487        0.089        0.021       36.760        7.919        0.046      335.608        6.355      863.608
10/23/2013  08:05:00      -16.852      -16.352        2.217       15.262        9.290       10.292      232.931       86.311      105.921        0.049        0.021       23.481       10.302        0.192      335.730        6.559      863.618
10/23/2013  08:06:00      -11.674      -14.893       -3.177       13.136        9.732        4.455      172.554       94.716       19.851        0.033        0.014       18.923        3.511        0.034      335.848        6.755      863.628
10/23/2013  08:07:00      -28.421      -12.724       -4.371        6.091        4.379        3.621       37.104       19.178       13.112        0.053        0.003       31.139        2.797        0.008      335.764        6.617      863.634
10/23/2013  08:08:00      -23.478       -9.745       -1.239        5.236        3.982        3.808       27.415       15.860       14.498        0.035        0.003       25.421        2.557        0.010      335.834        6.731      863.645
10/23/2013  08:09:00      -37.204      -13.191       -6.626        8.419        9.656        4.759       70.884       93.233       22.644        0.089        0.009       39.473        4.736        0.014      335.796        6.668      863.658
10/23/2013  08:10:00      -51.319      -22.221       -4.680       17.731       10.426        8.402      314.397      108.706       70.602        0.182        0.025       55.923        6.670        0.014      335.633        6.397      863.656
10/23/2013  08:11:00      -59.631      -30.908       -1.611       17.163       15.748       13.888      294.558      248.004      192.884        0.262        0.037       67.166        9.875        0.022      335.689        6.491      863.668
10/23/2013  08:12:00      -15.643        3.949       13.912       12.402       15.726       12.395      153.822      247.319      153.625        0.050        0.028       16.134        9.618        0.355      336.038        7.071      863.680
10/23/2013  08:13:00      -13.630        4.892        8.248       11.026        6.374        6.988      121.567       40.626       48.837        0.024        0.011       14.482        7.021        0.235      336.025        7.049      863.685
10/23/2013  08:14:00      -31.840       -5.258       -2.872        6.540        9.222        6.767       42.772       85.051       45.790        0.061        0.009       32.271        4.927        0.023      335.754        6.600      863.689
10/23/2013  08:15:00      -26.402        6.006       -2.056        7.877        6.119        4.163       62.043       37.446       17.332        0.043        0.006       27.077        2.235        0.007      335.768        6.621      863.690
10/23/2013  08:16:00      -12.702        2.355        1.139        7.157        6.291        8.083       51.223       39.574       65.337        0.016        0.008       12.919        5.811        0.202      336.017        7.038      863.696
10/23/2013  08:17:00      -17.810        2.798        1.993       10.646        6.845       10.224      113.332       46.850      104.532        0.030        0.013       18.028        4.133        0.053      336.077        7.138      863.703
10/23/2013  08:18:00      -24.553        3.806        7.248       12.051        3.817        5.792      145.235       14.571       33.546        0.043        0.010       24.846        6.279        0.064      336.024        7.049      863.722
10/23/2013  08:19:00       -2.143      -10.635        0.933       17.598        9.737        7.108      309.677       94.815       50.530        0.029        0.023       10.849        7.244        0.446      336.163        7.280      863.732
10/23/2013  08:20:00       -8.504       -0.140       10.018        7.472        9.530        7.820       55.836       90.829       61.159        0.019        0.010        8.505        5.275        0.385      336.467        7.788      863.734
10/23/2013  08:21:00       -9.452      -11.522        1.258        7.027        7.558        8.206       49.373       57.129       67.337        0.020        0.009       14.903        6.369        0.183      336.104        7.181      863.743
10/23/2013  08:22:00       -9.988       -2.482        1.504        8.666        6.852        4.945       75.106       46.951       24.456        0.013        0.007       10.292        3.204        0.097      336.163        7.280      863.752
10/23/2013  08:23:00       -3.800       -0.165        8.355        9.776        5.699        6.556       95.570       32.483       42.976        0.013        0.009        3.804        3.241        0.726      336.553        7.933      863.757
10/23/2013  08:24:00      -23.781       -2.136       -0.738        7.015        6.090        6.813       49.206       37.090       46.419        0.035        0.007       23.876        4.142        0.030      336.107        7.186      863.765
10/23/2013  08:25:00      -27.617       -5.310       -1.812        6.155        5.808        4.621       37.890       33.738       21.350        0.044        0.005       28.123        1.989        0.005      336.122        7.211      863.779
10/23/2013  08:26:00      -11.867      -13.086       -0.123       12.691       12.624        9.563      161.061      159.370       91.443        0.036        0.021       17.665        7.105        0.162      336.175        7.300      863.784
10/23/2013  08:27:00      -27.646      -13.335        1.220       13.019       15.805        8.633      169.502      249.809       74.536        0.072        0.025       30.694        6.186        0.041      336.115        7.201      863.794
10/23/2013  08:28:00      -18.312       11.247       17.364       11.511        9.490        9.396      132.507       90.053       88.281        0.054        0.016       21.490        7.620        0.126      336.453        7.764      863.800
10/23/2013  08:29:00       -7.472        8.786       28.915        7.552       11.124        7.142       57.026      123.745       51.014        0.060        0.012       11.534        6.319        0.300      336.875        8.469      863.807
10/23/2013  08:30:00      -24.724        1.765        4.280       11.505        6.813        8.375      132.364       46.415       70.146        0.044        0.012       24.787        5.074        0.042      336.297        7.507      863.815
10/23/2013  08:31:00      -40.290       -6.755       -1.395       20.160       13.331       12.842      406.416      177.720      164.923        0.121        0.037       40.852       10.159        0.062      336.237        7.405      863.838
10/23/2013  08:32:00      -28.435      -13.385        1.183       26.316       12.679       14.445      692.521      160.761      208.649        0.103        0.053       31.428       16.708        0.283      336.389        7.657      863.856
10/23/2013  08:33:00      -31.251      -26.090       -1.010       16.932       19.479       14.044      286.686      379.417      197.222        0.126        0.043       40.710       11.698        0.083      336.229        7.389      863.861
10/23/2013  08:34:00      -36.825      -42.271       -2.741       13.321       18.495        7.054      177.450      342.083       49.755        0.186        0.028       56.062        4.463        0.006      336.145        7.250      863.869
10/23/2013  08:35:00      -38.259      -21.744       -3.264       14.210       13.128        9.912      201.934      172.342       98.248        0.121        0.024       44.006        3.768        0.007      336.234        7.399      863.880
10/23/2013  08:36:00      -42.727      -38.648        0.510       25.435       22.177       13.474      646.931      491.841      181.561        0.232        0.066       57.613       12.518        0.047      336.324        7.549      863.886
10/23/2013  08:37:00      -58.896      -43.661      -10.354       10.292       11.809        9.219      105.931      139.452       84.990        0.291        0.017       73.315        5.734        0.006      336.275        7.467      863.892
10/23/2013  08:38:00      -54.117      -20.952       -3.783       15.742       14.415       12.314      247.800      207.782      151.632        0.199        0.030       58.032        6.797        0.014      336.327        7.555      863.908
10/23/2013  08:39:00      -33.666       -5.667       -3.227       10.490       16.153        7.471      110.044      260.919       55.814        0.080        0.021       34.140        5.281        0.024      336.347        7.588      863.916
10/23/2013  08:40:00      -28.299        8.553      -18.991       17.999       15.494       13.464      323.980      240.049      181.267        0.099        0.037       29.563        6.810        0.053      336.522        7.881      863.918
10/23/2013  08:41:00      -63.033        7.047       -4.509       26.001       14.504       14.208      676.059      210.360      201.873        0.257        0.054       63.426       12.529        0.039      336.356        7.602      863.921
10/23/2013  08:42:00      -26.687       11.622        5.926       18.045        9.805       10.447      325.628       96.142      109.138        0.071        0.027       29.108       10.253        0.124      336.573        7.965      863.925
10/23/2013  08:43:00       -7.721       10.943       24.128       17.947       12.932       13.705      322.098      167.247      187.841        0.072        0.034       13.393        5.019        0.140      337.206        9.025      863.932
10/23/2013  08:44:00      -35.336       -0.261        2.196       14.106       19.693       14.256      198.979      387.828      203.226        0.102        0.040       35.337       11.757        0.111      336.556        7.938      863.938
10/23/2013  08:45:00      -45.943      -16.774        4.433       18.474       24.692       15.046      341.302      609.718      226.369        0.179        0.059       48.910        7.829        0.026      336.475        7.801      863.952
10/23/2013  08:46:00      -52.556      -12.232       -2.844       14.422       28.101       12.044      207.989      789.682      145.070        0.203        0.057       53.961       14.279        0.070      336.536        7.904      863.959
10/23/2013  08:47:00      -32.878       -1.204        4.321       18.920       13.108        9.043      357.966      171.826       81.779        0.086        0.031       32.900        6.889        0.044      336.660        8.111      863.965
10/23/2013  08:48:00       -4.406       -2.787       12.511        8.373        7.981       12.787       70.104       63.699      163.505        0.024        0.015        5.214        6.292        1.456      337.285        9.157      863.969
10/23/2013  08:49:00        2.675       22.590       38.323       11.272       21.528        9.879      127.057      463.475       97.586        0.134        0.034       22.748        8.050        0.125      337.347        9.259      863.964
10/23/2013  08:50:00        2.351       26.096       30.334       17.727       14.786       12.890      314.264      218.633      166.141        0.115        0.035       26.201       10.470        0.160      337.115        8.872      863.961
10/23/2013  08:51:00       36.915       30.959       14.283       19.092       27.078       18.553      364.486      733.193      344.206        0.198        0.072       48.178       11.791        0.060      336.795        8.336      863.964
10/23/2013  08:52:00       -3.141       27.491        1.154       21.620       19.396       19.626      467.413      376.207      385.163        0.100        0.061       27.670       14.338        0.269      337.030        8.730      863.952
10/23/2013  08:53:00       12.197       10.193       17.577       25.107       15.754       17.134      630.376      248.179      293.580        0.087        0.059       15.895        9.562        0.362      337.504        9.522      863.952
10/23/2013  08:54:00       39.230       39.937       30.037       22.965       20.354       20.215      527.383      414.278      408.628        0.269        0.068       55.982        8.513        0.023      336.964        8.620      863.947
10/23/2013  08:55:00       32.174       42.352       53.288       25.646       19.959       12.376      657.706      398.378      153.168        0.344        0.060       53.187        5.458        0.011      337.032        8.731      863.940
10/23/2013  08:56:00       63.275       47.693       29.972       40.587       18.609       29.000     1647.344      346.307      841.022        0.501        0.142       79.236       26.060        0.108      336.986        8.655      863.941
10/23/2013  08:57:00       66.119       52.302       11.091       28.153       20.050       33.095      792.581      402.022     1095.293        0.476        0.114       84.304       21.330        0.064      337.054        8.768      863.940
10/23/2013  08:58:00       87.710       48.539       -0.858       30.207       36.466       28.489      912.475     1329.734      811.631        0.655        0.153      100.245       23.100        0.053      337.093        8.835      863.943
10/23/2013  08:59:00       80.250       59.026       16.228       28.236       26.326       31.698      797.265      693.076     1004.785        0.634        0.125       99.620       16.944        0.029      337.189        8.995      863.948
10/23/2013  09:00:00      121.746       74.636       16.822       37.253       25.425       32.226     1387.802      646.437     1038.534        1.187        0.154      142.803       22.439        0.025      336.902        8.513      863.951
10/23/2013  09:01:00      110.941       65.973       11.997       34.099       31.495       23.260     1162.742      991.966      541.011        0.975        0.135      129.075        9.172        0.005      336.930        8.562      863.949
10/23/2013  09:02:00      101.943       66.518       -2.195       27.200       20.458       21.640      739.820      418.533      468.270        0.822        0.081      121.726        5.089        0.002      336.911        8.531      863.946
10/23/2013  09:03:00       85.038       61.222        1.430       22.746       25.089       28.296      517.382      629.446      800.659        0.646        0.097      104.784       17.934        0.029      337.041        8.746      863.944
10/23/2013  09:04:00       43.370       34.450       17.796       29.453       30.426       21.171      867.490      925.741      448.211        0.281        0.112       55.388       17.536        0.100      337.228        9.059      863.948
10/23/2013  09:05:00       43.825       44.651        4.641       39.833       34.305       20.850     1586.640     1176.813      434.703        0.357        0.160       62.565       10.446        0.028      337.321        9.216      863.948
10/23/2013  09:06:00       59.129       75.428        7.576       30.115       24.166       28.135      906.901      583.990      791.578        0.576        0.114       95.841       16.816        0.031      337.448        9.430      863.949
10/23/2013  09:07:00       44.614       53.037       21.872       35.844       24.837       31.049     1284.786      616.867      964.031        0.407        0.143       69.306       22.623        0.107      337.502        9.520      863.965
10/23/2013  09:08:00       83.601       72.486       -6.438       32.389       30.989       34.371     1049.076      960.314     1181.343        0.774        0.160      110.649       15.508        0.020      337.302        9.184      863.966
10/23/2013  09:09:00       61.094       60.614       19.984       42.822       29.516       37.761     1833.766      871.201     1425.924        0.597        0.207       86.061       27.433        0.102      337.387        9.327      863.967
10/23/2013  09:10:00       45.831       46.230        1.610       26.150       36.457       28.434      683.822     1329.101      808.472        0.353        0.141       65.098       13.712        0.044      337.382        9.319      863.973
10/23/2013  09:11:00       91.385       69.249       -8.747       38.026       41.731       26.769     1446.012     1741.497      716.598        0.856        0.195      114.659       16.041        0.020      337.281        9.148      863.970
10/23/2013  09:12:00       73.251       60.597        4.047       22.830       24.206       20.280      521.228      585.943      411.296        0.529        0.076       95.066        6.738        0.005      337.186        8.989      863.978
10/23/2013  09:13:00       96.292       83.059       16.619       23.734       26.722       22.630      563.325      714.042      512.123        0.912        0.089      127.165        9.927        0.006      337.172        8.967      863.967
10/23/2013  09:14:00       69.983       67.310        5.239       27.807       17.441       28.069      773.212      304.198      787.886        0.566        0.093       97.099        8.579        0.008      337.376        9.309      863.968
10/23/2013  09:15:00       14.931       42.090       43.137       33.378       35.473       22.769     1114.110     1258.365      518.411        0.337        0.145       44.660       19.892        0.198      337.977       10.316      863.968
10/23/2013  09:16:00       -6.532       58.717       62.425       15.187       38.338       22.761      230.651     1469.814      518.049        0.480        0.111       59.079       11.602        0.039      337.901       10.187      863.975
10/23/2013  09:17:00       57.031       30.679        9.093       33.262       24.049       24.778     1106.384      578.332      613.967        0.329        0.115       64.759       17.471        0.073      337.712        9.872      863.984
10/23/2013  09:18:00       32.325       44.517       13.331       28.882       34.768       21.235      834.163     1208.838      450.935        0.285        0.125       55.015       11.572        0.044      337.684        9.824      863.986
10/23/2013  09:19:00       34.667       48.688       -0.318       38.794       32.017       29.947     1504.970     1025.093      896.838        0.350        0.171       59.769       25.128        0.177      337.676        9.812      863.996
10/23/2013  09:20:00        4.559       10.059       22.055       30.565       19.416       15.115      934.249      376.983      228.472        0.107        0.077       11.044        9.932        0.809      337.990       10.336      864.008
10/23/2013  09:21:00       13.357       10.497       33.056       18.471       40.101       22.330      341.177     1608.083      498.618        0.191        0.122       16.988       21.866        1.657      338.108       10.534      864.010
10/23/2013  09:22:00       10.691       22.268       38.737       41.363       48.542       26.436     1710.910     2356.358      698.885        0.344        0.238       24.702       23.180        0.881      338.038       10.418      864.014
10/23/2013  09:23:00       41.355       40.400        0.942       27.264       13.174       18.769      743.312      173.553      352.293        0.231        0.063       57.813       10.245        0.031      337.638        9.747      864.017
10/23/2013  09:24:00      107.412       80.016       22.820       37.749       22.687       33.946     1424.964      514.685     1152.324        1.078        0.155      133.940       16.522        0.015      337.561        9.619      864.016
10/23/2013  09:25:00       56.598       49.418       16.910       24.826       20.096       26.276      616.330      403.858      690.408        0.382        0.086       75.137        8.349        0.012      337.724        9.891      864.021
10/23/2013  09:26:00       65.361       48.791       -4.839       29.027       27.280       28.982      842.561      744.201      839.961        0.455        0.121       81.564       12.682        0.024      337.772        9.972      864.023
10/23/2013  09:27:00       74.854       53.909       -2.576       23.191       33.044       28.115      537.804     1091.935      790.470        0.547        0.121       92.246       16.236        0.031      337.634        9.738      864.019
10/23/2013  09:28:00       75.629       66.869        4.955       24.197       21.418       28.111      585.484      458.738      790.247        0.602        0.092      100.952       17.270        0.029      337.633        9.739      864.018
10/23/2013  09:29:00       38.923       53.526       14.391       48.747       21.159       30.994     2376.261      447.724      960.631        0.419        0.189       66.181       29.675        0.201      337.833       10.073      864.011
10/23/2013  09:30:00       48.567       48.118       12.959       35.554       34.036       25.040     1264.087     1158.433      627.011        0.395        0.152       68.368       18.741        0.075      338.110       10.539      864.017
10/23/2013  09:31:00       81.420       55.543        9.640       30.764       24.811       32.970      946.426      615.565     1087.013        0.623        0.132       98.561       13.485        0.019      338.288       10.838      864.024
10/23/2013  09:32:00       59.702       59.989       30.952       35.205       37.747       41.556     1239.421     1424.802     1726.872        0.626        0.220       84.635       32.625        0.149      337.895       10.179      864.028
10/23/2013  09:33:00       49.373       48.792       27.496       23.581       32.200       29.237      556.043     1036.860      854.775        0.401        0.122       69.414       18.459        0.071      338.053       10.443      864.025
10/23/2013  09:34:00       -2.513       50.171        9.945       23.493       33.894       30.020      551.932     1148.798      901.222        0.261        0.130       50.234       22.237        0.196      338.224       10.731      864.020
10/23/2013  09:35:00       19.225       36.021        7.429       26.518       25.522       26.889      703.228      651.395      723.028        0.190        0.104       40.830       16.057        0.155      338.261       10.793      864.014
10/23/2013  09:36:00       76.072       76.791       13.509       49.482       29.738       33.810     2448.431      884.367     1143.135        0.817        0.224      108.092       16.690        0.024      338.073       10.477      864.019
10/23/2013  09:37:00       56.951       40.915       -4.989       18.921       23.801       21.032      357.989      566.480      442.345        0.315        0.068       70.124       15.774        0.051      337.860       10.121      864.011
10/23/2013  09:38:00        6.596       24.474       -5.641       22.804       24.063       16.050      520.044      579.034      257.591        0.102        0.068       25.347       11.358        0.201      338.129       10.571      863.995
10/23/2013  09:39:00       15.270        7.496       19.218       17.635       20.769       19.593      310.990      431.370      383.887        0.089        0.056       17.011       15.048        0.783      338.545       11.269      863.990
10/23/2013  09:40:00       45.862       42.891       32.541       29.698       21.026       17.348      881.953      442.076      300.938        0.331        0.081       62.793       13.898        0.049      338.209       10.705      863.981
10/23/2013  09:41:00        0.917        4.982       21.090       15.592       31.553       13.084      243.126      995.605      171.203        0.094        0.070        5.066        7.119        1.975      338.748       11.610      863.972
10/23/2013  09:42:00        0.962      -21.675       11.015       14.978       28.582       20.744      224.349      816.917      430.311        0.103        0.074       21.697       19.527        0.810      338.873       11.821      863.966
10/23/2013  09:43:00      -16.795        1.841       28.951       19.687       12.477       18.960      387.578      155.679      359.471        0.101        0.045       16.895       16.032        0.900      338.855       11.790      863.971
10/23/2013  09:44:00       58.914       65.724       58.398       53.258       33.217       19.636     2836.422     1103.349      385.553        0.776        0.216       88.264       16.124        0.033      338.429       11.076      863.972
10/23/2013  09:45:00       57.716       53.076      -16.519       18.440       39.479       15.387      340.039     1558.610      236.769        0.428        0.107       78.410       12.542        0.026      337.946       10.264      863.973
10/23/2013  09:46:00       57.450       29.226      -11.783       15.605       22.752       21.298      243.524      517.654      453.594        0.275        0.061       64.457        7.256        0.013      338.004       10.361      863.976
10/23/2013  09:47:00       30.987       32.741      -15.915       17.283       24.490       17.563      298.713      599.762      308.471        0.175        0.060       45.080       11.865        0.069      338.132       10.576      863.971
10/23/2013  09:48:00       18.844       25.052       16.819       43.242       23.099       24.944     1869.884      533.578      622.200        0.215        0.151       31.348       24.794        0.626      338.498       11.191      863.962
10/23/2013  09:49:00       55.229       38.973        1.518       38.012       31.967       27.436     1444.923     1021.861      752.735        0.389        0.161       67.595       20.255        0.090      338.596       11.355      863.952
10/23/2013  09:50:00        6.675        7.413       15.268       34.471       21.726       19.766     1188.255      472.028      390.687        0.119        0.103        9.976       20.525        4.233      339.081       12.172      863.939
10/23/2013  09:51:00      -38.469       13.781       13.897       33.073       23.146       21.250     1093.821      535.751      451.546        0.197        0.104       40.863       18.997        0.216      338.911       11.885      863.930
10/23/2013  09:52:00      -45.926       -5.291       -8.056       12.233       14.293        9.621      149.648      204.295       92.571        0.132        0.022       46.230        3.813        0.007      338.310       10.874      863.922
10/23/2013  09:53:00      -24.955       13.835        8.800       12.648       19.595       25.696      159.971      383.979      660.298        0.105        0.060       28.533       14.446        0.256      338.751       11.615      863.916
10/23/2013  09:54:00       30.890       17.442       32.685       21.901       51.423       32.092      479.652     2644.340     1029.885        0.324        0.208       35.474       37.666        1.127      338.818       11.728      863.912
10/23/2013  09:55:00       17.675       49.272       73.821       53.842       37.413       31.326     2898.952     1399.768      981.301        0.673        0.264       52.347       28.695        0.300      338.901       11.868      863.910
10/23/2013  09:56:00      100.282       65.462       12.380       20.534       31.999       31.209      421.643     1023.927      973.983        0.846        0.121      119.757       25.617        0.046      338.302       10.862      863.904
10/23/2013  09:57:00       67.241       41.991       11.698       14.453       20.916       18.648      208.899      437.459      347.742        0.371        0.050       79.275        8.092        0.010      338.354       10.950      863.905
10/23/2013  09:58:00       71.684       58.187        5.181       28.069       26.719       29.380      787.850      713.926      863.170        0.546        0.118       92.327       17.133        0.034      338.579       11.326      863.893
10/23/2013  09:59:00       19.650       27.306        6.153       29.184       51.987       30.858      851.685     2702.631      952.221        0.284        0.225       33.642       29.529        0.770      338.994       12.025      863.881
10/23/2013  10:00:00      -10.586      -37.829       11.670       27.505       46.420       22.575      756.499     2154.857      509.613        0.255        0.171       39.282       14.370        0.134      338.936       11.926      863.885
10/23/2013  10:01:00       64.732       -2.123       21.224       32.123       58.903       26.052     1031.902     3469.591      678.719        0.491        0.259       64.767       24.955        0.148      338.729       11.577      863.892
10/23/2013  10:02:00       40.504       47.848       32.641       24.858       20.281       16.879      617.911      411.303      284.908        0.315        0.066       62.690       11.907        0.036      338.809       11.712      863.887
10/23/2013  10:03:00       25.136       28.950        2.175       46.194       29.805       21.469     2133.879      888.308      460.905        0.248        0.174       38.340       21.799        0.323      339.042       12.106      863.879
10/23/2013  10:04:00       24.126      -50.485       23.376       39.594       55.970       25.343     1567.716     3132.657      642.278        0.451        0.267       55.953       31.875        0.325      339.143       12.276      863.880
10/23/2013  10:05:00       24.419      -50.772       21.424       24.866       47.127       27.560      618.308     2220.976      759.563        0.362        0.180       56.339       19.311        0.117      338.966       11.977      863.882
10/23/2013  10:06:00       46.229       35.221       30.034       52.173       59.573       25.107     2722.054     3548.983      630.381        0.559        0.345       58.118       20.406        0.123      338.956       11.960      863.874
10/23/2013  10:07:00       49.361       42.435       22.643       39.318       35.745       33.044     1545.888     1277.701     1091.913        0.433        0.196       65.094       17.609        0.073      339.123       12.241      863.875
10/23/2013  10:08:00        0.689       31.021       53.438       26.518       35.388       36.372      703.194     1252.313     1322.920        0.355        0.164       31.028       31.072        1.003      339.521       12.911      863.873
10/23/2013  10:09:00       30.815       65.503       52.108       19.383       24.187       20.795      375.712      585.000      432.418        0.467        0.070       72.390       15.170        0.044      339.074       12.159      863.877
10/23/2013  10:10:00       15.123       26.748        4.155       21.922       24.553       32.827      480.587      602.841     1077.581        0.156        0.108       30.728       19.510        0.403      339.123       12.242      863.875
10/23/2013  10:11:00       36.850       58.464        6.826       26.430       25.187       25.767      698.529      634.405      663.958        0.341        0.100       69.108       15.062        0.048      339.021       12.069      863.866
10/23/2013  10:12:00       12.310       25.867       14.770       29.098       25.626       18.650      846.670      656.681      347.833        0.144        0.093       28.647       17.223        0.361      339.213       12.393      863.871
10/23/2013  10:13:00      -18.945       83.281        5.544       22.048       32.414       26.029      486.095     1050.667      677.530        0.477        0.111       85.408       16.455        0.037      339.317       12.567      863.869
10/23/2013  10:14:00       -1.756       24.113       23.810       24.160       35.342       18.608      583.693     1249.062      346.271        0.166        0.109       24.176       16.902        0.489      340.061       13.823      863.862
10/23/2013  10:15:00       -7.770       31.503       48.369       27.520       47.269       25.446      757.328     2234.377      647.517        0.352        0.182       32.447       28.523        0.773      339.512       12.895      863.865
10/23/2013  10:16:00       18.709       24.235       31.074       20.867       27.892       33.240      435.434      777.950     1104.886        0.211        0.116       30.616       18.930        0.382      339.437       12.771      863.870
10/23/2013  10:17:00       39.403       58.591       50.574       19.549       18.390       20.159      382.161      338.191      406.402        0.433        0.056       70.608       12.058        0.029      339.274       12.494      863.873
10/23/2013  10:18:00       34.568       40.543       -3.931       41.967       32.673       26.239     1761.253     1067.548      688.490        0.319        0.176       53.280       29.269        0.302      339.216       12.398      863.872
10/23/2013  10:19:00       -3.515       19.399       15.079       25.165       18.568       18.522      633.279      344.776      343.058        0.097        0.066       19.715       14.014        0.505      339.654       13.137      863.861
10/23/2013  10:20:00       31.388       35.534       26.600       22.528       26.602       20.017      507.488      707.668      400.679        0.229        0.081       47.412       13.910        0.086      339.841       13.450      863.851
10/23/2013  10:21:00       -9.896        2.530       28.299       19.786       19.440       21.232      391.495      377.916      450.780        0.106        0.061       10.215       13.178        1.664      340.150       13.973      863.843
10/23/2013  10:22:00       31.993       32.538       30.224       40.466       30.022       32.363     1637.468      901.335     1047.393        0.329        0.179       45.632       23.977        0.276      339.835       13.441      863.830
10/23/2013  10:23:00       18.390       29.694        4.783       32.361       32.170       24.927     1047.237     1034.940      621.371        0.197        0.135       34.928       23.854        0.466      339.828       13.430      863.829
10/23/2013  10:24:00       32.515       44.242       11.691       27.786       29.445       24.947      772.047      867.037      622.352        0.271        0.113       54.905       23.600        0.185      339.730       13.264      863.820
10/23/2013  10:25:00       -0.112       49.827        3.578       28.015       40.349       25.240      784.841     1628.041      637.047        0.277        0.152       49.827       21.180        0.181      339.844       13.457      863.818
10/23/2013  10:26:00       10.139       96.186       -7.011       35.834       45.155       28.712     1284.042     2038.950      824.370        0.677        0.207       96.719       28.663        0.088      339.645       13.121      863.812
10/23/2013  10:27:00        2.640       85.058       -2.567       34.075       40.609       28.739     1161.078     1649.065      825.922        0.544        0.182       85.099       26.348        0.096      339.862       13.488      863.799
10/23/2013  10:28:00       15.344        6.454       21.916       26.755       21.888       21.176      715.814      479.083      448.407        0.120        0.082       16.646       15.851        0.907      340.425       14.436      863.791
10/23/2013  10:29:00       67.046       61.967       58.989       59.086       39.799       42.827     3491.184     1583.992     1834.158        0.936        0.345       91.297       40.302        0.195      339.960       13.652      863.782
10/23/2013  10:30:00       77.818       50.149       13.352       48.120       31.033       41.829     2315.505      963.051     1749.631        0.689        0.251       92.577       35.163        0.144      339.786       13.360      863.780
10/23/2013  10:31:00       59.877       46.459       17.110       30.563       22.333       30.616      934.120      498.760      937.331        0.420        0.119       75.787       21.617        0.081      339.562       12.981      863.772
10/23/2013  10:32:00       45.936       44.273       14.528       25.188       31.453       36.318      634.431      989.320     1318.974        0.361        0.147       63.798       24.603        0.149      340.024       13.760      863.765
10/23/2013  10:33:00       35.063       28.993        9.132       27.280       36.694       29.293      744.194     1346.442      858.098        0.255        0.147       45.497       12.789        0.079      340.173       14.010      863.752
10/23/2013  10:34:00        4.937       20.782       41.918       22.154       23.306       21.139      490.782      543.151      446.854        0.185        0.074       21.360       14.247        0.445      340.700       14.901      863.750
10/23/2013  10:35:00       21.846       33.493       30.187       29.542       28.885       29.552      872.708      834.323      873.301        0.254        0.129       39.988       19.889        0.247      340.131       13.940      863.742
10/23/2013  10:36:00       84.406       93.113       28.263       49.909       32.497       41.808     2490.933     1056.077     1747.889        1.094        0.265      125.676       35.908        0.082      339.773       13.336      863.727
10/23/2013  10:37:00       37.492       89.397       99.081       54.674       41.733       35.278     2989.242     1741.606     1244.502        1.259        0.299       96.940       26.712        0.076      339.795       13.373      863.723
10/23/2013  10:38:00       45.112       67.473       72.954       39.543       32.504       29.232     1563.665     1056.491      854.537        0.769        0.174       81.164       24.901        0.094      339.776       13.340      863.719
10/23/2013  10:39:00       31.353      -13.163       29.974       31.824       59.949       29.387     1012.793     3593.827      863.581        0.376        0.274       34.004       29.475        0.751      339.951       13.636      863.707
10/23/2013  10:40:00       27.739       27.004       49.064       61.697       63.236       44.732     3806.469     3998.845     2000.963        0.685        0.490       38.713       42.745        1.219      340.483       14.536      863.688
10/23/2013  10:41:00       95.424       80.960       24.482       29.599       29.469       31.916      876.086      868.444     1018.661        0.951        0.138      125.141        7.106        0.003      339.863       13.489      863.686
10/23/2013  10:42:00       52.586       36.349       17.741       51.978       40.142       23.744     2701.704     1611.406      563.777        0.464        0.244       63.926       17.663        0.076      340.100       13.888      863.668
10/23/2013  10:43:00       56.424       69.806       25.526       53.367       44.553       47.755     2848.082     1984.937     2280.506        0.791        0.356       89.758       39.865        0.197      340.259       14.156      863.655
10/23/2013  10:44:00       44.940       52.471       14.799       42.227       34.354       32.003     1783.091     1180.199     1024.161        0.449        0.199       69.086       19.859        0.083      340.166       14.000      863.634
10/23/2013  10:45:00       78.651       81.029        7.872       50.154       37.309       31.988     2515.377     1391.998     1023.240        0.887        0.247      112.924       25.913        0.053      339.833       13.437      863.618
10/23/2013  10:46:00       68.357       68.765      -18.411       24.049       41.275       23.996      578.343     1703.591      575.793        0.630        0.143       96.960       17.844        0.034      339.840       13.449      863.612
10/23/2013  10:47:00       63.422       29.861        0.388       48.302       32.465       24.866     2333.068     1053.964      618.302        0.446        0.200       70.100       15.107        0.046      340.153       13.976      863.604
10/23/2013  10:48:00       79.668       55.947       -1.013       21.033       30.877       28.207      442.372      953.359      795.621        0.583        0.110       97.350        7.446        0.006      339.883       13.522      863.602
10/23/2013  10:49:00       51.962       36.718        6.978       31.260       32.103       30.511      977.164     1030.632      930.898        0.352        0.147       63.626       19.731        0.096      340.153       13.977      863.599
10/23/2013  10:50:00       27.149       18.802       21.416       25.518       18.180       21.543      651.163      330.515      464.121        0.150        0.072       33.024        8.064        0.060      340.422       14.432      863.594
10/23/2013  10:51:00       70.747       53.101        0.184       26.236       28.873       24.275      688.339      833.657      589.282        0.497        0.106       88.458       16.733        0.036      339.905       13.559      863.590
10/23/2013  10:52:00        4.649       19.034        1.943       19.548       14.102       16.210      382.124      198.854      262.772        0.062        0.042       19.594        8.856        0.204      340.422       14.431      863.583
10/23/2013  10:53:00       25.575       38.477       18.272       45.100       35.222       24.171     2033.988     1240.574      584.244        0.316        0.193       46.201       15.682        0.115      340.852       15.159      863.580
10/23/2013  10:54:00       12.196       42.553       30.805       30.485       32.521       44.230      929.316     1057.600     1956.336        0.343        0.197       44.267       23.939        0.292      340.723       14.941      863.578
10/23/2013  10:55:00       55.774       51.021       39.000       32.551       25.496       38.231     1059.589      650.069     1461.634        0.520        0.159       75.590       19.652        0.068      340.130       13.939      863.576
10/23/2013  10:56:00       58.388       66.420       52.784       45.822       37.240       29.524     2099.699     1386.851      871.650        0.748        0.218       88.435       25.832        0.085      340.246       14.134      863.562
10/23/2013  10:57:00       35.320       60.841       60.941       48.113       39.972       32.322     2314.904     1597.725     1044.716        0.681        0.248       70.350       27.162        0.149      340.437       14.458      863.545
10/23/2013  10:58:00        9.276       45.754       72.331       38.877       44.651       34.334     1511.409     1993.678     1178.793        0.605        0.234       46.685       35.185        0.568      340.765       15.013      863.537
10/23/2013  10:59:00      101.639       74.841       12.293       52.569       29.196       44.289     2763.460      852.430     1961.517        1.083        0.279      126.221       29.684        0.055      340.305       14.235      863.523
10/23/2013  11:00:00       82.817       61.290       10.930       31.303       29.216       24.275      979.861      853.572      589.269        0.658        0.121      103.030       15.247        0.022      340.394       14.384      863.514
10/23/2013  11:01:00       23.946       47.069        1.761       28.640       30.662       26.143      820.261      940.154      683.441        0.262        0.122       52.810       20.356        0.149      340.635       14.792      863.503
10/23/2013  11:02:00       82.321       82.949       19.106       63.148       47.182       45.494     3987.721     2226.176     2069.671        1.115        0.414      116.864       25.953        0.049      340.670       14.850      863.494
10/23/2013  11:03:00        9.954        0.835       16.283       44.540       52.428       33.182     1983.768     2748.688     1101.047        0.310        0.292        9.989       13.788        1.905      340.840       15.139      863.487
10/23/2013  11:04:00       76.183       64.161        1.719       38.192       32.064       29.620     1458.626     1028.078      877.341        0.664        0.168       99.602       18.224        0.033      340.362       14.328      863.486
10/23/2013  11:05:00       29.097        4.195       -5.846       27.318       25.990       17.279      746.262      675.469      298.578        0.131        0.086       29.398       15.075        0.263      340.261       14.160      863.476
10/23/2013  11:06:00       -3.745        1.617       13.998       25.702       24.102       14.665      660.573      580.893      215.074        0.083        0.073        4.079       15.288       14.045      340.993       15.397      863.473
10/23/2013  11:07:00       87.207       80.425        8.816       40.613       27.431       33.755     1649.433      752.469     1139.419        0.885        0.177      118.630       19.214        0.026      340.527       14.609      863.457
10/23/2013  11:08:00      -15.781      -18.158        7.659       33.959       67.934       29.368     1153.237     4615.057      862.496        0.363        0.332       24.057       33.975        1.995      340.893       15.227      863.446
10/23/2013  11:09:00       25.638       88.096       -9.230       34.092       42.184       25.861     1162.296     1779.487      668.767        0.606        0.181       91.751        9.089        0.010      340.862       15.175      863.449
10/23/2013  11:10:00       42.124       79.359       -0.325       34.292       38.928       34.249     1175.950     1515.354     1173.019        0.597        0.193       89.846       23.130        0.066      340.759       15.004      863.447
10/23/2013  11:11:00        9.342       47.515        3.181       24.070       24.253       19.983      579.362      588.192      399.328        0.196        0.078       48.425       12.334        0.065      340.582       14.702      863.442
10/23/2013  11:12:00       47.434       44.620       17.663       39.898       38.446       37.298     1591.811     1478.119     1391.106        0.451        0.223       65.123       27.889        0.183      340.866       15.183      863.427
10/23/2013  11:13:00       63.283       53.374        9.768       40.705       33.468       29.650     1656.889     1120.075      879.140        0.530        0.183       82.785       18.825        0.052      340.587       14.711      863.421
10/23/2013  11:14:00       62.389       54.974        4.071       45.177       36.847       33.284     2040.982     1357.734     1107.800        0.572        0.225       83.153       21.129        0.065      340.738       14.966      863.418
10/23/2013  11:15:00       50.002       45.984        8.269       51.330       26.777       27.413     2634.773      717.014      751.490        0.439        0.205       67.932       23.274        0.117      340.829       15.120      863.424
10/23/2013  11:16:00      137.917       85.745       26.416       42.372       34.757       39.525     1795.385     1208.046     1562.189        1.582        0.228      162.399       21.512        0.018      340.562       14.667      863.417
10/23/2013  11:17:00      111.210       67.993        4.634       42.235       35.736       26.575     1783.755     1277.085      706.256        1.039        0.188      130.349       20.547        0.025      340.543       14.637      863.418
10/23/2013  11:18:00       85.607       81.601       20.129       33.999       35.948       29.542     1155.907     1292.224      872.744        0.886        0.166      118.268       18.725        0.025      340.920       15.272      863.417
10/23/2013  11:19:00       62.010       69.416       24.498       32.624       37.579       37.676     1064.337     1412.196     1419.462        0.658        0.195       93.080       18.017        0.037      341.077       15.541      863.422
10/23/2013  11:20:00       -1.908       71.565       -8.187       28.740       30.818       20.434      826.003      949.752      417.541        0.369        0.110       71.590       10.485        0.021      340.817       15.099      863.417
10/23/2013  11:21:00        9.177      107.120       -6.817       42.306       43.178       26.352     1789.774     1864.354      694.440        0.798        0.217      107.513        9.367        0.008      341.115       15.604      863.415
10/23/2013  11:22:00       54.666       37.682       -1.752       50.574       32.855       27.384     2557.721     1079.437      749.908        0.440        0.219       66.395       26.126        0.155      341.521       16.291      863.398
10/23/2013  11:23:00       43.975       56.586        8.393       35.916       32.756       29.104     1289.954     1072.969      847.052        0.421        0.160       71.664       11.539        0.026      341.214       15.771      863.400
10/23/2013  11:24:00       17.938       61.676       -1.810       24.405       33.346       25.664      595.583     1111.926      658.653        0.325        0.118       64.232       18.123        0.080      341.183       15.719      863.390
10/23/2013  11:25:00       32.811       43.125        5.544       23.625       21.400       28.604      558.124      457.963      818.212        0.240        0.092       54.188       14.868        0.075      341.051       15.494      863.392
10/23/2013  11:26:00       -2.000       19.497       50.772       12.704       23.750       15.079      161.399      564.073      227.385        0.196        0.048       19.600       15.271        0.607      341.747       16.673      863.379
10/23/2013  11:27:00       33.948       44.861       20.846       30.036       23.766       31.241      902.180      564.825      976.015        0.302        0.122       56.258       15.335        0.074      341.471       16.205      863.370
10/23/2013  11:28:00       12.521       11.096       10.160       27.206       31.406       24.306      740.142      986.307      590.771        0.135        0.116       16.730       16.486        0.971      341.748       16.676      863.355
10/23/2013  11:29:00       16.381      -53.497       -0.313       26.230       36.710       17.913      687.995     1347.646      320.880        0.274        0.118       55.949       15.503        0.077      341.638       16.489      863.345
10/23/2013  11:30:00       14.148      -31.170       10.439       26.450       27.482       29.822      699.615      755.277      889.367        0.181        0.117       34.230       22.183        0.420      341.811       16.783      863.339
10/23/2013  11:31:00       15.907       34.124       42.278       40.146       25.902       26.942     1611.704      670.908      725.889        0.311        0.150       37.650       25.122        0.445      341.919       16.966      863.325
10/23/2013  11:32:00       33.403       42.063       39.361       29.309       30.004       31.887      858.993      900.218     1016.757        0.360        0.139       53.713       16.662        0.096      341.605       16.435      863.318
10/23/2013  11:33:00       21.462       43.618       40.939       38.086       32.225       31.419     1450.570     1038.480      987.151        0.376        0.174       48.612       11.877        0.060      342.164       17.383      863.304
10/23/2013  11:34:00       43.983       79.486       -2.682       53.552       40.001       29.223     2867.765     1600.091      854.002        0.679        0.266       90.844       21.284        0.055      341.710       16.612      863.298
10/23/2013  11:35:00       36.433       53.131      -14.105       45.173       59.386       30.054     2040.564     3526.701      903.260        0.541        0.324       64.423       19.081        0.088      341.649       16.510      863.286
10/23/2013  11:36:00       23.262       27.920       52.190       45.291       48.483       32.400     2051.286     2350.568     1049.764        0.475        0.273       36.341       19.735        0.295      342.061       17.207      863.284
10/23/2013  11:37:00        6.766       63.410       85.975       33.461       45.445       23.057     1119.618     2065.228      531.632        0.759        0.186       63.770       20.828        0.107      342.002       17.107      863.277
10/23/2013  11:38:00       35.698      -40.392       19.307       40.503       57.157       41.776     1640.467     3266.869     1745.206        0.496        0.333       53.906       41.480        0.592      341.778       16.728      863.278
10/23/2013  11:39:00       57.702      -54.558       19.852       38.583       39.009       33.353     1488.670     1521.734     1112.442        0.541        0.206       79.411       21.228        0.071      341.585       16.401      863.270
10/23/2013  11:40:00       27.948       38.049       22.614       35.401       50.997       35.738     1253.245     2600.676     1277.224        0.393        0.257       47.211       20.873        0.195      341.677       16.555      863.264
10/23/2013  11:41:00       20.453       45.541       -3.561       42.337       32.739       25.184     1792.431     1071.853      634.215        0.300        0.175       49.923       14.896        0.089      341.658       16.523      863.251
10/23/2013  11:42:00        7.847      -44.400       -7.510       38.782       42.790       22.250     1504.056     1830.953      495.059        0.296        0.192       45.088       25.708        0.325      341.678       16.557      863.251
10/23/2013  11:43:00      -17.297       24.849       12.280       29.402       27.222       35.502      864.490      741.022     1260.417        0.197        0.143       30.277       21.454        0.502      341.838       16.830      863.229
10/23/2013  11:44:00      -19.822       60.579       11.429       24.962       51.401       23.932      623.083     2642.091      572.750        0.402        0.192       63.740       24.589        0.149      341.963       17.042      863.222
10/23/2013  11:45:00       26.344      100.530      -12.614       30.225       39.073       29.962      913.529     1526.683      897.714        0.715        0.167      103.924       25.077        0.058      341.653       16.516      863.208
10/23/2013  11:46:00       55.787       58.251       -2.293       36.335       30.266       26.259     1320.218      916.023      689.513        0.472        0.146       80.656       19.088        0.056      341.631       16.476      863.202
10/23/2013  11:47:00       72.896       73.760       -1.292       51.080       27.718       28.143     2609.145      768.278      792.002        0.746        0.208      103.703       15.985        0.024      341.768       16.711      863.189
10/23/2013  11:48:00       47.882       61.992       -7.620       31.400       27.697       20.687      985.986      767.098      427.960        0.419        0.109       78.331       14.469        0.034      341.687       16.574      863.189
10/23/2013  11:49:00       16.368       63.081       11.871       33.346       40.658       31.684     1111.942     1653.046     1003.898        0.408        0.188       65.170       24.275        0.139      341.897       16.928      863.180
10/23/2013  11:50:00       47.563       64.231        1.889       23.023       48.873       27.598      530.071     2388.551      761.648        0.504        0.184       79.924       27.551        0.119      341.664       16.534      863.166
10/23/2013  11:51:00       65.277       46.606        2.993       37.412       26.440       28.820     1399.671      699.056      830.583        0.469        0.146       80.207       17.364        0.047      341.879       16.898      863.162
10/23/2013  11:52:00       74.118       48.792       -3.946       20.039       20.908       23.306      401.559      437.130      543.148        0.464        0.069       88.736       10.798        0.015      341.546       16.335      863.146
10/23/2013  11:53:00        8.441        7.977       -5.216       20.002       24.814        7.575      400.091      615.737       57.378        0.062        0.054       11.614       12.280        1.118      341.711       16.614      863.137
10/23/2013  11:54:00       -1.390       23.150       17.969       31.855       25.837       17.568     1014.744      667.539      308.645        0.143        0.100       23.192       11.106        0.229      342.129       17.322      863.115
10/23/2013  11:55:00       -5.446       33.227        8.160       22.168       24.255       29.288      491.437      588.284      857.759        0.157        0.097       33.670       17.959        0.284      342.086       17.250      863.095
10/23/2013  11:56:00      -33.052       49.933       -9.745       21.411       23.148       18.025      458.444      535.818      324.911        0.250        0.066       59.881       10.970        0.034      341.812       16.785      863.077
10/23/2013  11:57:00      -20.266       37.196        0.360       28.724       27.298       24.161      825.087      745.161      583.739        0.197        0.108       42.359       17.921        0.179      342.168       17.388      863.054
10/23/2013  11:58:00       19.597       28.649       10.167       33.014       26.125       28.021     1089.950      682.534      785.173        0.193        0.128       34.710       20.132        0.336      342.322       17.650      863.042
10/23/2013  11:59:00       93.252       65.169        4.297       36.011       33.200       36.882     1296.773     1102.263     1360.271        0.836        0.188      113.767       15.246        0.018      341.880       16.900      863.022
10/23/2013  12:00:00       51.235       58.670        4.656       35.054       48.230       31.909     1228.795     2326.087     1018.200        0.533        0.229       77.892       23.258        0.089      342.095       17.265      863.023
10/23/2013  12:01:00        8.869       86.620        0.394       34.961       50.099       35.688     1222.282     2509.913     1273.611        0.629        0.250       87.073       31.423        0.130      342.109       17.290      863.004
10/23/2013  12:02:00       14.442       96.274       -3.724       35.661       34.810       27.597     1271.701     1211.765      761.606        0.637        0.162       97.351       19.549        0.040      342.166       17.386      862.997
10/23/2013  12:03:00       50.560       46.139      -14.728       33.788       26.779       30.545     1141.639      717.106      933.016        0.385        0.140       68.448       15.659        0.052      341.934       16.991      862.987
10/23/2013  12:04:00      106.992       53.487        2.172       54.995       37.281       35.990     3024.428     1389.852     1295.264        1.001        0.285      119.617       17.399        0.021      342.025       17.147      862.983
10/23/2013  12:05:00       82.768       71.871       12.766       30.770       27.328       23.341      946.768      746.835      544.808        0.721        0.112      109.617       18.379        0.028      341.890       16.917      862.964
10/23/2013  12:06:00       54.202       46.006       12.553       32.635       36.240       32.681     1065.056     1313.346     1068.021        0.433        0.172       71.094       22.709        0.102      342.234       17.501      862.960
10/23/2013  12:07:00      118.072       73.498        4.128       38.957       32.309       28.029     1517.627     1043.848      785.599        1.135        0.167      139.079       15.350        0.012      342.067       17.217      862.950
10/23/2013  12:08:00       91.952       78.837       -1.550       29.686       23.320       22.450      881.270      543.829      504.021        0.830        0.096      121.121       10.260        0.007      342.063       17.210      862.946
10/23/2013  12:09:00      118.581       72.529       -3.763       24.295       29.186       28.272      590.226      851.822      799.315        1.079        0.112      139.004       18.281        0.017      341.947       17.013      862.925
10/23/2013  12:10:00       46.122       34.815        7.016       24.780       29.544       28.678      614.029      872.857      822.436        0.285        0.115       57.787       11.938        0.043      342.058       17.202      862.926
10/23/2013  12:11:00       40.554       40.829       17.990       39.757       37.219       24.236     1580.634     1385.248      587.396        0.359        0.178       57.547       22.354        0.151      342.420       17.817      862.907
10/23/2013  12:12:00       -4.684      109.393      -11.610       22.306       30.210       25.408      497.543      912.648      645.564        0.709        0.103      109.493       20.187        0.034      342.083       17.244      862.894
10/23/2013  12:13:00        6.380       50.522        2.402       21.946       42.813       31.121      481.610     1832.965      968.499        0.294        0.164       50.924       29.689        0.340      342.627       18.170      862.880
10/23/2013  12:14:00        3.924       44.729        4.211       18.460       29.631       18.941      340.789      877.978      358.751        0.181        0.079       44.901       19.421        0.187      342.659       18.222      862.855
10/23/2013  12:15:00       23.013       82.228        2.095       47.688       32.660       37.491     2274.152     1066.677     1405.585        0.602        0.237       85.388       23.151        0.074      342.620       18.159      862.835
10/23/2013  12:16:00       54.040       46.975       44.934       41.944       36.055       32.287     1759.290     1299.977     1042.471        0.562        0.205       71.603       25.528        0.127      342.376       17.742      862.813
10/23/2013  12:17:00       15.010      -15.562       28.979       23.300       39.647       24.127      542.900     1571.888      582.126        0.200        0.135       21.621       22.959        1.128      342.847       18.542      862.795
10/23/2013  12:18:00       48.886       76.129      103.592       46.152       51.976       27.823     2130.017     2701.492      774.104        1.226        0.280       90.473       31.292        0.120      342.596       18.118      862.766
10/23/2013  12:19:00       30.267      -10.131       48.215       50.496       76.266       45.304     2549.884     5816.524     2052.444        0.688        0.521       31.917       42.774        1.796      342.650       18.209      862.754
10/23/2013  12:20:00       50.060       57.160       15.963       35.018       55.144       33.633     1226.226     3040.892     1131.205        0.571        0.270       75.982       25.383        0.112      342.662       18.228      862.734
10/23/2013  12:21:00       65.711       64.765        6.774       32.756       34.597       25.526     1072.947     1196.928      651.553        0.574        0.146       92.263       19.604        0.045      342.414       17.808      862.719
10/23/2013  12:22:00        3.550       33.501       52.335       37.696       52.901       45.273     1421.020     2798.535     2049.636        0.507        0.313       33.688       34.745        1.064      343.093       18.963      862.700
10/23/2013  12:23:00       15.707       78.948       94.677       44.604       52.473       44.272     1989.522     2753.423     1959.978        1.107        0.335       80.496       40.558        0.254      342.818       18.493      862.693
10/23/2013  12:24:00       47.267       87.130       96.409       39.403       42.418       22.798     1552.560     1799.297      519.752        1.150        0.194       99.125       11.981        0.015      342.532       18.007      862.685
10/23/2013  12:25:00       71.802      -88.081        8.229       28.117       61.356       32.646      790.547     3764.522     1065.736        0.930        0.281      113.639       35.856        0.100      342.357       17.709      862.681
10/23/2013  12:26:00       12.181       21.581       41.058       31.408       24.962       21.821      986.480      623.104      476.178        0.219        0.104       24.781       18.858        0.579      342.930       18.685      862.667
10/23/2013  12:27:00       12.704       18.053       43.611       25.889       23.317       28.129      670.256      543.696      791.254        0.220        0.100       22.075       20.600        0.871      342.996       18.796      862.657
10/23/2013  12:28:00       37.022      -89.448       -7.267       27.369       45.305       32.919      749.070     2052.533     1083.683        0.665        0.194       96.807       26.096        0.073      342.706       18.305      862.653
10/23/2013  12:29:00       23.675      -95.770        0.222       52.252       41.996       38.273     2730.274     1763.649     1464.814        0.784        0.298       98.653       28.773        0.085      342.771       18.413      862.631
10/23/2013  12:30:00      -11.066      -52.359      -14.425       36.962       36.640       21.002     1366.165     1342.464      441.063        0.311        0.157       53.516       13.423        0.063      342.800       18.464      862.622
10/23/2013  12:31:00       10.869       36.226       12.735       38.402       49.072       30.088     1474.691     2408.024      905.265        0.319        0.239       37.821       17.212        0.207      343.254       19.236      862.604
10/23/2013  12:32:00       -5.668       31.976       44.798       32.850       40.084       39.227     1079.143     1606.737     1538.790        0.364        0.211       32.474       24.198        0.555      343.460       19.588      862.608
10/23/2013  12:33:00       30.666        9.774       25.868       45.627       35.388       32.135     2081.839     1252.301     1032.646        0.304        0.218       32.186       11.251        0.122      343.143       19.048      862.598
10/23/2013  12:34:00       23.204       59.290       72.588       38.634       49.005       53.917     1492.588     2401.477     2907.080        0.806        0.340       63.669       48.701        0.585      343.079       18.939      862.579
10/23/2013  12:35:00       75.470       82.092       64.710       61.210       45.531       48.142     3746.613     2073.056     2317.628        1.238        0.407      111.512       42.987        0.149      342.828       18.510      862.569
10/23/2013  12:36:00      112.766       53.827       49.519       73.263       56.856       48.870     5367.397     3232.645     2388.252        1.453        0.549      124.954       45.835        0.135      343.029       18.853      862.538
10/23/2013  12:37:00       33.890       65.003       86.299       51.341       61.295       44.199     2635.917     3757.022     1953.545        1.058        0.417       73.307       32.210        0.193      343.144       19.049      862.538
10/23/2013  12:38:00       45.943       58.017       62.194       56.379       36.495       33.571     3178.590     1331.849     1127.044        0.749        0.282       74.005       31.820        0.185      343.228       19.192      862.533
10/23/2013  12:39:00        9.844       30.477       72.918       39.724       89.173       48.722     1578.014     7951.911     2373.820        0.912        0.595       32.027       57.471        3.220      343.546       19.733      862.500
10/23/2013  12:40:00       32.986       67.257       75.750       47.404       50.442       25.137     2247.145     2544.444      631.878        0.839        0.271       74.910       14.591        0.038      343.473       19.610      862.493
10/23/2013  12:41:00       12.773       63.969       90.576       51.172       79.327       59.898     2618.545     6292.827     3587.711        1.248        0.625       65.232       51.534        0.624      343.403       19.491      862.487
10/23/2013  12:42:00       51.085       81.556       80.957       46.481       48.838       39.871     2160.504     2385.145     1589.680        1.097        0.307       96.234       31.472        0.107      343.188       19.125      862.468
10/23/2013  12:43:00       35.196       37.062       56.312       49.505       61.580       44.138     2450.762     3792.044     1948.138        0.699        0.410       51.111       43.514        0.725      342.911       18.653      862.468
10/23/2013  12:44:00       64.466      -31.583        0.588       31.249       42.966       26.160      976.527     1846.079      684.355        0.433        0.175       71.787        7.115        0.010      343.026       18.848      862.451
10/23/2013  12:45:00       57.953       72.999        2.500       50.262       48.593       31.816     2526.230     2361.260     1012.253        0.730        0.295       93.206       29.986        0.104      343.144       19.050      862.436
10/23/2013  12:46:00       34.153       70.468       -7.380       33.297       47.405       33.032     1108.722     2247.187     1091.117        0.532        0.222       78.308       32.432        0.172      342.983       18.774      862.439
10/23/2013  12:47:00       17.893       35.994       -3.645       27.896       26.806       19.018      778.164      718.559      361.670        0.174        0.093       40.196       14.607        0.132      343.045       18.879      862.423
10/23/2013  12:48:00        6.544       32.605       -0.181       22.957       26.387       23.221      527.020      696.262      539.212        0.143        0.088       33.256       17.584        0.280      343.183       19.115      862.405
10/23/2013  12:49:00        3.440      -11.074      -10.257       15.315       43.823       11.841      234.551     1920.447      140.221        0.127        0.115       11.596       11.965        1.065      343.051       18.890      862.397
10/23/2013  12:50:00       34.458       29.252       47.164       42.505       47.935       20.748     1806.650     2297.747      430.482        0.440        0.227       45.200       19.062        0.178      343.494       19.645      862.371
10/23/2013  12:51:00       42.260       31.246       34.472       49.291       44.140       41.975     2429.570     1948.342     1761.942        0.504        0.307       52.557       35.337        0.452      343.396       19.477      862.359
10/23/2013  12:52:00       -4.634       17.859       59.447       35.437       61.671       31.967     1255.815     3803.352     1021.872        0.498        0.304       18.450       35.428        3.687      343.844       20.243      862.345
10/23/2013  12:53:00       18.392       43.487       42.676       34.566       33.151       33.962     1194.795     1098.974     1153.425        0.375        0.172       47.216       30.584        0.420      343.548       19.738      862.328
10/23/2013  12:54:00       15.992      -20.626        6.450       23.552       46.804       24.460      554.698     2190.657      598.270        0.203        0.167       26.099       19.482        0.557      343.497       19.651      862.301
10/23/2013  12:55:00       22.528       32.154       48.029       34.669       58.398       37.968     1201.927     3410.348     1441.596        0.495        0.303       39.260       44.343        1.276      343.822       20.205      862.292
10/23/2013  12:56:00       26.989       31.806       88.073       51.678       57.320       34.576     2670.573     3285.611     1195.478        0.832        0.358       41.713       35.209        0.712      344.066       20.621      862.274
10/23/2013  12:57:00       87.011       -9.449       19.148       46.649       62.788       38.939     2176.165     3942.361     1516.219        0.783        0.382       87.523       26.774        0.094      343.260       19.248      862.264
10/23/2013  12:58:00       27.916       76.476       21.205       35.595       53.101       25.870     1267.032     2819.713      669.233        0.592        0.238       81.412       26.705        0.108      343.467       19.599      862.242
10/23/2013  12:59:00      -13.002       -6.573       -1.516       16.780       23.561       21.745      281.577      555.111      472.866        0.076        0.065       14.569       14.707        1.019      343.751       20.084      862.224
10/23/2013  13:00:00       14.957      -60.449       19.084       36.896       39.262       33.361     1361.352     1541.523     1112.985        0.413        0.201       62.272       29.652        0.227      343.610       19.844      862.205
10/23/2013  13:01:00       46.693       76.107       60.456       55.635       43.080       42.722     3095.212     1855.867     1825.130        0.920        0.339       89.289       38.512        0.186      343.463       19.592      862.197
10/23/2013  13:02:00       82.256      -55.175       12.560       62.558       57.755       47.512     3913.462     3335.632     2257.367        0.974        0.475       99.047       45.203        0.208      343.445       19.561      862.188
10/23/2013  13:03:00       18.488       31.875       50.402       24.292       19.427       23.540      590.118      377.395      554.115        0.271        0.076       36.849       13.294        0.130      343.807       20.179      862.172
10/23/2013  13:04:00       12.767      -13.069       11.262       26.802       43.690       34.914      718.362     1908.830     1219.018        0.215        0.192       18.270       36.614        4.016      343.445       19.563      862.168
10/23/2013  13:05:00       15.434        8.283        3.228       28.726       27.089       24.556      825.183      733.792      602.992        0.124        0.108       17.516       22.373        1.632      343.645       19.902      862.138
10/23/2013  13:06:00       42.156       42.116       18.533       37.311       34.805       29.516     1392.091     1211.362      871.202        0.368        0.174       59.589       21.817        0.134      343.789       20.148      862.127
10/23/2013  13:07:00       84.966       63.523       14.119       68.130       59.295       40.392     4641.751     3515.939     1631.537        1.062        0.489      106.087       20.822        0.039      343.780       20.132      862.113
10/23/2013  13:08:00      100.861       81.345       68.002       67.259       53.548       59.799     4523.737     2867.356     3575.868        1.619        0.548      129.575       52.381        0.163      343.828       20.215      862.088
10/23/2013  13:09:00       60.989       45.117       -6.735       40.128       22.802       16.512     1610.238      519.952      272.647        0.410        0.120       75.863       13.599        0.032      343.268       19.260      862.100
10/23/2013  13:10:00      -29.855       41.445      -20.672       17.702       14.317       11.018      313.374      204.968      121.399        0.184        0.032       51.078        1.617        0.001      343.325       19.357      862.077
10/23/2013  13:11:00       17.628       25.670       -6.185       16.356       30.680       19.748      267.533      941.265      389.965        0.130        0.080       31.140       20.357        0.427      343.666       19.938      862.043
10/23/2013  13:12:00       22.831       15.358       12.982       21.023       23.645       14.967      441.965      559.082      224.001        0.108        0.061       27.516       13.261        0.232      344.028       20.556      862.031
10/23/2013  13:13:00       86.690       50.170       11.353       73.073       48.975       43.759     5339.597     2398.521     1914.820        0.991        0.483      100.161       32.455        0.105      343.891       20.322      862.017
10/23/2013  13:14:00      166.688       97.364       51.986       63.382       49.998       47.178     4017.272     2499.783     2225.780        2.435        0.437      193.041       28.394        0.022      343.679       19.960      861.998
10/23/2013  13:15:00       93.591        5.997       13.405       48.606       68.483       44.448     2362.537     4689.951     1975.621        0.900        0.451       93.783       28.730        0.094      343.544       19.730      861.996
10/23/2013  13:16:00       26.887       34.745       50.159       51.557       50.715       62.543     2658.156     2571.986     3911.683        0.679        0.457       43.934       50.899        1.342      343.985       20.484      861.964
10/23/2013  13:17:00       81.442       91.679       69.779       63.378       39.077       47.830     4016.778     1527.014     2287.732        1.387        0.392      122.629       42.885        0.122      343.623       19.864      861.953
10/23/2013  13:18:00       56.091       58.043       70.272       50.665       60.442       44.519     2566.950     3653.176     1981.980        0.983        0.410       80.717       42.556        0.278      343.711       20.014      861.942
10/23/2013  13:19:00       36.149       21.015       68.645       42.136       51.897       34.922     1775.473     2693.350     1219.556        0.607        0.284       41.814       33.092        0.626      343.994       20.499      861.917
10/23/2013  13:20:00       50.614       22.174       15.732       45.399       41.876       40.673     2061.045     1753.587     1654.323        0.438        0.273       55.258       29.869        0.292      343.865       20.279      861.907
10/23/2013  13:21:00      115.200       61.523       42.300       58.561       37.975       38.628     3429.439     1442.084     1492.099        1.260        0.318      130.599       31.904        0.060      343.920       20.372      861.886
10/23/2013  13:22:00       49.218       99.590       -6.277       68.798       59.952       36.986     4733.110     3594.242     1367.936        1.104        0.485      111.088       34.101        0.094      343.795       20.157      861.877
10/23/2013  13:23:00       -6.365       75.299       -9.048       35.564       45.733       28.086     1264.809     2091.553      788.846        0.497        0.207       75.567       20.491        0.074      343.976       20.470      861.860
10/23/2013  13:24:00       69.958      129.836      -13.228       54.492       89.052       41.661     2969.328     7930.213     1735.618        1.728        0.632      147.484       50.746        0.118      343.860       20.268      861.834
10/23/2013  13:25:00       93.169       69.300       16.761       55.162       37.536       34.178     3042.793     1408.943     1168.150        0.969        0.281      116.116       21.830        0.035      343.799       20.165      861.817
10/23/2013  13:26:00       43.742       71.560       11.099       48.732       30.862       31.002     2374.793      952.433      961.150        0.572        0.214       83.870       23.135        0.076      343.875       20.296      861.799
10/23/2013  13:27:00       45.549      121.563      -15.776       51.263       71.041       34.085     2627.905     5046.792     1161.814        1.297        0.442      129.817       34.597        0.071      344.014       20.533      861.764
10/23/2013  13:28:00       65.559      122.354       -3.771       50.505       59.494       39.913     2550.760     3539.566     1593.075        1.348        0.384      138.811       26.788        0.037      343.824       20.208      861.756
10/23/2013  13:29:00       37.459       25.233        5.351       40.721       51.342       33.634     1658.188     2636.030     1131.225        0.375        0.271       45.165       21.570        0.228      344.112       20.699      861.738
10/23/2013  13:30:00       55.648       31.243       45.782       65.712       64.092       40.834     4318.112     4107.765     1667.433        0.813        0.505       63.819       37.697        0.349      344.536       21.425      861.711
10/23/2013  13:31:00      102.889      112.016       76.455       88.624       67.839       65.932     7854.280     4602.094     4347.049        2.289        0.840      152.098       49.166        0.104      344.100       20.677      861.694
10/23/2013  13:32:00      116.529       83.564       92.149       95.823       69.578       50.648     9182.054     4841.097     2565.216        2.282        0.829      143.394       42.073        0.086      344.165       20.788      861.695
10/23/2013  13:33:00       12.418      -46.426        7.080       55.279       94.879       34.340     3055.792     9002.040     1179.218        0.780        0.662       48.058       44.683        0.864      344.146       20.759      861.672
10/23/2013  13:34:00      103.930     -147.374      -12.286       60.172       74.667       35.931     3620.650     5575.157     1291.036        2.158        0.524      180.335       46.095        0.065      343.896       20.328      861.654
10/23/2013  13:35:00      124.932     -150.445      -31.713       48.464       65.465       27.060     2348.711     4285.694      732.263        2.331        0.368      195.555       20.075        0.011      343.930       20.386      861.634
10/23/2013  13:36:00       43.581      -26.679       30.498       56.483       60.582       35.241     3190.367     3670.185     1241.900        0.582        0.405       51.099       44.655        0.764      344.380       21.158      861.614
10/23/2013  13:37:00       14.181      -90.466       31.502       53.859       60.986       48.989     2900.747     3719.296     2399.903        0.920        0.451       91.571       29.682        0.105      344.427       21.239      861.595
10/23/2013  13:38:00        8.500      -15.580       37.525       27.571       54.539       41.131      760.173     2974.518     1691.725        0.357        0.271       17.748       39.967        5.071      344.549       21.446      861.587
10/23/2013  13:39:00       41.071      -92.037        7.198       36.339       84.232       35.196     1320.536     7095.105     1238.761        0.993        0.483      100.785       45.861        0.207      344.451       21.278      861.558
10/23/2013  13:40:00       62.188      -77.124        1.148       51.293       50.253       44.105     2630.952     2525.355     1945.282        0.846        0.355       99.073       20.164        0.041      344.257       20.947      861.543
10/23/2013  13:41:00       45.609      -35.373       13.877       43.620       59.117       54.976     1902.747     3494.850     3022.383        0.597        0.421       57.718       54.106        0.879      344.465       21.303      861.539
10/23/2013  13:42:00       12.467        1.431       25.206       20.884       30.948       16.421      436.157      957.798      269.662        0.123        0.083       12.549       10.338        0.679      344.493       21.352      861.525
10/23/2013  13:43:00       41.342       35.129       30.034       52.628       27.011       32.756     2769.669      729.593     1072.982        0.421        0.229       54.251       32.739        0.364      344.560       21.466      861.499
10/23/2013  13:44:00       99.019       64.368       34.890       79.422       64.852       63.252     6307.896     4205.743     4000.790        1.484        0.726      118.102       57.913        0.240      344.716       21.733      861.490
10/23/2013  13:45:00       24.267       64.548      104.246       66.530       73.700       44.736     4426.231     5431.703     2001.314        1.374        0.593       68.959       54.133        0.616      344.628       21.582      861.493
10/23/2013  13:46:00       51.044      -56.076       28.682       28.715       57.487       38.598      824.567     3304.771     1489.784        0.609        0.281       75.829       35.181        0.215      344.268       20.965      861.481
10/23/2013  13:47:00       -6.711       32.306        9.459       35.984       37.324       31.447     1294.852     1393.072      988.910        0.243        0.184       32.995       25.499        0.597      344.524       21.405      861.464
10/23/2013  13:48:00      140.722       81.521       29.255      127.807       72.884       56.076    16334.727     5312.105     3144.470        2.604        1.240      162.630       44.967        0.076      344.378       21.153      861.455
10/23/2013  13:49:00       58.239       53.789       61.627       89.620       63.057       41.552     8031.791     3976.213     1726.548        1.191        0.687       79.278       32.965        0.173      344.530       21.415      861.443
10/23/2013  13:50:00      135.232       96.039       29.822       84.859       60.744       43.477     7201.064     3689.830     1890.209        2.059        0.639      165.865       42.804        0.067      344.396       21.183      861.438
10/23/2013  13:51:00      141.001       59.768       30.186       77.482       53.266       41.439     6003.439     2837.314     1717.172        1.746        0.528      153.146       19.213        0.016      344.379       21.154      861.434
10/23/2013  13:52:00       68.742       30.111       29.008       44.577       53.856       36.780     1987.076     2900.471     1352.759        0.636        0.312       75.048       37.366        0.248      344.201       20.853      861.434
10/23/2013  13:53:00      122.353      137.005      147.971       78.654       68.211       56.980     6186.436     4652.796     3246.709        3.486        0.704      183.686       34.894        0.036      344.246       20.925      861.410
10/23/2013  13:54:00       83.788       78.298       80.713       65.513       53.352       43.550     4291.903     2846.425     1896.619        1.435        0.452      114.678       42.130        0.135      344.280       20.987      861.406
10/23/2013  13:55:00       21.162       41.039       45.353       40.041       28.962       29.674     1603.279      838.813      880.553        0.376        0.166       46.174       28.719        0.387      344.476       21.321      861.399
10/23/2013  13:56:00      104.608       57.894       56.846       74.450       71.486       60.715     5542.856     5110.302     3686.299        1.593        0.717      119.560       51.668        0.187      344.486       21.338      861.391
10/23/2013  13:57:00       28.072       74.006       98.667       52.372       60.520       33.109     2742.844     3662.709     1096.187        1.175        0.375       79.151       37.701        0.227      344.501       21.365      861.387
10/23/2013  13:58:00       32.052       70.292       90.775       53.277       48.934       27.665     2838.394     2394.567      765.329        1.010        0.300       77.255       25.586        0.110      344.494       21.352      861.361
10/23/2013  13:59:00       77.531       77.145       64.031       65.603       52.677       49.048     4303.811     2774.815     2405.750        1.277        0.474      109.373       39.665        0.132      344.337       21.085      861.355
10/23/2013  14:00:00       72.224       77.013       71.241       82.928       54.520       56.557     6877.126     2972.391     3198.743        1.463        0.652      105.581       48.623        0.212      344.429       21.240      861.355
10/23/2013  14:01:00      100.439       80.805       63.642       74.092       87.445       58.757     5489.678     7646.547     3452.372        1.863        0.829      128.909       53.844        0.174      344.490       21.345      861.341
10/23/2013  14:02:00       39.771       52.876       30.044       39.194       52.538       43.886     1536.159     2760.243     1926.001        0.575        0.311       66.163       38.353        0.336      344.434       21.251      861.343
10/23/2013  14:03:00        1.003        0.934       21.701       20.274       26.117       27.123      411.030      682.081      735.674        0.115        0.091        1.371       11.938       75.859      344.933       22.104      861.326
10/23/2013  14:04:00       28.988      -13.375       36.343       59.169       74.029       57.291     3500.917     5480.279     3282.302        0.730        0.613       31.925       55.773        3.052      344.806       21.886      861.327
10/23/2013  14:05:00       65.788       52.844       62.031       76.467       72.851       47.673     5847.164     5307.261     2272.728        1.220        0.671       84.384       33.579        0.158      344.620       21.568      861.324
10/23/2013  14:06:00       13.337      -62.716       -6.331       18.292       21.524       18.468      334.594      463.290      341.079        0.264        0.057       64.118       10.251        0.026      344.378       21.155      861.323
10/23/2013  14:07:00        6.709      -65.896       -8.801       30.529       42.691       27.248      932.020     1822.540      742.452        0.398        0.175       66.236       27.212        0.169      344.844       21.952      861.295
10/23/2013  14:08:00       -2.633      -66.799      -16.453       37.801       29.031       17.390     1428.916      842.783      302.420        0.366        0.129       66.851       13.039        0.038      344.578       21.496      861.273
10/23/2013  14:09:00       -1.026        3.363       35.586       17.127       25.454       16.539      293.350      647.890      273.535        0.125        0.061        3.516       15.145       18.558      345.160       22.492      861.265
10/23/2013  14:10:00       15.183       17.921       64.493       34.788       56.166       27.302     1210.178     3154.578      745.402        0.491        0.256       23.488       28.930        1.517      345.026       22.264      861.252
10/23/2013  14:11:00       83.985       16.404       46.516       56.836       49.835       43.362     3230.365     2483.557     1880.255        0.854        0.380       85.572       41.035        0.230      344.436       21.254      861.240
10/23/2013  14:12:00       -3.629       -5.853       30.597       38.763       43.755       36.493     1502.575     1914.513     1331.708        0.287        0.237        6.887       33.370       23.477      344.805       21.886      861.220
10/23/2013  14:13:00       18.511      -71.407      -13.068       28.981       23.248       19.774      839.914      540.448      391.018        0.369        0.089       73.768        7.844        0.011      344.383       21.164      861.215
10/23/2013  14:14:00       37.301      -20.739        9.134       23.867       47.156       38.239      569.637     2223.709     1462.226        0.308        0.213       42.678       38.532        0.815      344.503       21.366      861.202
10/23/2013  14:15:00       18.458       25.970       43.168       39.215       21.810       16.595     1537.791      475.659      275.406        0.258        0.114       31.861       11.302        0.126      344.784       21.850      861.192
10/23/2013  14:16:00       -1.835        1.802       24.924       30.623       26.083       16.956      937.757      680.347      287.515        0.127        0.095        2.572       21.362       68.964      345.118       22.421      861.181
10/23/2013  14:17:00       24.839       94.991      -12.089       72.698       48.449       36.477     5285.017     2347.347     1330.538        0.937        0.448       98.185       11.974        0.015      344.751       21.792      861.171
10/23/2013  14:18:00       13.549      100.662      -25.618       40.484       37.300       14.337     1638.947     1391.287      205.555        0.710        0.162      101.569       10.910        0.012      344.431       21.245      861.175
10/23/2013  14:19:00       47.355        9.319       -7.288       48.375       44.069       22.996     2340.120     1942.115      528.799        0.360        0.241       48.263       11.939        0.061      344.518       21.394      861.155
10/23/2013  14:20:00      153.954      102.615       25.096       93.264       85.913       47.679     8698.131     7381.039     2273.278        2.660        0.918      185.018       29.542        0.025      344.575       21.489      861.132
10/23/2013  14:21:00      164.601       89.804       30.408       63.134       61.471       45.687     3985.876     3778.745     2087.307        2.297        0.493      187.505       12.830        0.005      344.570       21.480      861.130
10/23/2013  14:22:00      145.446       77.211       38.725      113.311       77.554       49.872    12839.435     6014.631     2487.222        2.497        1.067      164.669       38.843        0.056      344.753       21.793      861.105
10/23/2013  14:23:00       43.928       33.275       18.211       55.293       49.024       34.918     3057.291     2403.332     1219.290        0.502        0.334       55.107       24.008        0.190      345.110       22.406      861.104
10/23/2013  14:24:00       45.404      -79.133       13.772       75.621       54.033       36.338     5718.494     2919.609     1320.481        0.923        0.498       91.234       32.709        0.129      345.090       22.372      861.096
10/23/2013  14:25:00       77.195      -52.691       24.605       68.890       77.269       42.688     4745.806     5970.471     1822.264        1.094        0.627       93.463       40.576        0.188      344.941       22.116      861.072
10/23/2013  14:26:00       78.451       15.296       49.441       67.855       97.297       60.261     4604.344     9466.761     3631.423        1.326        0.885       79.928       55.283        0.478      345.044       22.292      861.058
10/23/2013  14:27:00        7.560       60.117       -1.709       48.078       61.040       34.598     2311.448     3725.881     1197.006        0.545        0.362       60.591       31.400        0.269      345.114       22.413      861.054
10/23/2013  14:28:00       82.559       87.292       47.801       84.752       54.731       53.488     7182.983     2995.531     2860.965        1.488        0.652      120.149       29.515        0.060      345.181       22.527      861.042
10/23/2013  14:29:00      210.761      137.622       15.501       87.943       56.109       53.130     7733.980     3148.267     2822.835        3.865        0.685      251.714       35.220        0.020      344.522       21.396      861.049
10/23/2013  14:30:00       83.381       99.332       -6.281       45.320       49.707       28.560     2053.876     2470.745      815.698        1.110        0.267      129.689       14.285        0.012      344.463       21.299      861.039
10/23/2013  14:31:00        4.268       27.831      -14.537       45.261       34.233       22.584     2048.559     1171.905      510.051        0.237        0.187       28.157        6.503        0.053      344.563       21.471      861.016
10/23/2013  14:32:00        6.522       24.907       -6.282       23.917       20.508       20.589      572.018      420.583      423.909        0.106        0.071       25.746       14.545        0.319      344.802       21.880      860.992
10/23/2013  14:33:00      102.992       74.559        6.159       55.135       68.784       41.907     3039.820     4731.300     1756.220        1.286        0.476      127.147       25.997        0.042      344.653       21.624      860.984
10/23/2013  14:34:00       25.157       88.520       -2.415       43.150       48.045       34.969     1861.927     2308.289     1222.856        0.693        0.270       92.026       30.935        0.113      344.697       21.699      860.967
10/23/2013  14:35:00       73.376       56.983       23.733       34.970       30.479       32.421     1222.896      928.999     1051.136        0.620        0.160       92.904       22.832        0.060      344.605       21.543      860.948
10/23/2013  14:36:00       72.247       20.813        9.759       65.925       46.331       39.100     4346.077     2146.567     1528.823        0.688        0.401       75.185       10.539        0.020      344.798       21.873      860.945
10/23/2013  14:37:00       23.949      -69.212       20.672       39.390       64.741       34.739     1551.554     4191.338     1206.784        0.637        0.347       73.239       26.396        0.130      345.119       22.422      860.932
10/23/2013  14:38:00      145.505     -222.978      -23.582       87.513       82.394       41.969     7658.598     6788.798     1761.435        4.383        0.810      266.254       46.896        0.031      344.760       21.804      860.920
10/23/2013  14:39:00      129.876     -125.231      -16.528       59.520       74.221       48.619     3542.690     5508.769     2363.844        2.212        0.571      180.418       46.733        0.067      344.684       21.675      860.906
10/23/2013  14:40:00       73.496     -104.042       28.250       57.871      119.402       53.629     3349.046    14256.823     2876.101        1.875        1.024      127.383       65.254        0.262      344.897       22.041      860.905
10/23/2013  14:41:00       83.285      -57.723       15.510       57.594       56.429       34.063     3317.067     3184.286     1160.315        0.908        0.383      101.333       31.523        0.097      345.038       22.284      860.885
10/23/2013  14:42:00       85.443      -95.707        5.493       99.583       69.798       38.495     9916.870     4871.702     1481.832        1.638        0.814      128.298       46.518        0.131      344.891       22.030      860.864
10/23/2013  14:43:00       56.765      -92.833       11.546       47.767       76.315       44.467     2281.731     5823.945     1977.336        1.103        0.504      108.813       45.284        0.173      345.143       22.462      860.841
10/23/2013  14:44:00      110.835     -121.702       -0.512       70.849       88.689       40.732     5019.598     7865.730     1659.109        2.082        0.727      164.608       50.034        0.092      345.181       22.525      860.835
10/23/2013  14:45:00       88.658       90.923      112.677       87.997       76.119       57.462     7743.484     5794.115     3301.926        2.283        0.842      126.993       46.894        0.136      345.151       22.474      860.834
10/23/2013  14:46:00       61.258       37.576       75.936       95.863       78.278       48.952     9189.675     6127.376     2396.265        1.432        0.886       71.864       48.288        0.451      345.175       22.518      860.841
10/23/2013  14:47:00      118.410       52.729       50.583       71.707       64.745       49.966     5141.920     4191.977     2496.633        1.559        0.592      129.619       42.216        0.106      344.776       21.835      860.829
10/23/2013  14:48:00       72.883      112.095       14.471       60.108       58.761       42.638     3612.933     3452.894     1817.978        1.348        0.444      133.706       32.106        0.058      344.720       21.739      860.813
10/23/2013  14:49:00       10.989       45.230       20.230       47.415       71.151       30.648     2248.168     5062.417      939.303        0.541        0.412       46.545       24.206        0.270      345.054       22.312      860.796
10/23/2013  14:50:00       21.962      -47.138        5.327       42.900       73.375       33.830     1840.382     5383.819     1144.495        0.555        0.418       52.003       39.882        0.588      345.166       22.504      860.794
10/23/2013  14:51:00       22.156       -1.767       40.906       26.738       32.578       17.309      714.903     1061.358      299.618        0.212        0.104       22.227       11.948        0.289      345.430       22.955      860.785
10/23/2013  14:52:00       17.897      -43.562       23.141       25.744       30.796       24.074      662.728      948.417      579.559        0.247        0.110       47.095        8.586        0.033      345.391       22.889      860.766
10/23/2013  14:53:00       18.140       17.556       19.489       31.045       18.632       19.526      963.811      347.156      381.279        0.135        0.085       25.244       11.456        0.206      345.499       23.073      860.759
10/23/2013  14:54:00       37.982      109.098      115.805       79.483       70.350       69.514     6317.550     4949.094     4832.186        2.142        0.805      115.520       56.287        0.237      345.264       22.669      860.760
10/23/2013  14:55:00       92.579       54.543       78.962       81.796       48.294       55.448     6690.624     2332.322     3074.524        1.494        0.605      107.452       39.016        0.132      344.864       21.986      860.763
10/23/2013  14:56:00       95.227       68.453       91.958       66.702       69.026       44.747     4449.176     4764.579     2002.304        1.671        0.561      117.277       38.762        0.109      344.875       22.004      860.754
10/23/2013  14:57:00       63.763       52.249       23.605       73.205       41.352       47.024     5358.968     1709.954     2211.299        0.832        0.464       82.436       27.828        0.114      345.058       22.316      860.747
10/23/2013  14:58:00       71.923       40.510        9.689       67.294       65.244       48.520     4528.448     4256.761     2354.214        0.902        0.557       82.547       42.821        0.269      345.244       22.634      860.740
10/23/2013  14:59:00       83.634       80.744       48.179       78.194       61.205       60.414     6114.264     3746.111     3649.805        1.467        0.676      116.251       44.280        0.145      345.139       22.455      860.739
10/23/2013  15:00:00       21.509       21.463       52.875       38.686       62.346       41.496     1496.611     3886.988     1721.883        0.541        0.355       30.386       40.597        1.785      345.213       22.582      860.726
10/23/2013  15:01:00       83.003       46.011       15.366       32.992       59.934       35.285     1088.448     3592.072     1245.029        0.758        0.296       94.903       20.522        0.047      344.989       22.200      860.728
10/23/2013  15:02:00       43.780       56.977       60.988       58.413       52.617       38.373     3412.074     2768.596     1472.465        0.827        0.383       71.854       36.484        0.258      345.275       22.689      860.720
10/23/2013  15:03:00       68.826       50.300       22.012       74.983       50.557       41.566     5622.475     2556.050     1727.707        0.883        0.495       85.248       27.021        0.100      345.224       22.602      860.717
10/23/2013  15:04:00        9.563      -32.555        9.783       21.722       27.286       21.762      471.844      744.543      473.595        0.147        0.084       33.930        9.145        0.073      345.477       23.034      860.723
10/23/2013  15:05:00       76.041     -156.993       -9.854       72.174       83.843       31.179     5209.121     7029.650      972.136        2.187        0.661      174.440       37.980        0.047      345.219       22.591      860.715
10/23/2013  15:06:00       75.229     -114.232       -6.549       69.728       70.781       38.446     4862.038     5009.934     1478.086        1.505        0.568      136.778       43.389        0.101      345.158       22.489      860.713
10/23/2013  15:07:00       92.409       -2.294       49.046       74.640      100.653       64.037     5571.071    10131.044     4100.755        1.537        0.990       92.438       74.990        0.658      345.070       22.337      860.717
10/23/2013  15:08:00       80.051      -47.126       25.370       56.664       85.423       49.116     3210.850     7297.154     2412.339        1.109        0.646       92.893       61.580        0.439      345.163       22.496      860.712
10/23/2013  15:09:00       71.833       60.280       60.255       50.467       46.016       33.256     2546.902     2117.463     1105.939        0.910        0.289       93.774       26.116        0.078      345.079       22.355      860.710
10/23/2013  15:10:00       17.876       26.765       55.162       32.268       37.888       23.147     1041.203     1435.531      535.787        0.355        0.151       32.186       19.716        0.375      345.331       22.785      860.709
10/23/2013  15:11:00       81.841       75.244        6.981       35.140       31.184       31.468     1234.807      972.443      990.255        0.780        0.160      111.174       16.449        0.022      344.999       22.217      860.714
10/23/2013  15:12:00       65.106       73.402        2.940       37.761       32.576       35.310     1425.863     1061.203     1246.825        0.668        0.187       98.116       14.456        0.022      345.070       22.338      860.706
10/23/2013  15:13:00      104.239       79.998       12.533       39.312       33.396       39.351     1545.457     1115.316     1548.488        1.082        0.210      131.398       20.081        0.023      345.046       22.296      860.705
10/23/2013  15:14:00      118.780       88.665        7.877       89.167       47.374       41.118     7950.712     2244.342     1690.684        1.696        0.594      148.223       18.353        0.015      345.046       22.294      860.694
10/23/2013  15:15:00      158.461      114.326       24.667       68.756       62.512       50.658     4727.329     3907.746     2566.248        2.499        0.560      195.398       33.375        0.029      345.160       22.489      860.689
10/23/2013  15:16:00      167.566      114.093       28.556       60.949       42.724       51.830     3714.808     1825.383     2686.319        2.507        0.411      202.720       27.071        0.018      345.018       22.247      860.691
10/23/2013  15:17:00      124.842       73.677       10.313       81.808       64.759       43.361     6692.562     4193.718     1880.138        1.694        0.638      144.962       22.905        0.025      345.191       22.544      860.691
10/23/2013  15:18:00      105.162       78.089       10.104       64.996       40.298       38.565     4224.481     1623.948     1487.230        1.230        0.367      130.985       26.569        0.041      345.039       22.284      860.690
10/23/2013  15:19:00       91.348       37.804       18.985       51.042       52.471       30.783     2605.287     2753.206      947.593        0.822        0.315       98.862       20.138        0.041      345.171       22.513      860.676
10/23/2013  15:20:00       97.962       64.205       10.337       52.567       46.037       36.310     2763.334     2119.389     1318.431        1.001        0.310      117.128       27.460        0.055      345.064       22.327      860.668
10/23/2013  15:21:00       35.122       48.098        0.666       31.138       28.488       18.710      969.586      811.569      350.047        0.284        0.107       59.556       17.482        0.086      345.089       22.371      860.660
10/23/2013  15:22:00       -7.353        2.435       15.180       14.924       25.316       31.219      222.740      640.890      974.615        0.106        0.092        7.745       25.286       10.658      345.477       23.034      860.649
10/23/2013  15:23:00       19.555      -15.047       23.048       48.309       56.160       22.943     2333.742     3154.001      526.394        0.358        0.301       24.674       23.085        0.875      345.239       22.627      860.647
10/23/2013  15:24:00       20.119        4.264       16.663       21.920       27.487       15.670      480.492      755.542      245.543        0.109        0.074       20.566       11.456        0.310      345.362       22.839      860.647
10/23/2013  15:25:00       77.990       54.850       35.354       58.643       43.825       48.320     3438.960     1920.598     2334.809        0.902        0.385       95.346       33.867        0.126      345.370       22.850      860.639
10/23/2013  15:26:00       75.033       84.620      109.902       70.490       69.483       57.467     4968.904     4827.939     3302.445        1.898        0.655      113.095       55.679        0.242      345.260       22.662      860.617
10/23/2013  15:27:00       41.698       59.147       44.404       44.042       41.852       36.976     1939.684     1751.566     1367.248        0.613        0.253       72.368       19.935        0.076      345.269       22.678      860.614
10/23/2013  15:28:00       32.730       22.091        0.244       28.751       25.541       15.716      826.599      652.346      246.978        0.164        0.086       39.487       12.419        0.099      345.246       22.641      860.622
10/23/2013  15:29:00       17.229      -17.512       12.926       25.143       28.334       19.548      632.156      802.795      382.139        0.129        0.091       24.566       15.804        0.414      345.349       22.818      860.626
10/23/2013  15:30:00       77.078       -1.204       18.560       53.555       64.431       36.508     2868.094     4151.351     1332.799        0.732        0.418       77.088       33.744        0.192      345.184       22.534      860.623
10/23/2013  15:31:00      144.525       97.445       57.302       91.561       59.379       49.528     8383.457     3525.881     2453.035        2.401        0.718      174.307       44.779        0.066      345.155       22.482      860.610
10/23/2013  15:32:00      116.526       86.091       61.230      107.762      110.516       85.254    11612.744    12213.880     7268.248        2.791        1.555      144.879       50.069        0.119      345.270       22.678      860.600
10/23/2013  15:33:00      144.215       82.484       80.765      108.120       70.760       63.655    11690.011     5006.949     4051.940        2.743        1.037      166.137       62.817        0.143      345.131       22.439      860.592
10/23/2013  15:34:00       50.397       37.511       52.230       68.485       45.353       46.566     4690.237     2056.874     2168.356        0.779        0.446       62.825       33.663        0.287      345.140       22.457      860.588
10/23/2013  15:35:00       70.010       39.084       33.903       73.517       46.515       40.032     5404.678     2163.611     1602.533        0.837        0.459       80.180       22.685        0.080      345.226       22.604      860.583
10/23/2013  15:36:00       31.286       26.222       29.946       44.317       50.016       42.774     1964.018     2501.637     1829.656        0.443        0.315       40.822       33.192        0.661      345.410       22.920      860.578
10/23/2013  15:37:00       37.190       25.654       24.367       56.466       31.744       28.060     3188.410     1007.663      787.367        0.381        0.249       45.180       14.267        0.100      345.395       22.894      860.581
10/23/2013  15:38:00       34.668       -4.556       29.827       33.768       54.638       31.340     1140.293     2985.352      982.188        0.361        0.255       34.966       34.058        0.949      345.450       22.990      860.570
10/23/2013  15:39:00       50.629      -26.288       29.768       87.540       89.231       40.613     7663.252     7962.083     1649.392        1.070        0.864       57.047       60.119        1.111      345.521       23.108      860.566
10/23/2013  15:40:00       96.765      -81.729        8.986       70.388       89.393       50.425     4954.456     7991.193     2542.667        1.580        0.774      126.662       65.532        0.268      345.200       22.557      860.556
10/23/2013  15:41:00       70.393       17.335       86.820       72.866      149.720       69.549     5309.475    22416.189     4837.050        2.267        1.628       72.496       89.565        1.526      345.337       22.793      860.532
10/23/2013  15:42:00      150.639      116.723       62.555       87.790       61.849       61.312     7707.153     3825.323     3759.173        2.776        0.765      190.569       44.449        0.054      345.199       22.556      860.540
10/23/2013  15:43:00       29.560       66.341       74.095       86.426       52.296       48.017     7469.434     2734.913     2305.628        1.164        0.625       72.629       43.138        0.353      345.303       22.736      860.536
10/23/2013  15:44:00       48.164       85.434       78.212       66.815       50.648       56.967     4464.201     2565.180     3245.203        1.300        0.514       98.075       49.322        0.253      345.233       22.617      860.538
10/23/2013  15:45:00       -0.216      -11.319       15.140       38.029       49.909       34.137     1446.189     2490.883     1165.317        0.273        0.255       11.321       29.204        6.654      345.287       22.710      860.539
10/23/2013  15:46:00       22.091      -35.808       -1.345       41.504       78.055       44.935     1722.571     6092.578     2019.192        0.580        0.492       42.074       54.810        1.697      345.175       22.517      860.522
10/23/2013  15:47:00       73.971       69.681        6.250       65.784       40.361       37.935     4327.554     1629.028     1439.056        0.888        0.370      101.623       15.650        0.024      345.159       22.490      860.510
10/23/2013  15:48:00       15.184       29.633       -7.931       25.661       23.222       19.430      658.489      539.248      377.511        0.137        0.079       33.297       12.038        0.131      345.190       22.544      860.504
10/23/2013  15:49:00       24.981        7.057        9.907       12.092       12.602       13.534      146.218      158.806      183.163        0.063        0.024       25.959        7.607        0.086      345.214       22.584      860.498
10/23/2013  15:50:00      -14.780        9.993       20.547       37.532       28.501       21.449     1408.679      812.312      460.078        0.171        0.134       17.841       17.373        0.948      345.664       23.356      860.491
10/23/2013  15:51:00       13.635     -124.629      -25.760       59.382       85.727       43.038     3526.251     7349.114     1852.304        1.455        0.636      125.372       29.689        0.056      345.461       23.006      860.486
10/23/2013  15:52:00      106.614     -232.002      -21.271       77.990       93.079       54.746     6082.405     8663.746     2997.166        4.169        0.887      255.326       47.361        0.034      345.086       22.361      860.492
10/23/2013  15:53:00       94.888      -75.260       37.386       73.076      114.731       71.709     5340.076    13163.269     5142.187        1.985        1.182      121.111       80.801        0.445      345.335       22.791      860.502
10/23/2013  15:54:00      132.276      149.892      136.916      101.528       93.764       73.243    10307.881     8791.700     5364.470        4.158        1.223      199.912       62.082        0.096      345.186       22.533      860.528
10/23/2013  15:55:00       95.607       94.716       63.303       81.489       59.095       34.642     6640.380     3492.258     1200.045        1.672        0.567      134.581       21.082        0.025      345.194       22.549      860.532
10/23/2013  15:56:00      101.380       72.825       63.817       84.329       59.559       49.169     7111.300     3547.317     2417.619        1.636        0.654      124.826       45.852        0.135      345.358       22.831      860.525
10/23/2013  15:57:00       38.825        1.713       45.274       61.627       43.473       28.527     3797.915     1889.904      813.763        0.503        0.325       38.863       24.143        0.386      345.316       22.759      860.529
10/23/2013  15:58:00       87.449       55.693       17.515       50.459       40.524       31.868     2546.124     1642.226     1015.541        0.813        0.260      103.677       14.500        0.020      345.257       22.658      860.525
10/23/2013  15:59:00       75.753       70.362       56.769       65.910       63.696       62.700     4344.149     4057.239     3931.294        1.312        0.617      103.389       56.675        0.300      345.303       22.736      860.512
10/23/2013  16:00:00      107.239       61.921       60.798      101.178       58.631       57.278    10236.938     3437.568     3280.770        1.799        0.848      123.832       52.439        0.179      345.283       22.701      860.501
10/23/2013  16:01:00       63.778       77.099       54.362       93.964       80.697       67.160     8829.301     6512.045     4510.482        1.641        0.993      100.059       60.952        0.371      345.315       22.757      860.502
10/23/2013  16:02:00       57.685       52.816       41.524       70.757       52.400       47.935     5006.537     2745.781     2297.794        0.894        0.503       78.212       31.108        0.158      345.379       22.867      860.508
10/23/2013  16:03:00      125.068       77.076       61.960       96.878       70.347       72.894     9385.332     4948.670     5313.535        2.253        0.982      146.910       67.262        0.210      345.316       22.757      860.503
10/23/2013  16:04:00      129.118       72.369       38.452       68.431       49.653       41.498     4682.822     2465.384     1722.051        1.613        0.444      148.016       31.393        0.045      345.216       22.588      860.501
10/23/2013  16:05:00      110.018       56.660       23.081       37.179       43.372       34.229     1382.285     1881.150     1171.625        1.014        0.222      123.751       21.372        0.030      345.250       22.644      860.512
10/23/2013  16:06:00      142.892       63.027       35.540      102.062       53.477       47.144    10416.564     2859.762     2222.599        2.057        0.775      156.174       37.532        0.058      345.340       22.799      860.518
10/23/2013  16:07:00      181.023       93.838       69.818       88.358       67.955       55.900     7807.189     4617.874     3124.768        3.100        0.777      203.899       45.233        0.049      345.344       22.804      860.525
10/23/2013  16:08:00      216.136      133.823       38.697       90.839       68.888       59.506     8251.635     4745.517     3540.944        4.133        0.827      254.212       43.284        0.029      345.237       22.620      860.524
10/23/2013  16:09:00      168.262      135.261       12.430       81.945       56.526       55.812     6715.020     3195.225     3114.994        2.989        0.651      215.888       34.639        0.026      345.113       22.409      860.517
10/23/2013  16:10:00      167.471       92.449       29.559       79.262       60.578       50.525     6282.516     3669.724     2552.756        2.498        0.625      191.294       30.290        0.025      345.205       22.566      860.510
10/23/2013  16:11:00      173.853       95.090       47.066      103.690       66.249       57.282    10751.524     4388.935     3281.253        2.995        0.921      198.159       55.594        0.079      345.280       22.694      860.508
10/23/2013  16:12:00      103.055      -40.441       37.018      103.665       99.510       53.691    10746.457     9902.187     2882.762        1.857        1.177      110.706       47.293        0.182      345.293       22.719      860.521
10/23/2013  16:13:00      102.344      113.987      117.605       93.404       81.904       85.186     8724.295     6708.292     7256.721        2.999        1.134      153.191       73.150        0.228      345.132       22.443      860.524
10/23/2013  16:14:00       56.021      -34.841       34.138       69.261      102.176       44.981     4797.024    10440.032     2023.305        1.139        0.863       65.971       52.386        0.631      345.211       22.579      860.519
10/23/2013  16:15:00       79.122       36.987       53.027       71.161       33.542       33.511     5063.887     1125.036     1122.991        0.887        0.366       87.340       21.509        0.061      345.327       22.778      860.519
10/23/2013  16:16:00       88.127      -94.681       13.126       69.630       64.104       42.750     4848.379     4109.350     1827.595        1.384        0.539      129.348       41.106        0.101      345.327       22.776      860.502
10/23/2013  16:17:00      110.107       68.429       31.939       80.430       93.756       66.972     6469.016     8790.203     4485.280        1.878        0.987      129.639       46.936        0.131      345.255       22.652      860.519
10/23/2013  16:18:00      168.861      109.920       75.900      119.890       86.936       69.949    14373.724     7557.785     4892.838        3.659        1.341      201.486       54.792        0.074      345.199       22.556      860.502
10/23/2013  16:19:00      172.651       77.941       60.272      146.611       87.258       72.947    21494.924     7613.917     5321.280        3.697        1.722      189.428       70.280        0.138      345.217       22.587      860.493
10/23/2013  16:20:00      195.850      110.360       19.162       88.659       79.817       60.682     7860.449     6370.762     3682.327        3.441        0.896      224.803       41.468        0.034      345.206       22.569      860.496
10/23/2013  16:21:00      168.966       95.278       63.994      133.845       85.243       63.214    17914.531     7266.397     3996.055        3.544        1.459      193.977       54.398        0.079      345.128       22.436      860.503
10/23/2013  16:22:00      208.511       94.725      105.650      141.322      132.951      114.856    19971.943    17675.966    13191.813        5.722        2.542      229.019      110.536        0.233      345.037       22.277      860.500
10/23/2013  16:23:00       76.106       51.915       88.634       97.333       89.429       66.995     9473.641     7997.618     4488.342        1.915        1.098       92.127       65.600        0.507      345.111       22.406      860.505
10/23/2013  16:24:00       46.429       24.967       71.770       73.154       89.212       62.130     5351.492     7958.798     3860.100        1.255        0.859       52.716       46.473        0.777      345.257       22.657      860.486
10/23/2013  16:25:00       85.906     -165.647      -12.720       76.947       93.588       44.399     5920.809     8758.648     1971.269        2.581        0.833      186.598       35.719        0.037      345.312       22.750      860.471
10/23/2013  16:26:00      108.557     -142.721      -11.742       62.725       97.486       46.933     3934.400     9503.471     2202.680        2.396        0.782      179.315       50.375        0.079      345.273       22.681      860.458
10/23/2013  16:27:00       45.079      -32.026       28.572       53.810       66.442       39.535     2895.505     4414.514     1563.032        0.637        0.444       55.297       32.443        0.344      345.333       22.789      860.459
10/23/2013  16:28:00       36.145       56.647       46.730       52.447       56.742       49.083     2750.682     3219.603     2409.140        0.754        0.419       67.197       38.063        0.321      345.302       22.735      860.466
10/23/2013  16:29:00       85.840       42.641       19.624       50.124       41.211       36.368     2512.451     1698.343     1322.658        0.755        0.277       95.848       11.587        0.015      345.173       22.514      860.448
10/23/2013  16:30:00      131.770       85.612        6.135       97.464       62.951       41.502     9499.234     3962.833     1722.446        1.995        0.759      157.140       29.406        0.035      345.132       22.443      860.439
10/23/2013  16:31:00      117.823       73.054       18.227       80.711       46.437       37.531     6514.301     2156.373     1408.581        1.481        0.504      138.633       29.039        0.044      345.212       22.579      860.458
10/23/2013  16:32:00      107.580       77.358       60.058       64.820       54.636       49.349     4201.688     2985.140     2435.325        1.539        0.481      132.506       31.795        0.058      345.232       22.616      860.442
10/23/2013  16:33:00      161.730       99.046       33.932      101.731       82.459       65.645    10349.280     6799.466     4309.212        2.928        1.073      189.649       55.479        0.086      345.141       22.457      860.434
10/23/2013  16:34:00      208.714       95.336       72.147      137.968      111.447       87.412    19035.211    12420.425     7640.880        4.847        1.955      229.457       66.324        0.084      345.096       22.381      860.431
10/23/2013  16:35:00      105.358       90.425       94.307      110.915       80.034       85.741    12302.115     6405.414     7351.559        2.711        1.303      138.841       63.795        0.211      345.108       22.400      860.429
10/23/2013  16:36:00      152.997       76.658       50.191       88.864       72.416       53.320     7896.868     5244.006     2843.072        2.389        0.799      171.128       41.587        0.059      345.066       22.330      860.450
10/23/2013  16:37:00      153.230       60.559       19.416       86.916       67.439       56.639     7554.415     4548.063     3207.961        2.141        0.766      164.763       53.630        0.106      345.088       22.367      860.453
10/23/2013  16:38:00      150.932       54.780       42.977      125.387       83.690       61.099    15721.979     7004.056     3733.112        2.704        1.323      160.566       42.303        0.069      345.129       22.438      860.453
10/23/2013  16:39:00      137.416       84.790       75.949       92.618       78.128       58.886     8578.071     6103.941     3467.565        2.499        0.907      161.470       56.093        0.121      345.086       22.364      860.442
10/23/2013  16:40:00      162.058       34.617       44.639       98.805       75.387       56.143     9762.416     5683.185     3152.032        2.402        0.930      165.714       42.885        0.067      345.085       22.362      860.435
10/23/2013  16:41:00       85.751       45.892       42.557       61.109       57.448       44.474     3734.369     3300.315     1977.974        1.014        0.451       97.259       36.329        0.140      345.127       22.435      860.424
10/23/2013  16:42:00       41.006       59.488       61.971       66.264       51.756       42.664     4390.882     2678.677     1820.188        0.897        0.444       72.252       45.905        0.404      345.217       22.591      860.421
10/23/2013  16:43:00       86.981       49.442       23.438       56.476       45.852       39.972     3189.520     2102.391     1597.763        0.872        0.344      100.051       13.625        0.019      345.206       22.569      860.425
10/23/2013  16:44:00      100.868       73.183        5.689       76.773       53.957       40.168     5894.049     2911.371     1613.449        1.299        0.521      124.619       28.316        0.052      345.058       22.316      860.421
10/23/2013  16:45:00       85.614       54.990       11.941       55.119       64.026       44.800     3038.102     4099.281     2007.015        0.982        0.457      101.753       37.155        0.133      345.075       22.346      860.414
10/23/2013  16:46:00      192.645      159.406       15.350      130.875       97.282       71.864    17128.194     9463.769     5164.397        4.725        1.588      250.045       44.280        0.031      345.013       22.238      860.420
10/23/2013  16:47:00      206.521      149.053       28.095       66.364       66.580       62.625     4404.212     4432.854     3921.868        3.921        0.638      254.692       33.605        0.017      344.963       22.151      860.421
10/23/2013  16:48:00      111.440       73.123       47.882       93.581       76.301       49.511     8757.465     5821.881     2451.322        1.854        0.852      133.289       47.355        0.126      345.013       22.239      860.417
10/23/2013  16:49:00      163.847       92.978       23.850       53.998       42.735       46.334     2915.753     1826.320     2146.815        2.147        0.344      188.390       24.788        0.017      344.939       22.110      860.409
10/23/2013  16:50:00       57.471       30.156       22.492       50.450       36.442       30.980     2545.189     1328.041      959.752        0.477        0.242       64.903       24.073        0.138      345.013       22.240      860.393
10/23/2013  16:51:00       52.913      118.797       -9.409       57.042       63.918       41.799     3253.738     4085.559     1747.164        1.304        0.454      130.049       41.623        0.102      345.059       22.320      860.384
10/23/2013  16:52:00       65.767       58.414        4.771       67.141       44.590       38.959     4507.974     1988.269     1517.838        0.789        0.401       87.963       28.997        0.109      345.112       22.410      860.375
10/23/2013  16:53:00       14.879      171.228      -35.735       50.612       86.563       29.952     2561.524     7493.067      897.121        2.088        0.548      171.874       41.943        0.060      345.045       22.293      860.364
10/23/2013  16:54:00       20.976      184.910      -34.966       42.478       48.498       21.927     1804.373     2352.040      480.790        2.024        0.232      186.096       24.301        0.017      345.050       22.304      860.353
10/23/2013  16:55:00       13.790       92.748       -7.268       46.778       76.522       31.037     2188.195     5855.627      963.266        0.892        0.450       93.768       38.987        0.173      345.029       22.268      860.344
10/23/2013  16:56:00        8.145       57.807        6.672       23.763       30.067       24.795      564.660      904.042      614.809        0.277        0.104       58.378       18.202        0.097      345.003       22.224      860.345
10/23/2013  16:57:00       79.901       78.295       -1.186       69.766       57.706       37.053     4867.237     3329.946     1372.904        1.104        0.479      111.867       26.905        0.058      344.975       22.176      860.333
10/23/2013  16:58:00       68.635       66.077       -9.789       39.179       73.608       30.864     1534.977     5418.148      952.563        0.854        0.395       95.273       34.625        0.132      344.979       22.182      860.331
10/23/2013  16:59:00       48.275      -19.379       14.479       41.168       39.585       26.940     1694.824     1566.961      725.778        0.345        0.199       52.020       26.184        0.253      345.136       22.451      860.334
10/23/2013  17:00:00      103.508      -89.001        0.990       76.262       95.888       43.328     5815.968     9194.581     1877.275        1.776        0.844      136.510       54.609        0.160      345.134       22.446      860.325
10/23/2013  17:01:00       77.977       -7.963       50.807       93.658       75.841       51.041     8771.884     5751.921     2605.143        1.292        0.856       78.383       51.605        0.433      345.123       22.428      860.319
10/23/2013  17:02:00       46.719       13.506       54.982       71.773       76.163       37.897     5151.313     5800.869     1436.173        0.889        0.619       48.632       46.034        0.896      345.063       22.324      860.315
10/23/2013  17:03:00       77.914       51.344       14.151       50.142       41.502       30.927     2514.250     1722.429      956.486        0.705        0.260       93.310       22.086        0.056      344.986       22.193      860.301
10/23/2013  17:04:00      121.010       41.294       11.363       37.487       34.722       33.803     1405.297     1205.591     1142.619        1.011        0.188      127.862       25.340        0.039      345.006       22.230      860.295
10/23/2013  17:05:00       18.399       56.591       77.340       54.757       46.279       33.872     2998.309     2141.726     1147.343        0.790        0.314       59.507       29.792        0.251      345.067       22.333      860.301
10/23/2013  17:06:00       81.668      -69.748       12.133       58.079       53.606       36.500     3373.219     2873.567     1332.260        0.963        0.379      107.399       38.430        0.128      345.074       22.346      860.294
10/23/2013  17:07:00       37.676      -41.757       18.181       56.280       73.956       36.748     3167.382     5469.553     1350.436        0.674        0.499       56.242       44.537        0.627      345.056       22.314      860.290
10/23/2013  17:08:00        6.658       -8.191       34.262       32.266       46.208       35.288     1041.103     2135.197     1245.243        0.285        0.221       10.556       19.935        3.567      345.092       22.375      860.291
10/23/2013  17:09:00       51.211      -64.518        6.624       47.120       59.610       33.444     2220.288     3553.335     1118.497        0.686        0.345       82.372       33.051        0.161      345.042       22.291      860.285
10/23/2013  17:10:00       61.197      -53.840        5.025       43.529       59.491       28.609     1894.766     3539.198      818.453        0.646        0.313       81.510       30.564        0.141      345.018       22.248      860.271
10/23/2013  17:11:00       47.315        6.006       32.545       38.387       53.384       48.282     1473.537     2849.858     2331.171        0.499        0.333       47.694       45.137        0.896      344.966       22.159      860.272
10/23/2013  17:12:00       67.361      -58.042       23.098       65.728       89.204       49.049     4320.110     7957.279     2405.816        1.156        0.734       88.918       57.330        0.416      345.098       22.387      860.256
10/23/2013  17:13:00       58.150       -1.416       67.031       66.703      108.339       56.272     4449.250    11737.443     3166.549        1.361        0.968       58.167       75.866        1.701      345.094       22.378      860.259
10/23/2013  17:14:00       31.267       57.430       72.220       36.225       44.770       26.125     1312.225     2004.357      682.524        0.674        0.200       65.389       25.311        0.150      345.014       22.242      860.271
10/23/2013  17:15:00       53.483        7.011       17.789       48.654       37.746       26.808     2367.239     1424.780      718.652        0.387        0.226       53.940       23.196        0.185      344.973       22.171      860.276
10/23/2013  17:16:00       56.753       44.794       62.444       59.210       42.209       34.637     3505.804     1781.623     1199.728        0.781        0.324       72.301       32.066        0.197      344.930       22.098      860.278
10/23/2013  17:17:00       69.190        3.392       50.534       70.411       59.364       43.626     4957.687     3524.044     1903.253        0.887        0.519       69.273       36.372        0.276      344.950       22.132      860.270
10/23/2013  17:18:00       45.558       17.252       60.960       70.792       92.915       49.915     5011.516     8633.172     2491.464        1.111        0.807       48.715       61.780        1.608      344.960       22.149      860.261
10/23/2013  17:19:00      130.647       53.822       38.670       51.005       37.694       35.423     2601.557     1420.849     1254.806        1.337        0.264      141.299       30.400        0.046      344.914       22.071      860.274
10/23/2013  17:20:00       79.809       26.775       42.870       79.030       50.078       45.791     6245.816     2507.817     2096.784        0.989        0.543       84.181       37.200        0.195      344.895       22.038      860.278
10/23/2013  17:21:00      174.674       55.876       50.669       90.332       86.916       59.828     8159.955     7554.365     3579.367        2.774        0.965      183.393       55.453        0.091      344.857       21.971      860.272
10/23/2013  17:22:00      260.967      131.485       26.719      103.733       94.298       70.931    10760.628     8892.200     5031.225        5.539        1.234      292.219       45.444        0.024      344.744       21.777      860.269
10/23/2013  17:23:00      126.268       57.468       51.479       99.527       84.647       72.166     9905.605     7165.149     5207.998        2.208        1.114      138.731       56.827        0.168      344.734       21.762      860.261
10/23/2013  17:24:00      101.081       56.809       66.163       80.657       64.443       58.555     6505.481     4152.838     3428.680        1.595        0.704      115.951       47.316        0.167      344.705       21.713      860.275
10/23/2013  17:25:00      183.056       79.272       47.494       94.990       91.167       72.806     9023.187     8311.444     5300.778        3.234        1.132      199.484       64.143        0.103      344.704       21.709      860.266
10/23/2013  17:26:00       95.259       75.471       77.205       52.573       64.265       43.952     2763.907     4129.931     1931.743        1.478        0.441      121.533       25.729        0.045      344.695       21.697      860.268
10/23/2013  17:27:00      158.656       85.370       28.240       55.469       57.681       41.452     3076.829     3327.086     1718.291        2.069        0.406      180.166       33.459        0.034      344.681       21.670      860.276
10/23/2013  17:28:00      113.187       42.793        9.387       74.083       53.997       42.129     5488.252     2915.680     1774.884        1.245        0.509      121.007       26.769        0.049      344.657       21.631      860.277
10/23/2013  17:29:00      150.107      103.246       40.405       87.838       59.703       48.584     7715.518     3564.454     2360.452        2.423        0.682      182.186       22.691        0.016      344.656       21.627      860.280
10/23/2013  17:30:00      192.958       85.907       27.854       83.428       54.587       44.511     6960.195     2979.741     1981.226        2.865        0.596      211.218       21.838        0.011      344.671       21.652      860.287
10/23/2013  17:31:00      121.344       67.833       34.808       72.624       52.137       48.754     5274.311     2718.262     2376.951        1.545        0.518      139.017       39.331        0.080      344.635       21.593      860.281
10/23/2013  17:32:00      139.010       86.178       34.980       50.779       41.280       39.336     2578.500     1704.004     1547.331        1.690        0.291      163.556       28.489        0.030      344.687       21.683      860.283
10/23/2013  17:33:00       60.437       22.370       14.528       74.159       62.441       47.788     5499.548     3898.889     2283.739        0.802        0.584       64.444       29.563        0.210      344.651       21.621      860.271
10/23/2013  17:34:00      118.411       74.000       38.774       68.913       49.365       39.576     4748.951     2436.941     1566.247        1.487        0.438      139.632       30.444        0.048      344.699       21.703      860.265
10/23/2013  17:35:00       95.784       66.926       35.608       45.035       32.746       33.688     2028.159     1072.272     1134.896        0.958        0.212      116.849       22.745        0.038      344.630       21.585      860.269
10/23/2013  17:36:00      117.834       58.844       42.381       74.751       71.378       42.722     5587.786     5094.881     1825.171        1.582        0.625      131.710       24.440        0.034      344.589       21.514      860.267
10/23/2013  17:37:00      174.609       81.873       23.865       93.781       69.184       52.350     8794.796     4786.492     2740.558        2.704        0.816      192.851       44.228        0.053      344.556       21.456      860.267
10/23/2013  17:38:00      237.932      132.513       39.299       96.500       82.233       55.938     9312.247     6762.259     3129.097        4.746        0.960      272.344       20.515        0.006      344.545       21.437      860.269
10/23/2013  17:39:00      112.236       77.767       61.030       78.101       78.984       49.188     6099.730     6238.525     2419.470        1.856        0.738      136.545       36.435        0.071      344.476       21.321      860.275
10/23/2013  17:40:00      125.555       55.181       43.439      125.394       83.486       70.644    15723.632     6969.951     4990.605        2.419        1.384      137.146       68.293        0.248      344.501       21.363      860.272
10/23/2013  17:41:00      165.455       84.568       44.177       96.364       77.022       50.744     9286.080     5932.453     2574.929        2.713        0.890      185.815       46.434        0.062      344.507       21.372      860.277
10/23/2013  17:42:00      137.521       70.321       35.900       70.541       39.869       41.621     4976.065     1589.566     1732.291        1.672        0.415      154.457       36.814        0.057      344.474       21.316      860.286
10/23/2013  17:43:00      131.335       42.667       23.293       61.227       45.528       42.926     3748.702     2072.841     1842.618        1.364        0.383      138.091       33.712        0.060      344.442       21.262      860.294
10/23/2013  17:44:00      140.494       31.809       21.007       73.825       48.066       43.089     5450.166     2310.385     1856.703        1.540        0.481      144.050       36.432        0.064      344.406       21.200      860.293
10/23/2013  17:45:00      146.353      107.303       74.482      115.009       79.777       63.710    13227.044     6364.362     4058.908        3.106        1.183      181.475       41.612        0.053      344.442       21.261      860.284
10/23/2013  17:46:00      173.660       39.561       41.160       90.931       86.447       53.464     8268.491     7473.027     2858.383        2.601        0.930      178.109       48.556        0.074      344.492       21.346      860.290
10/23/2013  17:47:00       51.237       25.689       42.661       81.781       55.626       42.909     6688.077     3094.202     1841.219        0.836        0.581       57.316       43.070        0.565      344.417       21.220      860.293
10/23/2013  17:48:00      104.247       26.015       54.737       82.543       67.114       43.396     6813.356     4504.309     1883.184        1.387        0.660      107.444       38.542        0.129      344.372       21.144      860.296
10/23/2013  17:49:00      150.697       66.395       35.064       76.757       49.471       62.164     5891.622     2447.336     3864.348        2.027        0.610      164.675       39.336        0.057      344.426       21.236      860.290
10/23/2013  17:50:00      176.606       64.151       22.587       57.244       47.532       39.324     3276.885     2259.262     1546.377        2.145        0.354      187.897       31.037        0.027      344.363       21.127      860.292
10/23/2013  17:51:00      159.620       55.175        8.559       96.256       63.598       54.193     9265.189     4044.759     2936.898        2.242        0.812      168.887       43.635        0.067      344.340       21.087      860.293
10/23/2013  17:52:00      139.426       72.272       49.808      102.718       58.475       49.128    10551.072     3419.380     2413.525        2.176        0.819      157.044       53.191        0.115      344.323       21.058      860.303
10/23/2013  17:53:00       89.240       70.693       86.702       69.934       49.716       44.688     4890.771     2471.661     1996.997        1.492        0.468      113.848       41.288        0.132      344.277       20.982      860.300
10/23/2013  17:54:00      145.350       64.929       39.857       80.633       48.504       51.911     6501.754     2352.665     2694.761        1.924        0.577      159.193       25.291        0.025      344.262       20.954      860.314
10/23/2013  17:55:00      140.921       19.332       23.268       79.049       60.642       44.902     6248.693     3677.453     2016.183        1.636        0.597      142.241       22.116        0.024      344.240       20.916      860.325
10/23/2013  17:56:00      117.999       29.625       22.025       93.628       73.761       49.723     8766.194     5440.649     2472.390        1.598        0.834      121.661       36.889        0.092      344.208       20.863      860.335
10/23/2013  17:57:00       77.881       23.035       22.529       74.226       59.589       46.889     5509.515     3550.895     2198.563        0.918        0.563       81.217       44.083        0.295      344.155       20.773      860.346
10/23/2013  17:58:00      112.452       51.803       18.603       62.951       41.625       38.043     3962.876     1732.614     1447.250        1.141        0.357      123.811       25.629        0.043      344.067       20.622      860.350
10/23/2013  17:59:00      136.824       88.638       50.852       56.559       41.894       40.518     3198.875     1755.129     1641.740        1.788        0.330      163.026       26.647        0.027      344.135       20.738      860.351
10/23/2013  18:00:00      117.856       41.604       31.030       37.750       32.431       32.689     1425.069     1051.784     1068.593        1.006        0.177      124.984       21.076        0.028      344.019       20.541      860.362
10/23/2013  18:01:00      150.294       69.488       46.646       61.470       59.805       37.895     3778.592     3576.621     1436.030        1.919        0.440      165.580       24.646        0.022      344.128       20.726      860.354
10/23/2013  18:02:00      111.569       39.145        5.551       52.465       33.965       28.946     2752.624     1153.602      837.898        0.938        0.237      118.237       22.418        0.036      343.950       20.422      860.358
10/23/2013  18:03:00       74.109       37.936       23.060       70.600       38.267       45.413     4984.367     1464.353     2062.386        0.799        0.426       83.254       35.594        0.183      343.912       20.358      860.365
10/23/2013  18:04:00      103.520       63.132       26.640       49.942       43.400       32.750     2494.210     1883.531     1072.593        1.043        0.273      121.252       18.290        0.023      343.966       20.450      860.366
10/23/2013  18:05:00      107.305       49.084       32.580       59.919       28.359       30.167     3590.327      804.260      910.030        1.014        0.265      117.999       28.802        0.060      343.927       20.384      860.363
10/23/2013  18:06:00       69.224       27.646        5.662       27.429       25.223       19.959      752.335      636.206      398.360        0.369        0.089       74.540       12.315        0.027      343.803       20.171      860.384
10/23/2013  18:07:00       27.566       21.612       21.639       29.412       26.939       23.456      865.065      725.725      550.201        0.192        0.107       35.027       17.896        0.261      343.741       20.066      860.391
10/23/2013  18:08:00       85.077       46.140       32.100       27.107       36.638       32.271      734.787     1342.341     1041.444        0.676        0.156       96.783       19.406        0.040      343.836       20.229      860.389
10/23/2013  18:09:00       70.126       15.188       20.856       54.959       27.456       30.563     3020.504      753.822      934.092        0.515        0.235       71.752       30.288        0.178      343.760       20.097      860.403
10/23/2013  18:10:00       58.729       36.580       33.300       40.242       30.818       25.945     1619.403      949.747      673.168        0.457        0.162       69.190       25.141        0.132      343.732       20.051      860.405
10/23/2013  18:11:00       80.641       45.728       12.896       42.616       56.064       31.956     1816.085     3143.183     1021.159        0.737        0.299       92.704       28.123        0.092      343.773       20.120      860.405
10/23/2013  18:12:00       92.307       52.754       27.799       50.176       35.901       26.593     2517.667     1288.860      707.176        0.829        0.226      106.318       17.736        0.028      343.754       20.088      860.412
10/23/2013  18:13:00       92.894       49.945       14.950       47.615       32.994       29.400     2267.148     1088.625      864.371        0.778        0.211      105.469       15.164        0.021      343.775       20.123      860.419
10/23/2013  18:14:00       75.529       42.032       38.868       58.330       46.299       34.349     3402.430     2143.580     1179.824        0.785        0.336       86.437       25.113        0.084      343.725       20.038      860.436
10/23/2013  18:15:00      134.481       61.445       19.169       54.758       41.406       28.352     2998.470     1714.423      803.825        1.387        0.276      147.853       15.719        0.011      343.847       20.247      860.437
10/23/2013  18:16:00      100.735       54.202       23.002       66.469       46.258       30.890     4418.087     2139.834      954.176        1.056        0.376      114.391       30.242        0.070      343.702       19.999      860.456
10/23/2013  18:17:00       80.404       36.604       16.754       32.344       26.356       25.176     1046.135      694.649      633.834        0.523        0.119       88.344       18.880        0.046      343.603       19.830      860.460
10/23/2013  18:18:00       96.215       69.195       30.999       29.047       22.056       23.616      843.714      486.475      557.706        0.845        0.094      118.513       15.831        0.018      343.790       20.152      860.476
10/23/2013  18:19:00       93.339       69.295       19.816       28.969       42.434       25.132      839.227     1800.616      631.594        0.859        0.164      116.250       20.496        0.031      343.694       19.986      860.482
10/23/2013  18:20:00       97.397       53.443       26.606       27.995       26.702       19.815      783.730      712.975      392.633        0.747        0.094      111.096       13.240        0.014      343.639       19.891      860.496
10/23/2013  18:21:00       73.316       41.694       19.011       43.429       32.122       24.575     1886.065     1031.807      603.916        0.550        0.176       84.343       18.369        0.047      343.630       19.876      860.497
10/23/2013  18:22:00       71.844       43.939       18.816       41.751       26.764       23.066     1743.138      716.301      532.031        0.522        0.150       84.215       13.077        0.024      343.623       19.863      860.501
10/23/2013  18:23:00      117.975       49.743       11.299       70.975       40.998       36.240     5037.434     1680.845     1313.334        1.227        0.402      128.033       39.444        0.095      343.760       20.099      860.498
10/23/2013  18:24:00       63.546       22.727        6.679       45.725       40.541       30.524     2090.740     1643.611      931.728        0.463        0.233       67.488       17.303        0.066      343.554       19.747      860.516
10/23/2013  18:25:00       76.317       70.403        4.694       47.479       38.094       34.559     2254.292     1451.167     1194.327        0.785        0.245      103.831       21.954        0.045      343.799       20.165      860.511
10/23/2013  18:26:00       68.788       53.715       -4.816       37.825       38.891       29.693     1430.725     1512.501      881.693        0.573        0.191       87.276       19.809        0.052      343.663       19.933      860.528
10/23/2013  18:27:00       80.920       62.131       20.665       45.911       35.582       35.635     2107.795     1266.046     1269.872        0.774        0.232      102.022       24.835        0.059      343.610       19.843      860.532
10/23/2013  18:28:00      100.353       63.624       13.040       30.327       29.718       25.330      919.744      883.135      641.628        0.837        0.122      118.822       17.634        0.022      343.645       19.902      860.545
10/23/2013  18:29:00       79.327       29.450       20.956       22.923       20.462       19.011      525.459      418.684      361.421        0.445        0.065       84.618       13.431        0.025      343.496       19.649      860.544
10/23/2013  18:30:00       45.329       24.120        8.783       21.329       20.741       15.789      454.907      430.183      249.299        0.192        0.057       51.347        9.796        0.036      343.431       19.538      860.554
10/23/2013  18:31:00       61.593       37.830       14.405       28.120       18.997       18.437      790.754      360.898      339.907        0.346        0.075       72.283       13.165        0.033      343.388       19.465      860.559
10/23/2013  18:32:00       85.205       49.738       29.543       28.656       24.735       26.745      821.147      611.841      715.317        0.638        0.107       98.660       13.462        0.019      343.475       19.613      860.571
10/23/2013  18:33:00       39.502        4.591        8.202       50.097       51.227       18.927     2509.728     2624.210      358.243        0.357        0.275       39.768       17.540        0.195      343.470       19.604      860.572
10/23/2013  18:34:00       42.716       18.348        9.068       29.357       21.437       18.435      861.862      459.549      339.850        0.195        0.083       46.490       11.794        0.064      343.471       19.606      860.593
10/23/2013  18:35:00        8.870       15.413       12.854       15.806       26.149       18.042      249.816      683.786      325.531        0.087        0.063       17.783       13.089        0.542      343.382       19.454      860.592
10/23/2013  18:36:00       26.095       11.835        0.269       16.753       22.616       13.712      280.653      511.477      188.024        0.090        0.049       28.654       12.598        0.193      343.437       19.550      860.605
10/23/2013  18:37:00       48.348       26.301        9.836       51.717       42.660       25.907     2674.658     1819.882      671.150        0.415        0.258       55.039       18.134        0.109      343.427       19.531      860.610
10/23/2013  18:38:00       99.433       60.000       12.286       47.191       28.617       28.070     2227.034      818.925      787.913        0.874        0.192      116.134        7.507        0.004      343.558       19.755      860.623
10/23/2013  18:39:00       42.576       28.998       11.696       21.087       19.740       14.529      444.682      389.649      211.091        0.192        0.052       51.513        8.361        0.026      343.424       19.526      860.635
10/23/2013  18:40:00       50.687       28.874       18.877       23.967       15.166       14.558      574.432      230.014      211.928        0.239        0.051       58.334        9.200        0.025      343.421       19.521      860.649
10/23/2013  18:41:00       56.038       31.899        9.228       24.580       18.840       17.640      604.177      354.931      311.156        0.276        0.064       64.481        9.880        0.023      343.325       19.355      860.663
10/23/2013  18:42:00       37.716       16.894        8.012       19.078       11.207       11.122      363.962      125.600      123.693        0.119        0.031       41.327        7.495        0.033      343.322       19.350      860.681
10/23/2013  18:43:00       27.760       33.394       -8.262       29.838       18.825       13.058      890.314      354.381      170.509        0.168        0.071       43.426        7.679        0.031      343.389       19.465      860.683
10/23/2013  18:44:00        4.992       36.625      -13.595       11.177       10.304        7.448      124.931      106.173       55.479        0.092        0.014       36.964        5.934        0.026      343.469       19.602      860.697
10/23/2013  18:45:00        2.061       58.535      -12.195       23.306       26.419       11.483      543.183      697.977      131.867        0.248        0.069       58.571       11.570        0.039      343.491       19.640      860.712
10/23/2013  18:46:00      -15.333       58.027      -13.640       20.843       24.018        9.824      434.414      576.880       96.512        0.245        0.055       60.019        8.472        0.020      343.523       19.696      860.724
10/23/2013  18:47:00      -20.360       62.777      -14.729       22.093       17.501       10.417      488.089      306.300      108.524        0.274        0.045       65.996        9.828        0.022      343.511       19.675      860.734
10/23/2013  18:48:00      -22.042       72.916      -20.642       25.499       15.318        9.298      650.184      234.636       86.457        0.360        0.049       76.175        7.386        0.009      343.544       19.729      860.747
10/23/2013  18:49:00      -38.455       49.444      -15.040       15.616       18.861        9.051      243.855      355.734       81.928        0.242        0.034       62.637        4.736        0.006      343.483       19.627      860.763
10/23/2013  18:50:00      -53.195       33.478      -22.313       23.360       30.253       14.642      545.701      915.238      214.394        0.306        0.084       62.853       14.392        0.052      343.512       19.674      860.775
10/23/2013  18:51:00      -55.467       -8.014       -7.700       29.319       31.236       16.303      859.617      975.660      265.778        0.265        0.105       56.043       15.736        0.079      343.038       18.868      860.800
10/23/2013  18:52:00      -80.513      -16.118       -9.751       28.786       21.017       17.189      828.629      441.714      295.447        0.420        0.078       82.111       12.810        0.024      342.900       18.632      860.807
10/23/2013  18:53:00     -109.514      -15.475      -13.360       28.309       29.330       20.288      801.421      860.240      411.612        0.724        0.104      110.602       10.327        0.009      342.908       18.647      860.816
10/23/2013  18:54:00     -138.599      -35.668      -19.130       25.083       18.618       13.646      629.157      346.617      186.222        1.100        0.058      143.115       12.019        0.007      342.726       18.335      860.820
10/23/2013  18:55:00     -115.366      -46.914       -8.307       26.755       21.938       13.597      715.835      481.261      184.884        0.848        0.069      124.540       13.446        0.012      342.567       18.068      860.836
10/23/2013  18:56:00     -120.616      -52.884      -12.183       27.849       16.196       13.894      775.539      262.320      193.040        0.936        0.062      131.700        7.611        0.003      342.593       18.112      860.845
10/23/2013  18:57:00     -155.169      -37.068      -19.755       15.284       13.255       13.348      233.605      175.701      178.164        1.321        0.029      159.536        8.774        0.003      342.682       18.262      860.866
10/23/2013  18:58:00     -150.383      -36.789      -19.242       19.914       13.009       11.103      396.584      169.237      123.268        1.251        0.034      154.817        5.674        0.001      342.672       18.245      860.868
10/23/2013  18:59:00     -150.569      -35.657      -15.443       11.710       13.742       10.661      137.132      188.853      113.652        1.231        0.022      154.733        4.676        0.001      342.682       18.260      860.891
10/23/2013  19:00:00     -133.052      -40.796      -18.770       12.694       17.130       13.553      161.138      293.431      183.683        1.018        0.032      139.166        8.976        0.004      342.534       18.011      860.897
10/23/2013  19:01:00     -136.319      -49.000      -18.240       15.394       14.350       10.309      236.970      205.919      106.266        1.093        0.027      144.858        5.730        0.002      342.427       17.830      860.919
10/23/2013  19:02:00     -102.017      -55.686       -9.349       21.657       13.381        9.674      469.022      179.041       93.591        0.717        0.037      116.225        5.697        0.002      342.221       17.477      860.929
10/23/2013  19:03:00      -89.413      -53.388       -5.147       15.421       14.886       12.432      237.794      221.580      154.558        0.574        0.031      104.139        2.967        0.001      342.169       17.391      860.953
10/23/2013  19:04:00      -70.165      -50.349       -6.614       14.927       13.831        9.664      222.808      191.300       93.400        0.400        0.025       86.361        4.032        0.002      342.243       17.515      860.966
10/23/2013  19:05:00      -93.300      -40.473      -19.052       11.090        9.553        7.759      122.984       91.269       60.203        0.549        0.014      101.701        5.933        0.003      342.219       17.476      860.976
10/23/2013  19:06:00      -94.045      -39.776      -13.122       31.289       21.555       18.017      978.976      464.629      324.596        0.618        0.088      102.111       15.913        0.024      342.329       17.662      860.974
10/23/2013  19:07:00      -52.013       24.320      -15.095       44.622       36.293       24.736     1991.098     1317.166      611.862        0.372        0.196       57.418       20.108        0.123      342.489       17.934      860.978
10/23/2013  19:08:00      -66.279       38.248      -11.962       51.178       47.130       26.922     2619.217     2221.235      724.813        0.578        0.278       76.524       31.061        0.165      342.817       18.492      860.985
10/23/2013  19:09:00      -35.172      -25.059       -9.471       28.167       34.866       14.546      793.391     1215.643      211.572        0.209        0.111       43.186       10.513        0.059      342.251       17.529      860.991
10/23/2013  19:10:00      -36.238      -45.314       -1.461       28.425       21.487       17.671      807.954      461.698      312.281        0.248        0.079       58.022       13.500        0.054      341.848       16.847      861.002
10/23/2013  19:11:00      -43.590      -41.236       -7.704       41.762       29.436       26.101     1744.053      866.453      681.246        0.348        0.165       60.004       24.013        0.160      341.991       17.089      861.016
10/23/2013  19:12:00      -84.906      -29.023      -24.401       18.793       18.394       12.571      353.176      338.339      158.021        0.475        0.042       89.729       10.077        0.013      342.025       17.146      861.024
10/23/2013  19:13:00      -92.449      -54.003      -22.113       25.812       23.911       13.254      666.259      571.722      175.659        0.668        0.071      107.066       11.108        0.011      341.967       17.046      861.029
10/23/2013  19:14:00     -119.337      -49.734      -21.951       26.655       25.079       16.619      710.497      628.975      276.196        0.941        0.081      129.286       12.919        0.010      341.792       16.750      861.028
10/23/2013  19:15:00     -105.148      -40.291      -11.444       30.312       34.121       22.906      918.824     1164.213      524.698        0.771        0.130      112.603       13.624        0.015      341.777       16.724      861.028
10/23/2013  19:16:00      -81.525      -54.990      -20.328       27.829       19.941       18.926      774.453      397.645      358.198        0.581        0.077       98.337       11.714        0.014      341.678       16.559      861.024
10/23/2013  19:17:00      -72.969      -28.739       -3.404       36.436       29.400       22.955     1327.546      864.384      526.941        0.444        0.136       78.425       19.156        0.060      341.661       16.529      861.024
10/23/2013  19:18:00      -43.935      -33.864      -11.626       34.101       25.395       21.159     1162.876      644.896      447.717        0.273        0.113       55.471       18.277        0.109      341.658       16.523      861.032
10/23/2013  19:19:00      -47.389      -54.046      -18.304       29.510       22.673       18.786      870.865      514.060      352.902        0.362        0.087       71.880       14.268        0.039      341.723       16.635      861.036
10/23/2013  19:20:00      -43.782      -49.628      -11.230       18.306       21.065       13.660      335.102      443.752      186.584        0.274        0.048       66.180        9.947        0.023      342.109       17.290      861.042
10/23/2013  19:21:00      -83.329      -43.825      -20.342       23.800       20.249       15.299      566.461      410.003      234.061        0.524        0.061       94.150       13.125        0.019      342.080       17.240      861.045
10/23/2013  19:22:00      -75.284      -53.045      -22.120       28.584       29.277       21.318      817.024      857.132      454.470        0.555        0.106       92.095        9.328        0.010      341.743       16.668      861.055
10/23/2013  19:23:00      -87.569      -46.565      -18.132       36.007       29.661       21.826     1296.534      879.778      476.379        0.641        0.133       99.180       12.356        0.016      341.536       16.316      861.049
10/23/2013  19:24:00     -157.503      -24.700      -28.651       45.062       33.444       27.454     2030.585     1118.518      753.712        1.507        0.195      159.428       18.428        0.013      341.485       16.231      861.055
10/23/2013  19:25:00     -102.342      -21.916      -14.203       43.993       38.973       28.303     1935.373     1518.897      801.086        0.770        0.213      104.663       21.500        0.042      341.452       16.174      861.058
10/23/2013  19:26:00      -79.793      -73.124       -8.212       45.866       36.202       29.074     2103.671     1310.580      845.305        0.802        0.213      108.232       26.152        0.058      341.417       16.113      861.065
10/23/2013  19:27:00      -64.944      -27.451      -12.253       51.169       24.774       21.827     2618.252      613.774      476.397        0.441        0.185       70.507       14.060        0.040      341.363       16.025      861.065
10/23/2013  19:28:00      -60.024      -37.909      -13.855       68.090       32.505       29.432     4636.192     1056.585      866.267        0.589        0.328       70.993       35.060        0.244      341.353       16.007      861.058
10/23/2013  19:29:00      -23.728      -31.887       -8.019       41.737       29.129       20.284     1741.937      848.526      411.444        0.232        0.150       39.747        7.437        0.035      341.251       15.835      861.056
10/23/2013  19:30:00      -70.305      -49.426       -3.522       45.142       46.472       23.217     2037.809     2159.647      539.038        0.607        0.237       85.940       20.488        0.057      341.215       15.772      861.059
10/23/2013  19:31:00      -35.598      -25.864       -6.205       42.940       26.180       26.686     1843.873      685.377      712.149        0.261        0.162       44.002       26.355        0.359      341.210       15.765      861.073
10/23/2013  19:32:00      -81.269      -38.609      -12.219       41.838       28.683       24.690     1750.440      822.699      609.578        0.571        0.159       89.973       18.656        0.043      341.232       15.801      861.079
10/23/2013  19:33:00      -90.998      -47.301       -8.284       50.232       32.030       23.438     2523.230     1025.924      549.353        0.734        0.205      102.558       22.097        0.046      341.385       16.061      861.089
10/23/2013  19:34:00      -54.026      -43.955       -7.263       39.709       32.082       23.706     1576.778     1029.277      561.976        0.404        0.158       69.648       19.115        0.075      341.292       15.903      861.098
10/23/2013  19:35:00      -81.631      -38.559       -0.800       59.337       38.951       26.400     3520.912     1517.200      696.967        0.694        0.287       90.280       29.486        0.107      341.278       15.878      861.109
10/23/2013  19:36:00      -50.171      -46.713       -4.227       50.114       20.848       20.853     2511.368      434.640      434.828        0.405        0.169       68.551       18.339        0.072      341.224       15.789      861.114
10/23/2013  19:37:00      -53.896      -20.953        5.435       40.715       37.069       23.766     1657.749     1374.095      564.824        0.348        0.180       57.826       23.313        0.163      341.253       15.837      861.109
10/23/2013  19:38:00      -84.673      -54.149      -11.600       37.829       34.272       22.919     1430.996     1174.576      525.270        0.668        0.157      100.507       19.295        0.037      341.318       15.948      861.111
10/23/2013  19:39:00     -114.121      -55.854       -6.357       35.575       35.263       26.438     1265.551     1243.464      698.945        0.970        0.160      127.056       19.838        0.024      341.375       16.044      861.108
10/23/2013  19:40:00      -50.491      -10.592       -4.835       61.073       42.574       27.239     3729.883     1812.565      741.939        0.448        0.314       51.590       28.010        0.295      341.443       16.159      861.109
10/23/2013  19:41:00      -11.679       -2.812        4.498       47.394       43.896       26.129     2246.232     1926.877      682.709        0.251        0.243       12.013       27.227        5.137      341.539       16.321      861.098
10/23/2013  19:42:00      -17.817      -10.605        6.083       41.051       41.612       29.771     1685.184     1731.533      886.300        0.238        0.215       20.734       26.193        1.596      341.402       16.088      861.104
10/23/2013  19:43:00      -25.646       -3.867       -6.418       47.823       36.982       27.951     2287.019     1367.699      781.234        0.257        0.222       25.936       17.974        0.480      341.526       16.299      861.095
10/23/2013  19:44:00      -80.935      -44.498        0.084       53.494       39.673       28.908     2861.594     1573.921      835.689        0.690        0.264       92.361       17.121        0.034      341.386       16.062      861.100
10/23/2013  19:45:00      -70.371      -17.196        2.868       72.213       34.851       30.265     5214.760     1214.567      915.981        0.630        0.367       72.442       30.630        0.179      341.356       16.012      861.099
10/23/2013  19:46:00     -114.594      -23.062       -8.223       62.904       48.002       32.456     3956.864     2304.176     1053.372        1.052        0.366      116.892       29.794        0.065      341.526       16.299      861.113
10/23/2013  19:47:00     -142.639      -17.814      -15.704       65.713       50.291       27.959     4318.145     2529.150      781.722        1.427        0.381      143.748       29.616        0.042      341.448       16.167      861.116
10/23/2013  19:48:00      -67.411      -13.629       -0.325       67.684       61.180       35.614     4581.144     3742.976     1268.328        0.716        0.480       68.775       35.529        0.267      341.315       15.943      861.123
10/23/2013  19:49:00      -71.010       -5.076        6.107       60.500       45.082       33.835     3660.294     2032.429     1144.791        0.597        0.342       71.191       32.795        0.212      341.227       15.795      861.131
10/23/2013  19:50:00     -128.933      -43.356       -9.321       42.979       46.041       27.375     1847.201     2119.814      749.377        1.165        0.236      136.028       19.522        0.021      341.314       15.942      861.136
10/23/2013  19:51:00      -61.200       -2.560       -3.878       62.381       43.681       30.135     3891.417     1908.030      908.104        0.524        0.335       61.254       25.043        0.167      341.404       16.093      861.144
10/23/2013  19:52:00      -12.801        3.232        9.783       48.181       32.827       28.236     2321.451     1077.638      797.283        0.223        0.210       13.203       23.494        3.166      341.216       15.776      861.141
10/23/2013  19:53:00      -81.485       -5.685      -11.289       61.012       48.664       27.416     3722.421     2368.225      751.611        0.682        0.342       81.683       31.922        0.153      341.324       15.958      861.143
10/23/2013  19:54:00      -71.964      -13.488      -10.999       48.012       42.781       28.531     2305.111     1830.172      814.012        0.521        0.247       73.217       20.416        0.078      341.308       15.930      861.139
10/23/2013  19:55:00     -105.975      -40.794      -16.751       35.586       30.704       23.992     1266.364      942.718      575.608        0.798        0.139      113.556       17.506        0.024      341.146       15.656      861.147
10/23/2013  19:56:00     -102.916        3.006      -16.447       46.043       45.567       28.391     2119.951     2076.328      806.029        0.794        0.250      102.960       25.269        0.060      341.184       15.720      861.148
10/23/2013  19:57:00     -123.434      -16.993      -21.804       36.644       35.910       27.997     1342.758     1289.544      783.809        0.971        0.171      124.598       17.756        0.020      341.147       15.658      861.155
10/23/2013  19:58:00     -128.228      -65.930      -18.754       45.995       39.084       27.300     2115.542     1527.539      745.302        1.276        0.219      144.185       16.622        0.013      340.944       15.315      861.156
10/23/2013  19:59:00     -120.448      -61.402       -1.140       40.007       47.252       24.311     1600.521     2232.720      591.002        1.135        0.221      135.196       17.117        0.016      340.946       15.318      861.168
10/23/2013  20:00:00     -144.046      -16.415      -19.705       52.363       51.333       29.669     2741.840     2635.102      880.269        1.383        0.313      144.979       28.124        0.038      340.979       15.372      861.172
10/23/2013  20:01:00     -145.594      -67.968       -7.201       39.862       44.935       23.493     1588.966     2019.180      551.914        1.501        0.208      160.677       15.509        0.009      340.829       15.119      861.169
10/23/2013  20:02:00      -94.465      -30.553        7.747       56.041       42.862       28.917     3140.636     1837.172      836.208        0.786        0.291       99.283       25.444        0.066      340.747       14.981      861.166
10/23/2013  20:03:00     -124.424      -24.974       -8.415       40.049       42.688       21.433     1603.901     1822.281      459.391        1.003        0.194      126.906       17.317        0.019      340.825       15.111      861.169
10/23/2013  20:04:00      -98.997       -5.692       -6.100       45.933       30.803       24.116     2109.817      948.826      581.562        0.675        0.182       99.160       21.991        0.049      340.790       15.054      861.180
10/23/2013  20:05:00      -98.016      -26.080       -7.552       32.478       39.538       22.640     1054.841     1563.225      512.564        0.674        0.157      101.427       19.001        0.035      340.836       15.133      861.165
10/23/2013  20:06:00      -81.925      -26.355       -7.845       33.390       26.369       22.921     1114.879      695.302      525.354        0.490        0.117       86.060       12.707        0.022      340.870       15.188      861.175
10/23/2013  20:07:00      -55.345      -23.201        2.915       23.426       28.373       25.630      548.754      805.043      656.917        0.281        0.101       60.012       18.153        0.092      340.801       15.072      861.173
10/23/2013  20:08:00      -79.205      -25.907      -20.775       40.938       27.367       22.112     1675.908      748.973      488.958        0.514        0.146       83.334       18.076        0.047      340.847       15.149      861.186
10/23/2013  20:09:00      -91.870      -48.204      -14.709       32.547       29.721       21.027     1059.280      883.325      442.134        0.668        0.119      103.749       10.345        0.010      340.856       15.166      861.188
10/23/2013  20:10:00      -48.379      -14.168        1.559       48.958       31.370       19.415     2396.877      984.065      376.927        0.315        0.188       50.411       17.603        0.122      340.744       14.976      861.189
10/23/2013  20:11:00     -104.864      -53.156       -2.637       36.509       45.367       24.565     1332.903     2058.144      603.417        0.891        0.200      117.567       13.336        0.013      340.732       14.957      861.194
10/23/2013  20:12:00     -111.349      -48.803       -2.361       52.562       47.296       24.177     2762.737     2236.898      584.507        1.018        0.279      121.574       24.881        0.042      340.671       14.853      861.202
10/23/2013  20:13:00      -96.367      -44.692       -0.292       35.581       35.217       25.320     1265.976     1240.249      641.119        0.722        0.157      106.226       17.134        0.026      340.642       14.804      861.201
10/23/2013  20:14:00     -114.712      -38.265       -2.474       39.484       31.388       18.422     1559.009      985.232      339.367        0.876        0.144      120.926       15.925        0.017      340.601       14.735      861.206
10/23/2013  20:15:00     -135.579      -36.239      -12.301       33.976       42.332       15.855     1154.370     1792.015      251.388        1.152        0.160      140.338       13.380        0.009      340.599       14.732      861.197
10/23/2013  20:16:00      -97.818      -27.319       -4.029       33.864       32.489       22.465     1146.782     1055.529      504.660        0.652        0.135      101.561       17.094        0.028      340.560       14.665      861.206
10/23/2013  20:17:00     -106.770      -20.540       -9.070       50.518       42.461       22.519     2552.104     1802.951      507.089        0.838        0.243      108.728       22.177        0.042      340.587       14.710      861.202
10/23/2013  20:18:00     -118.175      -45.006       -6.055       38.742       38.449       19.755     1500.955     1478.302      390.258        0.970        0.168      126.455       17.616        0.019      340.589       14.714      861.198
10/23/2013  20:19:00     -123.142      -54.132       -2.301       25.972       38.245       20.897      674.527     1462.691      436.686        1.034        0.129      134.515       12.215        0.008      340.583       14.704      861.208
10/23/2013  20:20:00     -130.973      -46.561       -2.196       36.919       39.503       19.768     1363.046     1560.458      390.755        1.132        0.166      139.003       16.351        0.014      340.526       14.607      861.201
10/23/2013  20:21:00     -144.241      -27.534      -12.413       38.038       35.458       22.389     1446.875     1257.266      501.246        1.246        0.160      146.845       13.699        0.009      340.489       14.545      861.209
10/23/2013  20:22:00     -114.820       -7.581        0.755       64.430       41.324       27.676     4151.258     1707.712      765.967        0.993        0.331      115.070       28.130        0.060      340.455       14.487      861.210
10/23/2013  20:23:00     -121.375      -33.709       -9.971       50.411       44.377       25.891     2541.245     1969.348      670.350        1.057        0.259      125.969       21.811        0.030      340.529       14.613      861.211
10/23/2013  20:24:00     -104.443      -21.713       -1.619       52.713       49.566       26.424     2778.651     2456.753      698.243        0.866        0.297      106.676       28.655        0.072      340.516       14.590      861.215
10/23/2013  20:25:00     -129.209      -64.023       -7.879       34.984       39.096       24.845     1223.872     1528.489      617.274        1.211        0.168      144.201       20.280        0.020      340.525       14.606      861.228
10/23/2013  20:26:00      -93.611      -37.464       -1.013       50.651       37.904       22.918     2565.548     1436.751      525.254        0.735        0.226      100.829       19.308        0.037      340.416       14.421      861.238
10/23/2013  20:27:00     -116.428       -7.495      -25.274       25.978       38.792       17.835      674.878     1504.820      318.102        0.837        0.125      116.669        8.057        0.005      340.482       14.534      861.246
10/23/2013  20:28:00      -91.497      -30.178      -20.589       39.113       31.644       22.990     1529.809     1001.333      528.553        0.638        0.153       96.345       15.007        0.024      340.470       14.512      861.247
10/23/2013  20:29:00      -93.458      -33.835      -11.726       32.217       44.098       20.915     1037.947     1944.631      437.424        0.672        0.171       99.394       18.047        0.033      340.452       14.481      861.247
10/23/2013  20:30:00     -115.513      -29.598      -19.639       37.471       29.203       20.036     1404.074      852.816      401.433        0.863        0.133      119.245       17.890        0.023      340.464       14.504      861.260
10/23/2013  20:31:00     -101.117      -47.307       -7.901       33.012       37.453       25.488     1089.804     1402.722      649.617        0.783        0.157      111.637       16.629        0.022      340.468       14.507      861.264
10/23/2013  20:32:00     -137.602      -34.520      -11.777       43.367       31.856       19.962     1880.699     1014.802      398.464        1.178        0.165      141.866       19.831        0.020      340.419       14.427      861.262
10/23/2013  20:33:00     -131.660      -50.166      -10.269       28.466       30.663       23.885      810.331      940.243      570.508        1.114        0.116      140.893       18.215        0.017      340.378       14.356      861.266
10/23/2013  20:34:00     -118.611      -27.107      -16.264       28.650       41.350       18.188      820.827     1709.796      330.818        0.896        0.143      121.669        6.350        0.003      340.365       14.335      861.274
10/23/2013  20:35:00     -132.871      -75.396       -8.364       31.565       27.496       22.030      996.373      756.040      485.308        1.282        0.112      152.772       12.759        0.007      340.324       14.266      861.273
10/23/2013  20:36:00     -135.988      -64.639      -11.206       36.457       29.669       22.982     1329.141      880.241      528.193        1.277        0.137      150.569       17.297        0.013      340.324       14.265      861.284
10/23/2013  20:37:00     -175.377      -76.782      -16.530       40.526       35.397       22.974     1642.387     1252.968      527.791        2.017        0.171      191.448       17.887        0.009      340.271       14.175      861.282
10/23/2013  20:38:00     -162.981      -70.890      -11.178       43.647       35.979       27.433     1905.042     1294.514      752.543        1.783        0.198      177.730       25.117        0.020      340.263       14.161      861.281
10/23/2013  20:39:00     -161.089      -82.468       -5.773       35.721       29.807       22.889     1275.994      888.475      523.890        1.774        0.134      180.971       14.488        0.006      340.206       14.065      861.286
10/23/2013  20:40:00     -154.873      -83.286       -9.432       39.561       29.562       20.434     1565.096      873.899      417.549        1.693        0.143      175.847       16.113        0.008      340.212       14.076      861.276
10/23/2013  20:41:00     -139.805      -77.839       -8.864       38.305       31.822       23.303     1467.272     1012.643      543.026        1.435        0.151      160.013       15.271        0.009      340.193       14.044      861.280
10/23/2013  20:42:00     -115.269      -66.455       -5.826       35.792       32.510       27.191     1281.045     1056.903      739.374        1.041        0.154      133.054       19.182        0.021      340.156       13.982      861.280
10/23/2013  20:43:00     -121.206      -15.363       -2.062       36.149       35.164       24.066     1306.783     1236.483      579.163        0.903        0.156      122.176       21.523        0.031      340.158       13.986      861.283
10/23/2013  20:44:00     -112.775       -7.994       -8.396       36.159       31.556       25.855     1307.506      995.791      668.477        0.791        0.149      113.058       21.733        0.037      340.127       13.933      861.278
10/23/2013  20:45:00     -137.929      -24.221      -23.844       38.376       35.638       24.130     1472.739     1270.075      582.258        1.175        0.166      140.039       16.350        0.014      340.152       13.977      861.276
10/23/2013  20:46:00     -167.327      -26.778      -17.099       40.408       47.632       26.561     1632.831     2268.818      705.470        1.681        0.230      169.456       17.901        0.011      340.177       14.017      861.280
10/23/2013  20:47:00     -138.539      -24.039       -7.721       75.668       61.895       29.560     5725.663     3830.986      873.768        1.513        0.522      140.609       36.416        0.067      340.134       13.944      861.286
10/23/2013  20:48:00     -141.436      -59.690       -4.636       48.596       50.364       27.818     2361.596     2536.566      773.832        1.463        0.284      153.515       15.038        0.010      340.145       13.963      861.299
10/23/2013  20:49:00     -191.875      -27.272      -18.633       68.496       36.544       29.474     4691.673     1335.481      868.719        2.240        0.345      193.804       34.710        0.032      340.124       13.925      861.300
10/23/2013  20:50:00     -130.287      -41.864       -1.930       68.589       52.285       34.542     4704.466     2733.686     1193.176        1.368        0.432      136.848       39.441        0.083      340.092       13.874      861.304
10/23/2013  20:51:00     -110.942      -28.145       -9.333       50.063       41.535       25.036     2506.354     1725.164      626.825        0.902        0.243      114.456       23.384        0.042      340.089       13.869      861.311
10/23/2013  20:52:00     -101.941      -64.521        4.788       47.390       49.413       23.046     2245.853     2441.621      531.130        0.990        0.261      120.644       20.551        0.029      340.106       13.896      861.317
10/23/2013  20:53:00      -95.473       -9.552       -1.193       61.278       33.900       23.428     3755.019     1149.230      548.854        0.733        0.273       95.949       26.642        0.077      340.122       13.925      861.333
10/23/2013  20:54:00     -106.612      -33.907       -2.107       74.658       41.885       26.253     5573.785     1754.348      689.196        1.027        0.401      111.874       32.787        0.086      340.107       13.900      861.334
10/23/2013  20:55:00     -189.657      -42.127      -19.947       27.587       28.103       21.175      761.022      789.761      448.384        2.007        0.100      194.280       11.746        0.004      340.045       13.794      861.347
10/23/2013  20:56:00     -160.889      -53.354      -13.730       36.113       51.316       22.473     1304.123     2633.309      505.053        1.668        0.222      169.505       13.988        0.007      340.031       13.771      861.343
10/23/2013  20:57:00     -202.842      -71.088      -18.886       39.056       31.945       25.850     1525.399     1020.482      668.204        2.488        0.161      214.938       19.966        0.009      339.983       13.687      861.352
10/23/2013  20:58:00     -207.612      -69.531      -13.017       34.559       33.004       23.293     1194.309     1089.259      542.568        2.547        0.141      218.946       13.867        0.004      340.031       13.767      861.350
10/23/2013  20:59:00      -59.594      -53.467       -2.467       52.978       44.695       32.933     2806.632     1997.672     1084.604        0.615        0.294       80.063       22.990        0.082      340.022       13.756      861.365
10/23/2013  21:00:00     -112.009      -93.002       -1.583       52.908       43.080       33.456     2799.278     1855.929     1119.292        1.349        0.289      145.586       30.419        0.044      340.014       13.743      861.371
10/23/2013  21:01:00      -88.585      -77.235        5.411       44.487       38.212       25.905     1979.130     1460.156      671.047        0.898        0.206      117.527       20.197        0.030      339.936       13.611      861.379
10/23/2013  21:02:00      -70.750      -52.791       12.246       45.928       38.618       26.086     2109.346     1491.322      680.491        0.611        0.214       88.275       29.307        0.110      339.894       13.541      861.393
10/23/2013  21:03:00      -19.177      -51.716        4.792       37.089       35.676       19.210     1375.600     1272.773      369.027        0.304        0.151       55.157       19.850        0.130      340.003       13.724      861.405
10/23/2013  21:04:00      -32.817      -75.213        3.144       15.577       23.777       12.946      242.628      565.330      167.594        0.386        0.049       82.061        6.986        0.007      340.182       14.025      861.417
10/23/2013  21:05:00      -71.018      -70.724       -8.208       24.939       31.569       17.245      621.965      996.605      297.400        0.601        0.096      100.227       14.724        0.022      340.321       14.260      861.415
10/23/2013  21:06:00      -99.928      -56.214       -0.772       24.415       38.706       23.596      596.095     1498.151      556.789        0.790        0.133      114.655       17.068        0.022      340.284       14.199      861.416
10/23/2013  21:07:00      -40.607      -31.365        5.685       53.160       37.371       19.176     2825.976     1396.558      367.722        0.363        0.230       51.310       20.746        0.163      340.025       13.760      861.411
10/23/2013  21:08:00      -53.595      -47.897        1.275       25.214       20.119       13.166      635.728      404.794      173.335        0.319        0.061       71.879        9.922        0.019      340.007       13.732      861.434
10/23/2013  21:09:00      -99.009      -58.544       -3.436       29.127       17.322       12.896      848.358      300.043      166.313        0.728        0.066      115.022        9.262        0.006      340.044       13.794      861.435
10/23/2013  21:10:00     -101.387      -58.035       -1.500       32.577       30.438       18.815     1061.268      926.486      354.010        0.800        0.117      116.822        9.271        0.006      340.084       13.862      861.434
10/23/2013  21:11:00      -70.873      -58.969        0.021       33.931       21.350       18.490     1151.318      455.809      341.864        0.522        0.097       92.197       15.499        0.028      339.960       13.652      861.440
10/23/2013  21:12:00      -52.580      -46.897        2.923       37.196       28.526       18.806     1383.543      813.744      353.650        0.376        0.128       70.456       20.343        0.083      339.960       13.651      861.437
10/23/2013  21:13:00      -58.511      -57.088        3.256       29.084       24.325       17.147      845.855      591.700      294.026        0.421        0.087       81.747       13.587        0.028      339.863       13.487      861.449
10/23/2013  21:14:00      -74.679      -56.756        3.714       42.284       26.827       20.475     1787.960      719.698      419.229        0.587        0.146       93.799       19.352        0.043      339.787       13.360      861.450
10/23/2013  21:15:00      -46.505      -42.208        2.363       32.578       19.373       12.964     1061.358      375.294      168.072        0.278        0.080       62.803       14.187        0.051      339.792       13.370      861.456
10/23/2013  21:16:00      -86.343      -47.600       -1.296       35.816       25.095       20.905     1282.813      629.738      437.029        0.604        0.117       98.594       17.362        0.031      339.960       13.652      861.460
10/23/2013  21:17:00     -101.149      -58.193        1.785       33.481       25.676       17.804     1121.009      659.238      316.983        0.786        0.105      116.694       18.075        0.024      339.954       13.642      861.459
10/23/2013  21:18:00     -109.841      -56.985        0.554       30.652       17.565       15.680      939.538      308.518      245.863        0.840        0.075      123.743       14.751        0.014      339.955       13.641      861.450
10/23/2013  21:19:00     -100.981      -44.382        0.339       30.296       16.976       17.517      917.859      288.197      306.828        0.684        0.076      110.304       18.714        0.029      339.923       13.590      861.465
10/23/2013  21:20:00     -102.067      -18.673       -6.043       17.549       23.463       13.735      307.979      550.504      188.659        0.592        0.052      103.762        9.246        0.008      339.879       13.514      861.461
10/23/2013  21:21:00      -66.563       -9.782       -0.211       21.991       20.662       13.453      483.616      426.904      180.995        0.281        0.055       67.278       10.315        0.024      339.909       13.566      861.478
10/23/2013  21:22:00      -91.531      -11.378       -4.350       26.851       20.245       13.910      720.957      409.869      193.497        0.493        0.066       92.235       13.929        0.023      339.873       13.506      861.497
10/23/2013  21:23:00     -113.156      -30.759       -8.076       25.038       18.639       16.857      626.881      347.397      284.155        0.754        0.063      117.262       16.123        0.019      339.885       13.525      861.499
10/23/2013  21:24:00     -129.725      -30.430      -11.784       20.797       17.984       15.097      432.519      323.433      227.909        0.944        0.049      133.246       11.937        0.008      339.814       13.406      861.507
10/23/2013  21:25:00     -125.164      -38.521       -6.756       12.458       19.557       11.979      155.203      382.469      143.486        0.894        0.034      130.958        8.953        0.005      339.711       13.231      861.512
10/23/2013  21:26:00     -135.043      -26.745      -17.455       18.343       18.983       11.115      336.467      360.366      123.552        1.004        0.041      137.666        9.033        0.004      339.641       13.114      861.512
10/23/2013  21:27:00     -124.019      -36.701      -21.423       18.173       12.707       10.152      330.246      161.474      103.064        0.889        0.030      129.335        8.632        0.004      339.568       12.990      861.531
10/23/2013  21:28:00     -137.727      -63.776      -13.488       18.956       18.551       16.613      359.322      344.131      275.984        1.210        0.049      151.777        9.395        0.004      339.491       12.860      861.526
10/23/2013  21:29:00     -150.437      -60.846       -6.164       21.022       29.084       17.545      441.928      845.872      307.837        1.398        0.080      162.276       10.739        0.004      339.442       12.778      861.525
10/23/2013  21:30:00     -128.487      -68.638       -7.205       18.274       16.411       13.486      333.957      269.336      181.884        1.103        0.039      145.671       10.265        0.005      339.448       12.787      861.531
10/23/2013  21:31:00     -124.657      -64.155       -6.370       23.828       16.484       17.421      567.797      271.713      303.504        1.042        0.057      140.197       16.158        0.013      339.393       12.695      861.531
10/23/2013  21:32:00     -136.688      -52.981       -7.318       16.806       15.669       11.012      282.452      245.518      121.265        1.110        0.032      146.597        6.014        0.002      339.450       12.790      861.530
10/23/2013  21:33:00     -148.772      -54.191       -8.826       15.634       20.217       14.021      244.412      408.732      196.577        1.300        0.042      158.335       10.560        0.004      339.450       12.792      861.541
10/23/2013  21:34:00     -131.597      -36.491       -6.242       20.325       25.217       14.332      413.087      635.904      205.420        0.997        0.063      136.563        9.950        0.005      339.388       12.687      861.540
10/23/2013  21:35:00     -129.779      -45.837      -12.478       13.993       15.576       10.119      195.796      242.608      102.401        0.982        0.027      137.636        5.249        0.001      339.326       12.583      861.556
10/23/2013  21:36:00      -97.617      -60.137       -1.182       36.398       19.983       15.810     1324.809      399.338      249.970        0.756        0.099      114.653       12.660        0.012      339.336       12.599      861.577
10/23/2013  21:37:00      -72.163      -19.753       -4.981       23.703       13.742       10.067      561.821      188.848      101.347        0.324        0.043       74.818        8.753        0.014      339.317       12.567      861.595
10/23/2013  21:38:00      -68.919      -32.397       -4.415       11.153       10.607        9.649      124.381      112.511       93.107        0.307        0.016       76.154        5.418        0.005      339.267       12.482      861.618
10/23/2013  21:39:00      -67.528      -19.605       -6.763       11.758       13.862       10.612      138.253      192.165      112.622        0.272        0.022       70.317        7.726        0.012      339.283       12.509      861.632
10/23/2013  21:40:00      -82.129      -30.766       -9.076       13.494       12.790       10.714      182.099      163.581      114.791        0.412        0.023       87.702        5.782        0.004      339.265       12.479      861.631
10/23/2013  21:41:00      -91.288      -20.651       -7.194       20.986       17.002        9.949      440.418      289.084       98.976        0.482        0.041       93.595        9.682        0.011      339.245       12.445      861.644
10/23/2013  21:42:00      -92.008      -10.682      -14.290       13.983       18.939       11.911      195.518      358.703      141.878        0.474        0.035       92.626        6.319        0.005      339.216       12.397      861.645
10/23/2013  21:43:00     -120.733      -23.339      -15.840       16.453       15.076       12.546      270.711      227.301      157.399        0.801        0.033      122.968        8.809        0.005      339.107       12.214      861.658
10/23/2013  21:44:00     -122.387      -28.029      -14.074       16.622       12.928       10.453      276.292      167.141      109.274        0.826        0.028      125.556        8.196        0.004      339.007       12.045      861.668
10/23/2013  21:45:00     -118.651      -23.629      -14.946       12.283       15.325       10.975      150.878      234.856      120.444        0.768        0.025      120.981        6.277        0.003      339.004       12.043      861.661
10/23/2013  21:46:00      -92.378      -43.848      -19.534       17.788       19.219       10.639      316.406      369.378      113.184        0.582        0.040      102.256        8.236        0.006      338.984       12.006      861.677
10/23/2013  21:47:00      -74.268      -45.338      -18.984       26.229       21.329       14.532      687.946      454.910      211.182        0.464        0.068       87.013        9.844        0.013      338.988       12.014      861.673
10/23/2013  21:48:00      -58.166      -53.472       -7.518       16.602       25.282       16.807      275.636      639.204      282.468        0.375        0.060       79.009       12.180        0.024      338.926       11.909      861.678
10/23/2013  21:49:00      -87.913      -54.302      -19.182       21.336       20.052       13.167      455.210      402.087      173.369        0.604        0.052      103.332        9.690        0.009      338.896       11.858      861.679
10/23/2013  21:50:00     -100.129      -51.237      -19.757       14.064       17.138       11.030      197.784      293.697      121.659        0.683        0.031      112.477        6.430        0.003      338.873       11.820      861.687
10/23/2013  21:51:00      -87.500      -48.879      -14.303       15.464       16.141       11.033      239.145      260.528      121.728        0.544        0.031      100.226        9.528        0.009      338.901       11.868      861.688
10/23/2013  21:52:00      -77.960      -36.860       -6.968       16.241       20.237       15.409      263.784      409.528      237.445        0.420        0.046       86.235        7.613        0.008      338.917       11.894      861.700
10/23/2013  21:53:00      -66.714      -42.296      -18.459       24.990       19.067       12.692      624.507      363.554      161.087        0.386        0.057       78.992        8.535        0.012      338.935       11.924      861.696
10/23/2013  21:54:00      -88.012      -32.468      -19.326       22.846       18.933       14.403      521.945      358.463      207.445        0.513        0.054       93.810       10.443        0.012      338.909       11.881      861.702
10/23/2013  21:55:00      -88.393      -61.583      -19.111       20.344       23.194       16.790      413.872      537.943      281.904        0.660        0.062      107.730        5.949        0.003      338.878       11.828      861.703
10/23/2013  21:56:00      -82.451      -57.018      -14.466       24.227       20.951       16.384      586.959      438.945      268.425        0.578        0.065      100.245       12.014        0.014      338.805       11.706      861.706
10/23/2013  21:57:00      -82.931      -39.972      -17.697       18.020       20.377       14.037      324.705      415.212      197.047        0.486        0.047       92.061        5.047        0.003      338.763       11.636      861.723
10/23/2013  21:58:00      -75.579      -52.609      -12.096       26.295       22.606       17.085      691.404      511.025      291.913        0.506        0.075       92.086       12.154        0.017      338.850       11.781      861.732
10/23/2013  21:59:00      -88.134      -40.338       -9.418       32.063       24.144       20.036     1028.019      582.956      401.450        0.575        0.101       96.927       11.606        0.014      338.870       11.815      861.742
10/23/2013  22:00:00      -70.157      -49.073      -16.495       29.447       18.412       17.046      867.119      339.011      290.570        0.455        0.075       85.617        7.923        0.009      338.790       11.680      861.760
10/23/2013  22:01:00      -99.911      -54.326      -10.451       22.626       19.041       16.289      511.956      362.568      265.323        0.709        0.057      113.726        4.929        0.002      338.708       11.542      861.766
10/23/2013  22:02:00     -113.162      -67.121      -13.431       24.948       27.973       22.189      622.392      782.505      492.367        0.969        0.095      131.571        7.440        0.003      338.821       11.733      861.770
10/23/2013  22:03:00     -107.359      -69.166      -11.218       35.053       18.795       16.805     1228.733      353.241      282.418        0.915        0.093      127.710       13.727        0.012      338.760       11.632      861.779
10/23/2013  22:04:00     -106.225      -39.178      -12.646       15.799       13.365       12.221      249.609      178.619      149.350        0.678        0.029      113.219        5.747        0.003      338.781       11.667      861.779
10/23/2013  22:05:00     -103.031      -29.182      -14.557       18.251       17.267       16.005      333.108      298.162      256.155        0.628        0.044      107.084       12.458        0.014      338.722       11.566      861.777
10/23/2013  22:06:00      -93.155      -41.732       -5.200       31.634       20.391       16.962     1000.723      415.795      287.703        0.608        0.085      102.075       18.547        0.033      338.713       11.553      861.776
10/23/2013  22:07:00      -94.372      -46.390       -1.902       21.554       18.505       12.511      464.586      342.451      156.526        0.601        0.048      105.157        9.950        0.009      338.746       11.607      861.784
10/23/2013  22:08:00      -83.984      -45.857       -4.930       35.974       21.414       16.520     1294.094      458.574      272.922        0.560        0.101       95.687       16.458        0.030      338.721       11.564      861.789
10/23/2013  22:09:00      -72.669      -46.833       -2.260       42.137       30.641       20.236     1775.550      938.863      409.493        0.530        0.156       86.453       22.032        0.065      338.716       11.557      861.783
10/23/2013  22:10:00      -84.692      -50.923       -2.997       34.402       26.283       18.514     1183.488      690.788      342.775        0.600        0.111       98.823       15.058        0.023      338.713       11.550      861.783
10/23/2013  22:11:00      -77.941      -55.268       -6.535       23.429       21.230       16.231      548.931      450.732      263.454        0.522        0.063       95.548       11.608        0.015      338.744       11.603      861.791
10/23/2013  22:12:00      -96.755      -55.462       -3.394       23.997       16.997       17.044      575.853      288.881      290.510        0.680        0.058      111.523        7.574        0.005      338.656       11.456      861.779
10/23/2013  22:13:00      -80.680      -56.243       -0.131       35.296       23.417       21.503     1245.837      548.367      462.385        0.596        0.113       98.349       19.681        0.040      338.571       11.314      861.787
10/23/2013  22:14:00      -77.564      -50.107        3.752       36.709       27.810       19.472     1347.523      773.402      379.174        0.552        0.125       92.341       14.879        0.026      338.550       11.278      861.779
10/23/2013  22:15:00      -63.330      -55.843        3.494       42.004       25.377       22.284     1764.333      643.982      496.594        0.502        0.145       84.434       20.068        0.056      338.560       11.293      861.782
10/23/2013  22:16:00      -99.086      -77.591       -7.081       30.467       28.990       15.385      928.256      840.410      236.708        0.895        0.100      125.851       15.038        0.014      338.616       11.387      861.779
10/23/2013  22:17:00      -77.310      -63.577       -5.741       38.013       22.263       18.326     1444.984      495.651      335.831        0.616        0.114      100.094       19.026        0.036      338.607       11.373      861.788
10/23/2013  22:18:00      -34.349      -19.704        1.322       23.699       19.472       13.411      561.650      379.149      179.859        0.135        0.056       39.599        9.228        0.054      338.663       11.468      861.792
10/23/2013  22:19:00      -64.529      -40.727       -9.012       12.906       11.450        9.578      166.559      131.104       91.734        0.315        0.019       76.307        5.622        0.005      338.657       11.458      861.800
10/23/2013  22:20:00      -63.931      -36.135       -8.581       16.010       18.473       13.841      256.318      341.242      191.561        0.313        0.039       73.436       11.117        0.023      338.696       11.524      861.818
10/23/2013  22:21:00      -64.940      -38.720       -7.329       16.588       19.261       12.225      275.147      370.998      149.449        0.328        0.040       75.607        4.535        0.004      338.750       11.614      861.822
10/23/2013  22:22:00      -94.615      -61.687       -5.814       19.137       17.372       16.058      366.220      301.802      257.845        0.686        0.046      112.948       12.149        0.012      338.689       11.511      861.841
10/23/2013  22:23:00      -81.392      -53.137       -2.198       27.278       16.926       11.013      744.088      286.503      121.277        0.530        0.058       97.201        7.478        0.006      338.645       11.436      861.849
10/23/2013  22:24:00      -96.709      -58.285       -9.113       23.339       17.339       12.865      544.703      300.648      165.506        0.692        0.051      112.915        8.406        0.006      338.619       11.393      861.861
10/23/2013  22:25:00     -108.568      -55.058      -10.076       18.451       17.083       12.749      340.439      291.842      162.546        0.786        0.040      121.731        6.510        0.003      338.731       11.582      861.877
10/23/2013  22:26:00     -110.510      -59.330       -9.732       12.815       11.105        8.389      164.213      123.320       70.379        0.809        0.018      125.429        5.153        0.002      338.694       11.520      861.882
10/23/2013  22:27:00     -104.655      -51.476      -13.275       10.173        9.536       10.098      103.485       90.941      101.976        0.704        0.015      116.630        5.309        0.002      338.627       11.408      861.882
10/23/2013  22:28:00     -105.134      -60.271      -13.303       12.370       12.770        8.339      153.013      163.075       69.536        0.762        0.019      121.185        3.825        0.001      338.672       11.481      861.891
10/23/2013  22:29:00     -115.943      -50.913       -6.720       10.131       11.239        7.714      102.628      126.326       59.498        0.818        0.014      126.629        3.954        0.001      338.618       11.391      861.885
10/23/2013  22:30:00     -119.188      -49.916      -11.006        9.997        9.746        6.555       99.938       94.984       42.965        0.853        0.012      129.219        5.052        0.002      338.645       11.437      861.884
10/23/2013  22:31:00     -108.844      -51.821      -13.847        8.436        9.663        9.015       71.162       93.376       81.278        0.748        0.012      120.550        5.054        0.002      338.537       11.256      861.896
10/23/2013  22:32:00     -133.050      -39.866      -17.655       11.351       10.044        7.863      128.846      100.876       61.823        0.995        0.015      138.894        4.411        0.001      338.590       11.346      861.889
10/23/2013  22:33:00     -122.309      -55.133      -14.724       11.545       11.538       12.180      133.282      133.125      148.345        0.932        0.021      134.161        6.673        0.002      338.556       11.287      861.888
10/23/2013  22:34:00      -95.827      -60.119      -16.095       10.427       13.661       11.619      108.716      186.626      134.997        0.674        0.022      113.124        4.383        0.002      338.589       11.343      861.891
10/23/2013  22:35:00     -109.504      -53.939      -19.605        9.275       12.175        9.486       86.023      148.236       89.982        0.780        0.016      122.068        5.664        0.002      338.635       11.421      861.892
10/23/2013  22:36:00     -111.336      -37.057      -13.333       10.526       11.577       13.683      110.795      134.021      187.233        0.719        0.022      117.341        8.073        0.005      338.622       11.398      861.894
10/23/2013  22:37:00     -119.231      -50.157      -17.086       10.303       12.103       12.016      106.147      146.493      144.377        0.871        0.020      129.351        5.506        0.002      338.675       11.488      861.903
10/23/2013  22:38:00     -118.024      -42.246      -16.383        6.946        8.293        4.548       48.253       68.768       20.685        0.806        0.007      125.357        3.107        0.001      338.637       11.423      861.906
10/23/2013  22:39:00     -112.613      -36.799      -18.726        9.720       11.210       10.219       94.476      125.664      104.422        0.736        0.016      118.473        8.104        0.005      338.601       11.363      861.916
10/23/2013  22:40:00     -127.007      -48.645      -19.201        9.114       11.646       10.054       83.063      135.635      101.087        0.959        0.016      136.004        4.676        0.001      338.533       11.248      861.924
10/23/2013  22:41:00     -118.101      -69.248      -15.232        9.722       13.765       10.645       94.512      189.472      113.318        0.969        0.020      136.906        5.565        0.002      338.517       11.223      861.927
10/23/2013  22:42:00     -139.884      -72.873      -17.400       25.135       13.605       13.772      631.748      185.105      189.681        1.309        0.050      157.728        9.555        0.004      338.489       11.176      861.926
10/23/2013  22:43:00     -139.249      -68.360       -8.572       22.826       18.344       14.670      521.025      336.491      215.195        1.260        0.054      155.124       13.927        0.008      338.421       11.062      861.932
10/23/2013  22:44:00      -80.097      -51.991       -4.075       41.992       21.542       18.223     1763.353      464.066      332.062        0.585        0.128       95.492       21.476        0.051      338.393       11.015      861.953
10/23/2013  22:45:00      -19.926      -42.236       -0.540       19.978       18.182       14.119      399.117      330.585      199.349        0.155        0.046       46.701       10.218        0.048      338.511       11.212      861.954
10/23/2013  22:46:00      -32.873      -37.775        2.829       43.318       30.886       17.249     1876.467      953.955      297.541        0.282        0.156       50.076       22.263        0.198      338.457       11.121      861.966
10/23/2013  22:47:00      -89.053      -66.230       -2.102       38.415       32.927       20.689     1475.737     1084.167      428.022        0.765        0.149      110.981       20.301        0.033      338.425       11.068      861.971
10/23/2013  22:48:00      -73.472      -51.883        4.723       45.454       33.567       26.419     2066.110     1126.725      697.974        0.600        0.195       89.945       23.667        0.069      338.374       10.981      861.972
10/23/2013  22:49:00      -57.001      -45.009       -2.134       37.709       29.412       14.351     1421.976      865.085      205.961        0.389        0.125       72.629       14.910        0.042      338.405       11.034      861.987
10/23/2013  22:50:00      -68.011      -54.508        0.160       41.472       29.487       20.423     1719.955      869.486      417.114        0.530        0.150       87.159       18.269        0.044      338.355       10.950      861.985
10/23/2013  22:51:00      -63.984      -52.062        0.742       45.463       30.478       20.276     2066.846      928.883      411.136        0.511        0.170       82.489       20.969        0.065      338.410       11.043      861.980
10/23/2013  22:52:00      -76.095      -46.877        3.711       37.934       27.016       19.186     1438.956      729.873      368.118        0.527        0.127       89.375       21.099        0.056      338.307       10.868      861.981
10/23/2013  22:53:00      -49.219      -37.081        3.177       33.868       17.018       17.489     1147.020      289.597      305.849        0.277        0.087       61.624       17.111        0.077      338.303       10.864      862.001
10/23/2013  22:54:00      -69.948      -51.474       -2.283       42.722       33.229       18.151     1825.156     1104.192      329.441        0.540        0.163       86.846       18.246        0.044      338.243       10.761      861.999
10/23/2013  22:55:00     -115.324      -65.908        1.553       40.856       32.390       21.368     1669.221     1049.109      456.609        1.041        0.159      132.829       11.949        0.008      338.291       10.843      861.992
10/23/2013  22:56:00      -95.534      -54.332        2.110       38.899       30.940       17.472     1513.132      957.307      305.278        0.743        0.139      109.903       13.726        0.016      338.289       10.839      862.001
10/23/2013  22:57:00      -55.122      -60.711       10.681       50.281       39.551       29.345     2528.159     1564.312      861.105        0.590        0.248       82.001       29.311        0.128      338.162       10.626      862.012
10/23/2013  22:58:00      -61.326      -75.177        6.135       42.461       38.455       27.261     1802.937     1478.803      743.180        0.674        0.201       97.018       27.060        0.078      338.267       10.802      862.011
10/23/2013  22:59:00      -50.912      -52.821       13.694       45.639       32.761       27.887     2082.878     1073.294      777.667        0.475        0.197       73.362       28.089        0.147      338.342       10.928      862.018
10/23/2013  23:00:00      -54.278      -37.197        6.842       56.266       25.208       24.020     3165.841      635.422      576.954        0.438        0.219       65.801       17.000        0.067      338.295       10.848      862.018
10/23/2013  23:01:00      -68.020      -40.164       10.083       62.873       30.664       26.770     3953.069      940.310      716.635        0.597        0.281       78.993       32.442        0.169      338.255       10.783      862.015
10/23/2013  23:02:00      -73.264      -60.789        2.324       54.359       31.778       21.900     2954.873     1009.848      479.609        0.676        0.222       95.199       27.380        0.083      338.204       10.696      862.020
10/23/2013  23:03:00      -81.683      -56.650        6.709       43.215       29.281       21.625     1867.510      857.356      467.620        0.656        0.160       99.405       21.659        0.047      338.204       10.694      862.029
10/23/2013  23:04:00      -82.433      -60.846       -2.448       38.844       41.781       22.675     1508.884     1745.634      514.147        0.714        0.188      102.457       17.315        0.029      338.171       10.641      862.026
10/23/2013  23:05:00      -98.569      -50.481        2.513       31.040       29.369       17.090      963.463      862.554      292.076        0.719        0.106      110.744        5.321        0.002      338.119       10.553      862.029
10/23/2013  23:06:00      -25.965      -22.824       12.414       33.732       20.274       18.500     1137.857      411.030      342.253        0.162        0.095       34.570       13.582        0.154      338.026       10.398      862.038
10/23/2013  23:07:00      -28.491      -35.204        2.846       37.882       31.998       17.815     1435.011     1023.903      317.378        0.242        0.139       45.289       18.785        0.172      338.149       10.605      862.042
10/23/2013  23:08:00      -24.393      -32.106        7.299       32.944       28.037       21.550     1085.306      786.058      464.393        0.201        0.117       40.321       17.364        0.185      338.130       10.573      862.037
10/23/2013  23:09:00      -32.339      -40.975       17.168       43.740       37.908       23.067     1913.224     1437.023      532.073        0.345        0.194       52.199       24.602        0.222      338.059       10.453      862.040
10/23/2013  23:10:00      -78.741      -58.506        2.649       49.904       34.247       22.604     2490.445     1172.840      510.943        0.690        0.209       98.097       22.612        0.053      338.052       10.442      862.024
10/23/2013  23:11:00      -69.257      -41.757        3.275       55.317       35.145       29.312     3059.995     1235.196      859.168        0.585        0.258       80.872       29.931        0.137      338.028       10.400      862.013
10/23/2013  23:12:00      -78.686      -66.309        1.518       43.823       33.120       19.927     1920.428     1096.925      397.076        0.700        0.171      102.900       15.753        0.023      338.008       10.367      862.016
10/23/2013  23:13:00      -97.163      -66.935       -1.675       48.195       29.061       19.905     2322.716      844.567      396.227        0.874        0.178      117.987       13.372        0.013      338.026       10.397      862.009
10/23/2013  23:14:00     -115.620      -66.343        1.517       42.998       27.579       21.816     1848.816      760.594      475.936        1.043        0.154      133.302       20.402        0.023      337.990       10.338      862.001
10/23/2013  23:15:00     -109.795      -70.716        0.863       44.469       35.371       27.078     1977.512     1251.111      733.224        1.051        0.198      130.597       24.508        0.035      337.995       10.346      862.009
10/23/2013  23:16:00      -89.760      -63.057        3.572       43.532       31.353       25.181     1895.028      982.996      634.085        0.778        0.176      109.695       25.354        0.053      337.964       10.294      862.010
10/23/2013  23:17:00     -102.732      -81.403        1.594       27.703       26.262       20.310      767.461      689.671      412.490        0.953        0.093      131.074       14.731        0.013      337.955       10.279      862.007
10/23/2013  23:18:00     -109.331      -60.071       -5.540       20.144       20.500       17.424      405.796      420.251      303.592        0.836        0.056      124.747       14.165        0.013      337.895       10.178      862.010
10/23/2013  23:19:00     -125.673      -51.254      -13.145       29.164       20.354       14.343      850.565      414.296      205.734        1.003        0.074      135.723        8.684        0.004      337.920       10.221      862.009
10/23/2013  23:20:00     -137.888      -56.605      -10.799       28.905       23.990       22.246      835.475      575.513      494.884        1.212        0.095      149.055       19.073        0.016      337.878       10.149      862.001
10/23/2013  23:21:00     -137.515      -58.295      -11.503       19.655       25.386       13.750      386.299      644.452      189.050        1.183        0.061      149.361       10.199        0.005      337.866       10.130      862.007
10/23/2013  23:22:00     -132.331      -64.219       -5.771       16.736       28.310       13.258      280.080      801.472      175.786        1.146        0.063      147.091        9.580        0.004      337.859       10.116      862.012
10/23/2013  23:23:00     -122.383      -66.659       -6.186       29.824       19.555       18.484      889.484      382.396      341.642        1.054        0.081      139.360       13.710        0.010      337.903       10.191      862.016
10/23/2013  23:24:00     -113.358      -63.772      -13.096       20.904       19.308       17.658      436.971      372.780      311.811        0.910        0.056      130.065       12.612        0.009      337.906       10.196      862.027
10/23/2013  23:25:00      -96.663      -57.149       -3.528       31.557       20.012       21.339      995.852      400.480      455.349        0.724        0.093      112.293       18.318        0.027      337.836       10.080      862.032
10/23/2013  23:26:00      -97.334      -48.731       -6.933       25.398       11.336       17.061      645.043      128.496      291.067        0.648        0.053      108.851       14.675        0.018      337.760        9.951      862.028
10/23/2013  23:27:00      -97.827      -55.328       -9.828       19.661       20.120       16.133      386.542      404.827      260.262        0.689        0.053      112.389       13.027        0.013      337.764        9.959      862.041
10/23/2013  23:28:00      -69.187      -49.089        6.586       37.266       23.752       19.037     1388.761      564.155      362.402        0.478        0.116       84.832       20.182        0.057      337.720        9.885      862.050
10/23/2013  23:29:00      -72.140      -45.088        8.922       37.815       29.925       19.506     1429.992      895.494      380.469        0.501        0.135       85.071       19.187        0.051      337.703        9.857      862.046
10/23/2013  23:30:00     -108.871      -50.687       -1.300       33.941       27.754       16.780     1151.978      770.264      281.552        0.831        0.110      120.091       17.541        0.021      337.744        9.926      862.045
10/23/2013  23:31:00      -76.550      -48.551       -1.171       28.071       17.788       16.066      787.978      316.420      258.131        0.479        0.068       90.648       13.320        0.022      337.692        9.838      862.055
10/23/2013  23:32:00      -41.751      -36.054        1.311       29.905       18.163       17.006      894.325      329.877      289.205        0.228        0.076       55.164       17.207        0.097      337.717        9.879      862.057
10/23/2013  23:33:00      -68.380      -44.638        4.411       44.683       29.373       23.309     1996.605      862.779      543.299        0.504        0.170       81.660       24.963        0.093      337.684        9.824      862.066
10/23/2013  23:34:00      -77.301      -57.092        5.382       37.955       30.479       21.383     1440.578      928.942      457.220        0.604        0.141       96.099       18.017        0.035      337.733        9.906      862.067
10/23/2013  23:35:00      -71.206      -53.097       -2.004       36.659       24.224       19.471     1343.851      586.806      379.136        0.510        0.115       88.824       16.152        0.033      337.747        9.931      862.064
10/23/2013  23:36:00      -56.952      -54.043        1.645       33.827       28.305       23.210     1144.290      801.158      538.685        0.433        0.124       78.512       21.088        0.072      337.678        9.814      862.078
10/23/2013  23:37:00     -101.225      -75.302       -0.150       47.114       27.407       24.853     2219.742      751.128      617.684        0.975        0.179      126.162       22.289        0.031      337.708        9.864      862.080
10/23/2013  23:38:00      -82.423      -58.519        2.953       47.995       34.323       21.711     2303.518     1178.079      471.347        0.709        0.198      101.084       19.896        0.039      337.754        9.942      862.080
10/23/2013  23:39:00      -95.541      -66.186       -1.452       42.409       28.769       19.609     1798.504      827.661      384.498        0.826        0.151      116.227       20.049        0.030      337.753        9.940      862.094
10/23/2013  23:40:00     -108.686      -75.101        3.312       31.305       26.506       21.410      980.025      702.574      458.405        0.980        0.107      132.109       20.260        0.024      337.643        9.755      862.094
10/23/2013  23:41:00      -99.513      -77.935        1.574       50.837       31.642       25.638     2584.421     1001.232      657.303        1.011        0.212      126.399       20.637        0.027      337.723        9.890      862.085
10/23/2013  23:42:00     -107.149      -75.578        5.591       41.918       27.421       27.096     1757.129      751.912      734.177        1.023        0.162      131.122       23.808        0.033      337.670        9.803      862.093
10/23/2013  23:43:00      -81.380      -55.424       -0.470       34.509       33.856       18.936     1190.842     1146.237      358.580        0.619        0.135       98.461       13.510        0.019      337.699        9.847      862.101
10/23/2013  23:44:00      -35.014      -28.440        5.176       15.815       15.695       10.059      250.128      246.326      101.175        0.133        0.030       45.109        7.773        0.030      337.728        9.899      862.112
10/23/2013  23:45:00      -53.291      -21.481       -7.053       23.797       11.844        9.926      566.295      140.288       98.518        0.208        0.040       57.457       12.326        0.046      337.787        9.999      862.126
10/23/2013  23:46:00     -100.526      -56.514       -7.493       16.907       19.818       17.416      285.862      392.772      303.301        0.717        0.049      115.322       13.733        0.014      337.799       10.016      862.121
10/23/2013  23:47:00      -57.869      -39.787        3.231       28.109       23.517       20.089      790.112      553.070      403.577        0.334        0.087       70.227       17.649        0.063      337.732        9.905      862.127
10/23/2013  23:48:00      -61.650      -45.333       -1.537       27.223       24.636       20.068      741.082      606.949      402.738        0.380        0.088       76.523       10.946        0.020      337.718        9.882      862.127
10/23/2013  23:49:00      -61.988      -52.045        4.622       29.823       18.724       14.322      889.394      350.606      205.124        0.401        0.072       80.940       14.477        0.032      337.726        9.895      862.115
10/23/2013  23:50:00      -23.282      -26.280        8.825       30.234       20.717       16.731      914.070      429.178      279.931        0.147        0.081       35.110       14.973        0.182      337.733        9.905      862.125
10/23/2013  23:51:00       -7.265      -24.454       12.105       33.630       14.044       14.558     1130.950      197.248      211.941        0.117        0.077       25.510       18.483        0.525      337.659        9.782      862.132
10/23/2013  23:52:00      -88.696      -54.817       -1.658       26.029       16.937       14.275      677.492      286.871      203.764        0.602        0.058      104.268       13.489        0.017      337.726        9.895      862.122
10/23/2013  23:53:00      -87.795      -53.433       -1.123       38.547       21.535       18.761     1485.842      463.735      351.960        0.643        0.115      102.776       22.149        0.046      337.675        9.810      862.109
10/23/2013  23:54:00      -83.416      -60.943       -3.249       31.555       22.396       20.195      995.745      501.601      407.853        0.629        0.095      103.307       14.618        0.020      337.653        9.772      862.106
10/23/2013  23:55:00     -114.263      -64.557       -8.734       22.159       17.285       12.399      491.023      298.786      153.743        0.912        0.047      131.239        7.375        0.003      337.669        9.799      862.107
10/23/2013  23:56:00     -100.044      -55.685      -17.416       16.231       14.907       11.121      263.456      222.216      123.683        0.701        0.030      114.497        7.549        0.004      337.580        9.650      862.100
10/23/2013  23:57:00      -92.270      -58.757      -13.670       21.118       16.888       14.359      445.981      285.194      206.176        0.655        0.047      109.390        8.041        0.005      337.593        9.672      862.085
10/23/2013  23:58:00      -76.165      -53.115        5.181       39.753       29.608       21.647     1580.314      876.610      468.576        0.579        0.146       92.857       24.725        0.071      337.526        9.559      862.093
10/23/2013  23:59:00      -45.118      -51.742        3.897       29.481       23.475       18.140      869.137      551.055      329.056        0.324        0.087       68.650       16.161        0.055      337.567        9.627      862.088
